<?xml version="1.0" encoding="UTF-8" standalone="no" ?>
<gpx xmlns="http://www.topografix.com/GPX/1/1" xmlns:xsi="http://www.w3.org/2001/XMLSchema-instance" xsi:schemaLocation="http://www.topografix.com/GPX/1/1 http://www.topografix.com/GPX/1/1/gpx.xsd" version="1.1" creator="VisuGPX - https://www.visugpx.com">
  <metadata>
    <name>Rando - Tour des Dentelles de Montmirail.</name>
    <desc><![CDATA[Très belle rando autour des Dentelles de Montmirail.]]></desc>
  </metadata>
  <trk>
    <name><![CDATA[03-DEC-17 15:12:28]]></name>
    <trkseg>
      <trkpt lat="44.16324" lon="5.00402">
        <ele>143.85</ele>
        <time>2017-12-03T08:21:56Z</time>
      </trkpt>
      <trkpt lat="44.16325" lon="5.00402">
        <ele>143.85</ele>
        <time>2017-12-03T08:21:57Z</time>
      </trkpt>
      <trkpt lat="44.16325" lon="5.00397">
        <ele>143.85</ele>
        <time>2017-12-03T08:22:02Z</time>
      </trkpt>
      <trkpt lat="44.16335" lon="5.00404">
        <ele>143.85</ele>
        <time>2017-12-03T08:22:45Z</time>
      </trkpt>
      <trkpt lat="44.16334" lon="5.00408">
        <ele>143.37</ele>
        <time>2017-12-03T08:22:46Z</time>
      </trkpt>
      <trkpt lat="44.1633" lon="5.00412">
        <ele>143.37</ele>
        <time>2017-12-03T08:22:48Z</time>
      </trkpt>
      <trkpt lat="44.16312" lon="5.00418">
        <ele>144.82</ele>
        <time>2017-12-03T08:23:00Z</time>
      </trkpt>
      <trkpt lat="44.16307" lon="5.00421">
        <ele>144.82</ele>
        <time>2017-12-03T08:23:05Z</time>
      </trkpt>
      <trkpt lat="44.16301" lon="5.00424">
        <ele>145.78</ele>
        <time>2017-12-03T08:23:12Z</time>
      </trkpt>
      <trkpt lat="44.16292" lon="5.00431">
        <ele>149.62</ele>
        <time>2017-12-03T08:23:20Z</time>
      </trkpt>
      <trkpt lat="44.16277" lon="5.00441">
        <ele>149.14</ele>
        <time>2017-12-03T08:23:34Z</time>
      </trkpt>
      <trkpt lat="44.16272" lon="5.00446">
        <ele>150.58</ele>
        <time>2017-12-03T08:23:39Z</time>
      </trkpt>
      <trkpt lat="44.16269" lon="5.00449">
        <ele>150.58</ele>
        <time>2017-12-03T08:23:42Z</time>
      </trkpt>
      <trkpt lat="44.16268" lon="5.00452">
        <ele>151.54</ele>
        <time>2017-12-03T08:23:44Z</time>
      </trkpt>
      <trkpt lat="44.1625" lon="5.00462">
        <ele>153.47</ele>
        <time>2017-12-03T08:23:59Z</time>
      </trkpt>
      <trkpt lat="44.16237" lon="5.00474">
        <ele>157.31</ele>
        <time>2017-12-03T08:24:12Z</time>
      </trkpt>
      <trkpt lat="44.16233" lon="5.00474">
        <ele>156.83</ele>
        <time>2017-12-03T08:24:15Z</time>
      </trkpt>
      <trkpt lat="44.16219" lon="5.00478">
        <ele>158.27</ele>
        <time>2017-12-03T08:24:26Z</time>
      </trkpt>
      <trkpt lat="44.16212" lon="5.00476">
        <ele>158.75</ele>
        <time>2017-12-03T08:24:31Z</time>
      </trkpt>
      <trkpt lat="44.1621" lon="5.00475">
        <ele>159.72</ele>
        <time>2017-12-03T08:24:33Z</time>
      </trkpt>
      <trkpt lat="44.16202" lon="5.00472">
        <ele>162.12</ele>
        <time>2017-12-03T08:24:41Z</time>
      </trkpt>
      <trkpt lat="44.16199" lon="5.00469">
        <ele>163.08</ele>
        <time>2017-12-03T08:24:44Z</time>
      </trkpt>
      <trkpt lat="44.16198" lon="5.00468">
        <ele>163.08</ele>
        <time>2017-12-03T08:24:46Z</time>
      </trkpt>
      <trkpt lat="44.16193" lon="5.00461">
        <ele>164.52</ele>
        <time>2017-12-03T08:24:52Z</time>
      </trkpt>
      <trkpt lat="44.16188" lon="5.00457">
        <ele>165.48</ele>
        <time>2017-12-03T08:24:56Z</time>
      </trkpt>
      <trkpt lat="44.16182" lon="5.00448">
        <ele>166.45</ele>
        <time>2017-12-03T08:25:04Z</time>
      </trkpt>
      <trkpt lat="44.16172" lon="5.00439">
        <ele>169.81</ele>
        <time>2017-12-03T08:25:14Z</time>
      </trkpt>
      <trkpt lat="44.16166" lon="5.0043">
        <ele>170.29</ele>
        <time>2017-12-03T08:25:20Z</time>
      </trkpt>
      <trkpt lat="44.1616" lon="5.00428">
        <ele>171.73</ele>
        <time>2017-12-03T08:25:24Z</time>
      </trkpt>
      <trkpt lat="44.16158" lon="5.00426">
        <ele>173.17</ele>
        <time>2017-12-03T08:25:26Z</time>
      </trkpt>
      <trkpt lat="44.16155" lon="5.00424">
        <ele>174.62</ele>
        <time>2017-12-03T08:25:29Z</time>
      </trkpt>
      <trkpt lat="44.16142" lon="5.00417">
        <ele>178.46</ele>
        <time>2017-12-03T08:25:43Z</time>
      </trkpt>
      <trkpt lat="44.16142" lon="5.00417">
        <ele>178.46</ele>
        <time>2017-12-03T08:25:44Z</time>
      </trkpt>
      <trkpt lat="44.1613" lon="5.00409">
        <ele>180.87</ele>
        <time>2017-12-03T08:25:57Z</time>
      </trkpt>
      <trkpt lat="44.16117" lon="5.00401">
        <ele>184.23</ele>
        <time>2017-12-03T08:26:12Z</time>
      </trkpt>
      <trkpt lat="44.16116" lon="5.004">
        <ele>184.23</ele>
        <time>2017-12-03T08:26:13Z</time>
      </trkpt>
      <trkpt lat="44.16109" lon="5.00393">
        <ele>186.15</ele>
        <time>2017-12-03T08:26:27Z</time>
      </trkpt>
      <trkpt lat="44.161" lon="5.00385">
        <ele>189.04</ele>
        <time>2017-12-03T08:26:38Z</time>
      </trkpt>
      <trkpt lat="44.16098" lon="5.00385">
        <ele>189.04</ele>
        <time>2017-12-03T08:26:56Z</time>
      </trkpt>
      <trkpt lat="44.16094" lon="5.00376">
        <ele>190.96</ele>
        <time>2017-12-03T08:27:17Z</time>
      </trkpt>
      <trkpt lat="44.16093" lon="5.00374">
        <ele>191.44</ele>
        <time>2017-12-03T08:27:18Z</time>
      </trkpt>
      <trkpt lat="44.16083" lon="5.00358">
        <ele>193.36</ele>
        <time>2017-12-03T08:27:27Z</time>
      </trkpt>
      <trkpt lat="44.16082" lon="5.00354">
        <ele>193.84</ele>
        <time>2017-12-03T08:27:30Z</time>
      </trkpt>
      <trkpt lat="44.16074" lon="5.00346">
        <ele>193.36</ele>
        <time>2017-12-03T08:27:36Z</time>
      </trkpt>
      <trkpt lat="44.16072" lon="5.00341">
        <ele>194.32</ele>
        <time>2017-12-03T08:27:39Z</time>
      </trkpt>
      <trkpt lat="44.16068" lon="5.00331">
        <ele>195.28</ele>
        <time>2017-12-03T08:27:47Z</time>
      </trkpt>
      <trkpt lat="44.16058" lon="5.00317">
        <ele>198.65</ele>
        <time>2017-12-03T08:27:59Z</time>
      </trkpt>
      <trkpt lat="44.16054" lon="5.00316">
        <ele>198.65</ele>
        <time>2017-12-03T08:28:02Z</time>
      </trkpt>
      <trkpt lat="44.16051" lon="5.00315">
        <ele>199.61</ele>
        <time>2017-12-03T08:28:04Z</time>
      </trkpt>
      <trkpt lat="44.16041" lon="5.00314">
        <ele>202.98</ele>
        <time>2017-12-03T08:28:13Z</time>
      </trkpt>
      <trkpt lat="44.16039" lon="5.00314">
        <ele>202.98</ele>
        <time>2017-12-03T08:28:14Z</time>
      </trkpt>
      <trkpt lat="44.16036" lon="5.00313">
        <ele>203.46</ele>
        <time>2017-12-03T08:28:17Z</time>
      </trkpt>
      <trkpt lat="44.16032" lon="5.00314">
        <ele>205.38</ele>
        <time>2017-12-03T08:28:21Z</time>
      </trkpt>
      <trkpt lat="44.16023" lon="5.00326">
        <ele>208.26</ele>
        <time>2017-12-03T08:28:33Z</time>
      </trkpt>
      <trkpt lat="44.16022" lon="5.0033">
        <ele>209.22</ele>
        <time>2017-12-03T08:28:37Z</time>
      </trkpt>
      <trkpt lat="44.16013" lon="5.0034">
        <ele>212.11</ele>
        <time>2017-12-03T08:28:50Z</time>
      </trkpt>
      <trkpt lat="44.15999" lon="5.00352">
        <ele>215.47</ele>
        <time>2017-12-03T08:29:04Z</time>
      </trkpt>
      <trkpt lat="44.15991" lon="5.0036">
        <ele>218.36</ele>
        <time>2017-12-03T08:29:12Z</time>
      </trkpt>
      <trkpt lat="44.15987" lon="5.00365">
        <ele>219.8</ele>
        <time>2017-12-03T08:29:19Z</time>
      </trkpt>
      <trkpt lat="44.15986" lon="5.00367">
        <ele>218.84</ele>
        <time>2017-12-03T08:29:21Z</time>
      </trkpt>
      <trkpt lat="44.1598" lon="5.00381">
        <ele>220.76</ele>
        <time>2017-12-03T08:29:33Z</time>
      </trkpt>
      <trkpt lat="44.15978" lon="5.00392">
        <ele>223.64</ele>
        <time>2017-12-03T08:29:41Z</time>
      </trkpt>
      <trkpt lat="44.15971" lon="5.00407">
        <ele>225.57</ele>
        <time>2017-12-03T08:29:52Z</time>
      </trkpt>
      <trkpt lat="44.15967" lon="5.00412">
        <ele>227.01</ele>
        <time>2017-12-03T08:29:57Z</time>
      </trkpt>
      <trkpt lat="44.15963" lon="5.00418">
        <ele>228.93</ele>
        <time>2017-12-03T08:30:03Z</time>
      </trkpt>
      <trkpt lat="44.15954" lon="5.00432">
        <ele>231.81</ele>
        <time>2017-12-03T08:30:16Z</time>
      </trkpt>
      <trkpt lat="44.15945" lon="5.00444">
        <ele>234.22</ele>
        <time>2017-12-03T08:30:28Z</time>
      </trkpt>
      <trkpt lat="44.15941" lon="5.00461">
        <ele>238.06</ele>
        <time>2017-12-03T08:30:42Z</time>
      </trkpt>
      <trkpt lat="44.15942" lon="5.00477">
        <ele>241.43</ele>
        <time>2017-12-03T08:30:51Z</time>
      </trkpt>
      <trkpt lat="44.15944" lon="5.00486">
        <ele>242.39</ele>
        <time>2017-12-03T08:30:58Z</time>
      </trkpt>
      <trkpt lat="44.15945" lon="5.00503">
        <ele>245.75</ele>
        <time>2017-12-03T08:31:10Z</time>
      </trkpt>
      <trkpt lat="44.15946" lon="5.00523">
        <ele>248.64</ele>
        <time>2017-12-03T08:31:25Z</time>
      </trkpt>
      <trkpt lat="44.15948" lon="5.00538">
        <ele>252.48</ele>
        <time>2017-12-03T08:31:35Z</time>
      </trkpt>
      <trkpt lat="44.15948" lon="5.00539">
        <ele>252.48</ele>
        <time>2017-12-03T08:31:36Z</time>
      </trkpt>
      <trkpt lat="44.15947" lon="5.00554">
        <ele>254.89</ele>
        <time>2017-12-03T08:31:51Z</time>
      </trkpt>
      <trkpt lat="44.15947" lon="5.00571">
        <ele>257.77</ele>
        <time>2017-12-03T08:32:04Z</time>
      </trkpt>
      <trkpt lat="44.15947" lon="5.00585">
        <ele>260.17</ele>
        <time>2017-12-03T08:32:18Z</time>
      </trkpt>
      <trkpt lat="44.15948" lon="5.00594">
        <ele>263.54</ele>
        <time>2017-12-03T08:32:28Z</time>
      </trkpt>
      <trkpt lat="44.15949" lon="5.00617">
        <ele>265.94</ele>
        <time>2017-12-03T08:32:41Z</time>
      </trkpt>
      <trkpt lat="44.15951" lon="5.00637">
        <ele>268.83</ele>
        <time>2017-12-03T08:32:53Z</time>
      </trkpt>
      <trkpt lat="44.15947" lon="5.0066">
        <ele>271.71</ele>
        <time>2017-12-03T08:33:07Z</time>
      </trkpt>
      <trkpt lat="44.15942" lon="5.00679">
        <ele>274.11</ele>
        <time>2017-12-03T08:33:20Z</time>
      </trkpt>
      <trkpt lat="44.15938" lon="5.00696">
        <ele>277.48</ele>
        <time>2017-12-03T08:33:32Z</time>
      </trkpt>
      <trkpt lat="44.15937" lon="5.00707">
        <ele>278.44</ele>
        <time>2017-12-03T08:33:45Z</time>
      </trkpt>
      <trkpt lat="44.15935" lon="5.00716">
        <ele>278.92</ele>
        <time>2017-12-03T08:33:57Z</time>
      </trkpt>
      <trkpt lat="44.15935" lon="5.00728">
        <ele>280.84</ele>
        <time>2017-12-03T08:34:10Z</time>
      </trkpt>
      <trkpt lat="44.15935" lon="5.00736">
        <ele>282.28</ele>
        <time>2017-12-03T08:34:18Z</time>
      </trkpt>
      <trkpt lat="44.15935" lon="5.00754">
        <ele>285.17</ele>
        <time>2017-12-03T08:34:31Z</time>
      </trkpt>
      <trkpt lat="44.15936" lon="5.00771">
        <ele>287.57</ele>
        <time>2017-12-03T08:34:44Z</time>
      </trkpt>
      <trkpt lat="44.15934" lon="5.00782">
        <ele>290.46</ele>
        <time>2017-12-03T08:34:52Z</time>
      </trkpt>
      <trkpt lat="44.15932" lon="5.0079">
        <ele>291.9</ele>
        <time>2017-12-03T08:34:56Z</time>
      </trkpt>
      <trkpt lat="44.15927" lon="5.00802">
        <ele>293.34</ele>
        <time>2017-12-03T08:35:05Z</time>
      </trkpt>
      <trkpt lat="44.15926" lon="5.00805">
        <ele>293.82</ele>
        <time>2017-12-03T08:35:07Z</time>
      </trkpt>
      <trkpt lat="44.15925" lon="5.00814">
        <ele>295.26</ele>
        <time>2017-12-03T08:35:14Z</time>
      </trkpt>
      <trkpt lat="44.15924" lon="5.00817">
        <ele>295.26</ele>
        <time>2017-12-03T08:35:16Z</time>
      </trkpt>
      <trkpt lat="44.15923" lon="5.00831">
        <ele>296.22</ele>
        <time>2017-12-03T08:35:25Z</time>
      </trkpt>
      <trkpt lat="44.15923" lon="5.00834">
        <ele>296.7</ele>
        <time>2017-12-03T08:35:27Z</time>
      </trkpt>
      <trkpt lat="44.15922" lon="5.00847">
        <ele>297.67</ele>
        <time>2017-12-03T08:35:36Z</time>
      </trkpt>
      <trkpt lat="44.15923" lon="5.00848">
        <ele>298.15</ele>
        <time>2017-12-03T08:35:38Z</time>
      </trkpt>
      <trkpt lat="44.15927" lon="5.00859">
        <ele>298.63</ele>
        <time>2017-12-03T08:35:47Z</time>
      </trkpt>
      <trkpt lat="44.15928" lon="5.00862">
        <ele>299.11</ele>
        <time>2017-12-03T08:35:49Z</time>
      </trkpt>
      <trkpt lat="44.15928" lon="5.00864">
        <ele>299.59</ele>
        <time>2017-12-03T08:35:50Z</time>
      </trkpt>
      <trkpt lat="44.1593" lon="5.00868">
        <ele>299.11</ele>
        <time>2017-12-03T08:35:52Z</time>
      </trkpt>
      <trkpt lat="44.15936" lon="5.00889">
        <ele>300.55</ele>
        <time>2017-12-03T08:36:07Z</time>
      </trkpt>
      <trkpt lat="44.1594" lon="5.00903">
        <ele>301.03</ele>
        <time>2017-12-03T08:36:17Z</time>
      </trkpt>
      <trkpt lat="44.15943" lon="5.00906">
        <ele>301.51</ele>
        <time>2017-12-03T08:36:19Z</time>
      </trkpt>
      <trkpt lat="44.15947" lon="5.00926">
        <ele>302.95</ele>
        <time>2017-12-03T08:36:32Z</time>
      </trkpt>
      <trkpt lat="44.15946" lon="5.00927">
        <ele>302.95</ele>
        <time>2017-12-03T08:36:33Z</time>
      </trkpt>
      <trkpt lat="44.15933" lon="5.00924">
        <ele>304.88</ele>
        <time>2017-12-03T08:36:47Z</time>
      </trkpt>
      <trkpt lat="44.15929" lon="5.00922">
        <ele>305.84</ele>
        <time>2017-12-03T08:36:52Z</time>
      </trkpt>
      <trkpt lat="44.1592" lon="5.00914">
        <ele>306.32</ele>
        <time>2017-12-03T08:37:03Z</time>
      </trkpt>
      <trkpt lat="44.15916" lon="5.00911">
        <ele>306.8</ele>
        <time>2017-12-03T08:37:07Z</time>
      </trkpt>
      <trkpt lat="44.1591" lon="5.00901">
        <ele>309.68</ele>
        <time>2017-12-03T08:37:17Z</time>
      </trkpt>
      <trkpt lat="44.1591" lon="5.009">
        <ele>310.16</ele>
        <time>2017-12-03T08:37:18Z</time>
      </trkpt>
      <trkpt lat="44.15908" lon="5.00883">
        <ele>313.53</ele>
        <time>2017-12-03T08:37:29Z</time>
      </trkpt>
      <trkpt lat="44.15899" lon="5.00872">
        <ele>314.97</ele>
        <time>2017-12-03T08:37:41Z</time>
      </trkpt>
      <trkpt lat="44.15888" lon="5.00876">
        <ele>317.37</ele>
        <time>2017-12-03T08:37:54Z</time>
      </trkpt>
      <trkpt lat="44.15887" lon="5.00878">
        <ele>317.85</ele>
        <time>2017-12-03T08:38:11Z</time>
      </trkpt>
      <trkpt lat="44.1587" lon="5.00879">
        <ele>319.3</ele>
        <time>2017-12-03T08:38:26Z</time>
      </trkpt>
      <trkpt lat="44.15857" lon="5.00877">
        <ele>322.18</ele>
        <time>2017-12-03T08:38:40Z</time>
      </trkpt>
      <trkpt lat="44.15841" lon="5.00875">
        <ele>324.1</ele>
        <time>2017-12-03T08:38:55Z</time>
      </trkpt>
      <trkpt lat="44.15837" lon="5.00875">
        <ele>326.02</ele>
        <time>2017-12-03T08:39:00Z</time>
      </trkpt>
      <trkpt lat="44.15831" lon="5.00875">
        <ele>326.99</ele>
        <time>2017-12-03T08:39:10Z</time>
      </trkpt>
      <trkpt lat="44.15819" lon="5.00874">
        <ele>328.43</ele>
        <time>2017-12-03T08:39:24Z</time>
      </trkpt>
      <trkpt lat="44.15815" lon="5.00874">
        <ele>329.87</ele>
        <time>2017-12-03T08:39:27Z</time>
      </trkpt>
      <trkpt lat="44.1581" lon="5.00873">
        <ele>329.87</ele>
        <time>2017-12-03T08:39:33Z</time>
      </trkpt>
      <trkpt lat="44.15804" lon="5.00875">
        <ele>329.87</ele>
        <time>2017-12-03T08:39:38Z</time>
      </trkpt>
      <trkpt lat="44.15801" lon="5.00875">
        <ele>330.35</ele>
        <time>2017-12-03T08:39:40Z</time>
      </trkpt>
      <trkpt lat="44.15788" lon="5.00885">
        <ele>332.27</ele>
        <time>2017-12-03T08:39:54Z</time>
      </trkpt>
      <trkpt lat="44.15785" lon="5.00886">
        <ele>326.99</ele>
        <time>2017-12-03T08:39:57Z</time>
      </trkpt>
      <trkpt lat="44.15784" lon="5.00887">
        <ele>336.6</ele>
        <time>2017-12-03T08:39:58Z</time>
      </trkpt>
      <trkpt lat="44.15778" lon="5.009">
        <ele>334.68</ele>
        <time>2017-12-03T08:40:09Z</time>
      </trkpt>
      <trkpt lat="44.1577" lon="5.00915">
        <ele>336.12</ele>
        <time>2017-12-03T08:40:23Z</time>
      </trkpt>
      <trkpt lat="44.15768" lon="5.00917">
        <ele>336.6</ele>
        <time>2017-12-03T08:40:25Z</time>
      </trkpt>
      <trkpt lat="44.15757" lon="5.00929">
        <ele>339</ele>
        <time>2017-12-03T08:40:37Z</time>
      </trkpt>
      <trkpt lat="44.15752" lon="5.00934">
        <ele>339.96</ele>
        <time>2017-12-03T08:40:42Z</time>
      </trkpt>
      <trkpt lat="44.15736" lon="5.00947">
        <ele>342.37</ele>
        <time>2017-12-03T08:40:58Z</time>
      </trkpt>
      <trkpt lat="44.15734" lon="5.00951">
        <ele>343.33</ele>
        <time>2017-12-03T08:41:01Z</time>
      </trkpt>
      <trkpt lat="44.15729" lon="5.00955">
        <ele>344.77</ele>
        <time>2017-12-03T08:41:07Z</time>
      </trkpt>
      <trkpt lat="44.15721" lon="5.00971">
        <ele>347.17</ele>
        <time>2017-12-03T08:41:19Z</time>
      </trkpt>
      <trkpt lat="44.15719" lon="5.00983">
        <ele>348.62</ele>
        <time>2017-12-03T08:41:27Z</time>
      </trkpt>
      <trkpt lat="44.15713" lon="5.00993">
        <ele>350.06</ele>
        <time>2017-12-03T08:41:39Z</time>
      </trkpt>
      <trkpt lat="44.15706" lon="5.01001">
        <ele>351.5</ele>
        <time>2017-12-03T08:41:50Z</time>
      </trkpt>
      <trkpt lat="44.15699" lon="5.01011">
        <ele>353.42</ele>
        <time>2017-12-03T08:42:02Z</time>
      </trkpt>
      <trkpt lat="44.15689" lon="5.01025">
        <ele>355.34</ele>
        <time>2017-12-03T08:42:12Z</time>
      </trkpt>
      <trkpt lat="44.15688" lon="5.01028">
        <ele>355.83</ele>
        <time>2017-12-03T08:42:14Z</time>
      </trkpt>
      <trkpt lat="44.15684" lon="5.01028">
        <ele>356.31</ele>
        <time>2017-12-03T08:42:17Z</time>
      </trkpt>
      <trkpt lat="44.15681" lon="5.01028">
        <ele>356.79</ele>
        <time>2017-12-03T08:42:19Z</time>
      </trkpt>
      <trkpt lat="44.15678" lon="5.01028">
        <ele>357.27</ele>
        <time>2017-12-03T08:42:21Z</time>
      </trkpt>
      <trkpt lat="44.15657" lon="5.01015">
        <ele>359.19</ele>
        <time>2017-12-03T08:42:38Z</time>
      </trkpt>
      <trkpt lat="44.15655" lon="5.01014">
        <ele>359.67</ele>
        <time>2017-12-03T08:42:54Z</time>
      </trkpt>
      <trkpt lat="44.15653" lon="5.01013">
        <ele>360.63</ele>
        <time>2017-12-03T08:43:11Z</time>
      </trkpt>
      <trkpt lat="44.15645" lon="5.01008">
        <ele>361.11</ele>
        <time>2017-12-03T08:43:20Z</time>
      </trkpt>
      <trkpt lat="44.15641" lon="5.01007">
        <ele>362.55</ele>
        <time>2017-12-03T08:43:24Z</time>
      </trkpt>
      <trkpt lat="44.15637" lon="5.0101">
        <ele>363.52</ele>
        <time>2017-12-03T08:43:29Z</time>
      </trkpt>
      <trkpt lat="44.15629" lon="5.01007">
        <ele>365.92</ele>
        <time>2017-12-03T08:43:36Z</time>
      </trkpt>
      <trkpt lat="44.15626" lon="5.01008">
        <ele>366.88</ele>
        <time>2017-12-03T08:43:39Z</time>
      </trkpt>
      <trkpt lat="44.15619" lon="5.01007">
        <ele>368.8</ele>
        <time>2017-12-03T08:43:47Z</time>
      </trkpt>
      <trkpt lat="44.15605" lon="5.01007">
        <ele>372.17</ele>
        <time>2017-12-03T08:43:59Z</time>
      </trkpt>
      <trkpt lat="44.15596" lon="5.01013">
        <ele>374.57</ele>
        <time>2017-12-03T08:44:10Z</time>
      </trkpt>
      <trkpt lat="44.15601" lon="5.01021">
        <ele>377.45</ele>
        <time>2017-12-03T08:44:19Z</time>
      </trkpt>
      <trkpt lat="44.15604" lon="5.01023">
        <ele>375.53</ele>
        <time>2017-12-03T08:44:26Z</time>
      </trkpt>
      <trkpt lat="44.15606" lon="5.01025">
        <ele>376.01</ele>
        <time>2017-12-03T08:44:28Z</time>
      </trkpt>
      <trkpt lat="44.15621" lon="5.01033">
        <ele>376.97</ele>
        <time>2017-12-03T08:44:43Z</time>
      </trkpt>
      <trkpt lat="44.1563" lon="5.01038">
        <ele>377.94</ele>
        <time>2017-12-03T08:44:51Z</time>
      </trkpt>
      <trkpt lat="44.15634" lon="5.01043">
        <ele>378.9</ele>
        <time>2017-12-03T08:44:56Z</time>
      </trkpt>
      <trkpt lat="44.15639" lon="5.01047">
        <ele>378.9</ele>
        <time>2017-12-03T08:45:00Z</time>
      </trkpt>
      <trkpt lat="44.15651" lon="5.01061">
        <ele>380.82</ele>
        <time>2017-12-03T08:45:14Z</time>
      </trkpt>
      <trkpt lat="44.15651" lon="5.01062">
        <ele>381.3</ele>
        <time>2017-12-03T08:45:15Z</time>
      </trkpt>
      <trkpt lat="44.15662" lon="5.0107">
        <ele>382.74</ele>
        <time>2017-12-03T08:45:25Z</time>
      </trkpt>
      <trkpt lat="44.15671" lon="5.01077">
        <ele>383.7</ele>
        <time>2017-12-03T08:45:34Z</time>
      </trkpt>
      <trkpt lat="44.15674" lon="5.01081">
        <ele>384.66</ele>
        <time>2017-12-03T08:45:37Z</time>
      </trkpt>
      <trkpt lat="44.1569" lon="5.01092">
        <ele>386.59</ele>
        <time>2017-12-03T08:45:52Z</time>
      </trkpt>
      <trkpt lat="44.15702" lon="5.01105">
        <ele>388.99</ele>
        <time>2017-12-03T08:46:05Z</time>
      </trkpt>
      <trkpt lat="44.15709" lon="5.01111">
        <ele>389.95</ele>
        <time>2017-12-03T08:46:12Z</time>
      </trkpt>
      <trkpt lat="44.15718" lon="5.01126">
        <ele>391.39</ele>
        <time>2017-12-03T08:46:25Z</time>
      </trkpt>
      <trkpt lat="44.15724" lon="5.01131">
        <ele>391.87</ele>
        <time>2017-12-03T08:46:39Z</time>
      </trkpt>
      <trkpt lat="44.15722" lon="5.01135">
        <ele>391.87</ele>
        <time>2017-12-03T08:46:43Z</time>
      </trkpt>
      <trkpt lat="44.1572" lon="5.01139">
        <ele>391.87</ele>
        <time>2017-12-03T08:46:46Z</time>
      </trkpt>
      <trkpt lat="44.15716" lon="5.01157">
        <ele>391.39</ele>
        <time>2017-12-03T08:46:59Z</time>
      </trkpt>
      <trkpt lat="44.15711" lon="5.01167">
        <ele>393.32</ele>
        <time>2017-12-03T08:47:05Z</time>
      </trkpt>
      <trkpt lat="44.1571" lon="5.01171">
        <ele>391.87</ele>
        <time>2017-12-03T08:47:08Z</time>
      </trkpt>
      <trkpt lat="44.15708" lon="5.01175">
        <ele>392.36</ele>
        <time>2017-12-03T08:47:11Z</time>
      </trkpt>
      <trkpt lat="44.15703" lon="5.01183">
        <ele>392.36</ele>
        <time>2017-12-03T08:47:17Z</time>
      </trkpt>
      <trkpt lat="44.15701" lon="5.01192">
        <ele>390.91</ele>
        <time>2017-12-03T08:47:23Z</time>
      </trkpt>
      <trkpt lat="44.15697" lon="5.01199">
        <ele>382.74</ele>
        <time>2017-12-03T08:47:27Z</time>
      </trkpt>
      <trkpt lat="44.15697" lon="5.01201">
        <ele>398.6</ele>
        <time>2017-12-03T08:47:28Z</time>
      </trkpt>
      <trkpt lat="44.15696" lon="5.01203">
        <ele>391.87</ele>
        <time>2017-12-03T08:47:29Z</time>
      </trkpt>
      <trkpt lat="44.15692" lon="5.01212">
        <ele>386.59</ele>
        <time>2017-12-03T08:47:35Z</time>
      </trkpt>
      <trkpt lat="44.15692" lon="5.01214">
        <ele>394.76</ele>
        <time>2017-12-03T08:47:36Z</time>
      </trkpt>
      <trkpt lat="44.15691" lon="5.01215">
        <ele>390.91</ele>
        <time>2017-12-03T08:47:37Z</time>
      </trkpt>
      <trkpt lat="44.1569" lon="5.01218">
        <ele>389.95</ele>
        <time>2017-12-03T08:47:39Z</time>
      </trkpt>
      <trkpt lat="44.15686" lon="5.01234">
        <ele>390.91</ele>
        <time>2017-12-03T08:47:48Z</time>
      </trkpt>
      <trkpt lat="44.15683" lon="5.01243">
        <ele>391.87</ele>
        <time>2017-12-03T08:47:53Z</time>
      </trkpt>
      <trkpt lat="44.15682" lon="5.01247">
        <ele>391.39</ele>
        <time>2017-12-03T08:47:55Z</time>
      </trkpt>
      <trkpt lat="44.15675" lon="5.01263">
        <ele>390.91</ele>
        <time>2017-12-03T08:48:04Z</time>
      </trkpt>
      <trkpt lat="44.15667" lon="5.01283">
        <ele>390.43</ele>
        <time>2017-12-03T08:48:16Z</time>
      </trkpt>
      <trkpt lat="44.15666" lon="5.01287">
        <ele>391.39</ele>
        <time>2017-12-03T08:48:29Z</time>
      </trkpt>
      <trkpt lat="44.15666" lon="5.01287">
        <ele>391.39</ele>
        <time>2017-12-03T08:48:54Z</time>
      </trkpt>
      <trkpt lat="44.15666" lon="5.01287">
        <ele>392.36</ele>
        <time>2017-12-03T08:48:58Z</time>
      </trkpt>
      <trkpt lat="44.15665" lon="5.0129">
        <ele>389.95</ele>
        <time>2017-12-03T08:49:04Z</time>
      </trkpt>
      <trkpt lat="44.15664" lon="5.01296">
        <ele>390.43</ele>
        <time>2017-12-03T08:49:08Z</time>
      </trkpt>
      <trkpt lat="44.15664" lon="5.013">
        <ele>390.91</ele>
        <time>2017-12-03T08:49:11Z</time>
      </trkpt>
      <trkpt lat="44.15661" lon="5.0132">
        <ele>390.91</ele>
        <time>2017-12-03T08:49:23Z</time>
      </trkpt>
      <trkpt lat="44.1566" lon="5.01323">
        <ele>390.43</ele>
        <time>2017-12-03T08:49:25Z</time>
      </trkpt>
      <trkpt lat="44.15658" lon="5.01344">
        <ele>390.43</ele>
        <time>2017-12-03T08:49:38Z</time>
      </trkpt>
      <trkpt lat="44.15654" lon="5.01367">
        <ele>390.91</ele>
        <time>2017-12-03T08:49:52Z</time>
      </trkpt>
      <trkpt lat="44.15652" lon="5.01386">
        <ele>388.99</ele>
        <time>2017-12-03T08:50:03Z</time>
      </trkpt>
      <trkpt lat="44.15647" lon="5.01406">
        <ele>388.99</ele>
        <time>2017-12-03T08:50:15Z</time>
      </trkpt>
      <trkpt lat="44.15645" lon="5.01426">
        <ele>388.03</ele>
        <time>2017-12-03T08:50:25Z</time>
      </trkpt>
      <trkpt lat="44.15645" lon="5.0144">
        <ele>387.55</ele>
        <time>2017-12-03T08:50:33Z</time>
      </trkpt>
      <trkpt lat="44.15646" lon="5.01464">
        <ele>386.11</ele>
        <time>2017-12-03T08:50:46Z</time>
      </trkpt>
      <trkpt lat="44.15646" lon="5.01469">
        <ele>387.07</ele>
        <time>2017-12-03T08:50:48Z</time>
      </trkpt>
      <trkpt lat="44.15646" lon="5.01476">
        <ele>386.11</ele>
        <time>2017-12-03T08:50:51Z</time>
      </trkpt>
      <trkpt lat="44.15645" lon="5.01482">
        <ele>387.55</ele>
        <time>2017-12-03T08:50:54Z</time>
      </trkpt>
      <trkpt lat="44.15645" lon="5.01488">
        <ele>389.47</ele>
        <time>2017-12-03T08:50:57Z</time>
      </trkpt>
      <trkpt lat="44.15645" lon="5.0149">
        <ele>388.99</ele>
        <time>2017-12-03T08:50:58Z</time>
      </trkpt>
      <trkpt lat="44.15644" lon="5.01498">
        <ele>387.55</ele>
        <time>2017-12-03T08:51:03Z</time>
      </trkpt>
      <trkpt lat="44.15645" lon="5.01507">
        <ele>387.07</ele>
        <time>2017-12-03T08:51:08Z</time>
      </trkpt>
      <trkpt lat="44.15646" lon="5.01515">
        <ele>386.11</ele>
        <time>2017-12-03T08:51:12Z</time>
      </trkpt>
      <trkpt lat="44.15647" lon="5.01522">
        <ele>388.03</ele>
        <time>2017-12-03T08:51:15Z</time>
      </trkpt>
      <trkpt lat="44.15646" lon="5.01533">
        <ele>387.55</ele>
        <time>2017-12-03T08:51:21Z</time>
      </trkpt>
      <trkpt lat="44.15645" lon="5.01539">
        <ele>386.59</ele>
        <time>2017-12-03T08:51:24Z</time>
      </trkpt>
      <trkpt lat="44.15644" lon="5.01552">
        <ele>387.07</ele>
        <time>2017-12-03T08:51:32Z</time>
      </trkpt>
      <trkpt lat="44.15642" lon="5.01559">
        <ele>386.59</ele>
        <time>2017-12-03T08:51:36Z</time>
      </trkpt>
      <trkpt lat="44.15644" lon="5.01577">
        <ele>386.11</ele>
        <time>2017-12-03T08:51:46Z</time>
      </trkpt>
      <trkpt lat="44.15644" lon="5.01579">
        <ele>386.59</ele>
        <time>2017-12-03T08:51:47Z</time>
      </trkpt>
      <trkpt lat="44.15647" lon="5.01584">
        <ele>387.07</ele>
        <time>2017-12-03T08:51:50Z</time>
      </trkpt>
      <trkpt lat="44.15652" lon="5.01596">
        <ele>386.11</ele>
        <time>2017-12-03T08:51:57Z</time>
      </trkpt>
      <trkpt lat="44.15652" lon="5.01598">
        <ele>385.63</ele>
        <time>2017-12-03T08:51:58Z</time>
      </trkpt>
      <trkpt lat="44.15654" lon="5.01605">
        <ele>384.66</ele>
        <time>2017-12-03T08:52:02Z</time>
      </trkpt>
      <trkpt lat="44.15658" lon="5.01616">
        <ele>385.63</ele>
        <time>2017-12-03T08:52:08Z</time>
      </trkpt>
      <trkpt lat="44.1566" lon="5.01623">
        <ele>384.18</ele>
        <time>2017-12-03T08:52:12Z</time>
      </trkpt>
      <trkpt lat="44.15667" lon="5.01642">
        <ele>384.66</ele>
        <time>2017-12-03T08:52:23Z</time>
      </trkpt>
      <trkpt lat="44.1567" lon="5.01657">
        <ele>384.18</ele>
        <time>2017-12-03T08:52:31Z</time>
      </trkpt>
      <trkpt lat="44.15673" lon="5.01677">
        <ele>383.7</ele>
        <time>2017-12-03T08:52:42Z</time>
      </trkpt>
      <trkpt lat="44.15673" lon="5.01683">
        <ele>384.18</ele>
        <time>2017-12-03T08:52:45Z</time>
      </trkpt>
      <trkpt lat="44.15673" lon="5.0169">
        <ele>385.15</ele>
        <time>2017-12-03T08:52:49Z</time>
      </trkpt>
      <trkpt lat="44.15672" lon="5.01699">
        <ele>384.66</ele>
        <time>2017-12-03T08:52:54Z</time>
      </trkpt>
      <trkpt lat="44.15669" lon="5.01717">
        <ele>383.22</ele>
        <time>2017-12-03T08:53:04Z</time>
      </trkpt>
      <trkpt lat="44.15668" lon="5.01724">
        <ele>383.22</ele>
        <time>2017-12-03T08:53:08Z</time>
      </trkpt>
      <trkpt lat="44.15661" lon="5.0175">
        <ele>382.74</ele>
        <time>2017-12-03T08:53:21Z</time>
      </trkpt>
      <trkpt lat="44.1566" lon="5.01751">
        <ele>383.22</ele>
        <time>2017-12-03T08:53:22Z</time>
      </trkpt>
      <trkpt lat="44.1566" lon="5.01757">
        <ele>382.74</ele>
        <time>2017-12-03T08:53:25Z</time>
      </trkpt>
      <trkpt lat="44.1566" lon="5.01761">
        <ele>383.22</ele>
        <time>2017-12-03T08:53:28Z</time>
      </trkpt>
      <trkpt lat="44.15662" lon="5.01769">
        <ele>383.22</ele>
        <time>2017-12-03T08:53:32Z</time>
      </trkpt>
      <trkpt lat="44.15676" lon="5.0179">
        <ele>383.22</ele>
        <time>2017-12-03T08:53:48Z</time>
      </trkpt>
      <trkpt lat="44.15682" lon="5.01805">
        <ele>383.22</ele>
        <time>2017-12-03T08:53:57Z</time>
      </trkpt>
      <trkpt lat="44.1568" lon="5.01817">
        <ele>383.22</ele>
        <time>2017-12-03T08:54:03Z</time>
      </trkpt>
      <trkpt lat="44.15677" lon="5.01827">
        <ele>381.78</ele>
        <time>2017-12-03T08:54:08Z</time>
      </trkpt>
      <trkpt lat="44.1568" lon="5.01834">
        <ele>381.3</ele>
        <time>2017-12-03T08:54:12Z</time>
      </trkpt>
      <trkpt lat="44.15681" lon="5.01841">
        <ele>380.34</ele>
        <time>2017-12-03T08:54:16Z</time>
      </trkpt>
      <trkpt lat="44.15684" lon="5.01863">
        <ele>381.3</ele>
        <time>2017-12-03T08:54:27Z</time>
      </trkpt>
      <trkpt lat="44.15683" lon="5.01871">
        <ele>380.82</ele>
        <time>2017-12-03T08:54:32Z</time>
      </trkpt>
      <trkpt lat="44.15685" lon="5.01881">
        <ele>379.86</ele>
        <time>2017-12-03T08:54:37Z</time>
      </trkpt>
      <trkpt lat="44.15684" lon="5.01888">
        <ele>380.34</ele>
        <time>2017-12-03T08:54:41Z</time>
      </trkpt>
      <trkpt lat="44.15686" lon="5.01898">
        <ele>379.86</ele>
        <time>2017-12-03T08:54:46Z</time>
      </trkpt>
      <trkpt lat="44.15687" lon="5.01902">
        <ele>379.86</ele>
        <time>2017-12-03T08:54:48Z</time>
      </trkpt>
      <trkpt lat="44.15686" lon="5.01908">
        <ele>379.38</ele>
        <time>2017-12-03T08:54:52Z</time>
      </trkpt>
      <trkpt lat="44.15686" lon="5.01917">
        <ele>377.94</ele>
        <time>2017-12-03T08:54:56Z</time>
      </trkpt>
      <trkpt lat="44.15688" lon="5.01939">
        <ele>377.94</ele>
        <time>2017-12-03T08:55:07Z</time>
      </trkpt>
      <trkpt lat="44.15689" lon="5.01941">
        <ele>377.45</ele>
        <time>2017-12-03T08:55:08Z</time>
      </trkpt>
      <trkpt lat="44.15692" lon="5.01965">
        <ele>378.9</ele>
        <time>2017-12-03T08:55:20Z</time>
      </trkpt>
      <trkpt lat="44.15693" lon="5.0197">
        <ele>377.94</ele>
        <time>2017-12-03T08:55:23Z</time>
      </trkpt>
      <trkpt lat="44.15696" lon="5.01981">
        <ele>377.94</ele>
        <time>2017-12-03T08:55:29Z</time>
      </trkpt>
      <trkpt lat="44.157" lon="5.02002">
        <ele>377.45</ele>
        <time>2017-12-03T08:55:41Z</time>
      </trkpt>
      <trkpt lat="44.157" lon="5.02008">
        <ele>377.94</ele>
        <time>2017-12-03T08:55:44Z</time>
      </trkpt>
      <trkpt lat="44.157" lon="5.02016">
        <ele>377.45</ele>
        <time>2017-12-03T08:55:48Z</time>
      </trkpt>
      <trkpt lat="44.15704" lon="5.02025">
        <ele>377.45</ele>
        <time>2017-12-03T08:55:53Z</time>
      </trkpt>
      <trkpt lat="44.15708" lon="5.02032">
        <ele>377.45</ele>
        <time>2017-12-03T08:55:58Z</time>
      </trkpt>
      <trkpt lat="44.15713" lon="5.02041">
        <ele>376.97</ele>
        <time>2017-12-03T08:56:04Z</time>
      </trkpt>
      <trkpt lat="44.1572" lon="5.0205">
        <ele>376.01</ele>
        <time>2017-12-03T08:56:11Z</time>
      </trkpt>
      <trkpt lat="44.15721" lon="5.02055">
        <ele>376.01</ele>
        <time>2017-12-03T08:56:14Z</time>
      </trkpt>
      <trkpt lat="44.15723" lon="5.02062">
        <ele>375.53</ele>
        <time>2017-12-03T08:56:18Z</time>
      </trkpt>
      <trkpt lat="44.15728" lon="5.02088">
        <ele>376.01</ele>
        <time>2017-12-03T08:56:31Z</time>
      </trkpt>
      <trkpt lat="44.15731" lon="5.021">
        <ele>375.05</ele>
        <time>2017-12-03T08:56:38Z</time>
      </trkpt>
      <trkpt lat="44.15732" lon="5.02103">
        <ele>375.05</ele>
        <time>2017-12-03T08:56:40Z</time>
      </trkpt>
      <trkpt lat="44.15739" lon="5.02116">
        <ele>374.57</ele>
        <time>2017-12-03T08:56:50Z</time>
      </trkpt>
      <trkpt lat="44.15761" lon="5.02132">
        <ele>374.09</ele>
        <time>2017-12-03T08:57:05Z</time>
      </trkpt>
      <trkpt lat="44.15771" lon="5.02139">
        <ele>374.57</ele>
        <time>2017-12-03T08:57:16Z</time>
      </trkpt>
      <trkpt lat="44.15771" lon="5.02142">
        <ele>374.09</ele>
        <time>2017-12-03T08:57:18Z</time>
      </trkpt>
      <trkpt lat="44.15782" lon="5.02159">
        <ele>374.09</ele>
        <time>2017-12-03T08:57:32Z</time>
      </trkpt>
      <trkpt lat="44.15784" lon="5.02162">
        <ele>374.57</ele>
        <time>2017-12-03T08:57:34Z</time>
      </trkpt>
      <trkpt lat="44.15786" lon="5.02166">
        <ele>374.57</ele>
        <time>2017-12-03T08:57:37Z</time>
      </trkpt>
      <trkpt lat="44.15791" lon="5.02189">
        <ele>373.61</ele>
        <time>2017-12-03T08:57:52Z</time>
      </trkpt>
      <trkpt lat="44.15797" lon="5.02208">
        <ele>374.09</ele>
        <time>2017-12-03T08:58:04Z</time>
      </trkpt>
      <trkpt lat="44.15799" lon="5.02212">
        <ele>374.09</ele>
        <time>2017-12-03T08:58:06Z</time>
      </trkpt>
      <trkpt lat="44.15802" lon="5.02218">
        <ele>373.61</ele>
        <time>2017-12-03T08:58:10Z</time>
      </trkpt>
      <trkpt lat="44.15805" lon="5.0224">
        <ele>373.13</ele>
        <time>2017-12-03T08:58:21Z</time>
      </trkpt>
      <trkpt lat="44.15804" lon="5.02249">
        <ele>373.13</ele>
        <time>2017-12-03T08:58:25Z</time>
      </trkpt>
      <trkpt lat="44.15802" lon="5.02259">
        <ele>372.17</ele>
        <time>2017-12-03T08:58:31Z</time>
      </trkpt>
      <trkpt lat="44.15803" lon="5.02263">
        <ele>372.17</ele>
        <time>2017-12-03T08:58:33Z</time>
      </trkpt>
      <trkpt lat="44.15803" lon="5.02287">
        <ele>371.69</ele>
        <time>2017-12-03T08:58:46Z</time>
      </trkpt>
      <trkpt lat="44.15806" lon="5.02301">
        <ele>371.21</ele>
        <time>2017-12-03T08:58:54Z</time>
      </trkpt>
      <trkpt lat="44.15809" lon="5.02313">
        <ele>371.21</ele>
        <time>2017-12-03T08:59:01Z</time>
      </trkpt>
      <trkpt lat="44.15814" lon="5.02334">
        <ele>370.24</ele>
        <time>2017-12-03T08:59:13Z</time>
      </trkpt>
      <trkpt lat="44.1582" lon="5.0235">
        <ele>370.24</ele>
        <time>2017-12-03T08:59:23Z</time>
      </trkpt>
      <trkpt lat="44.15822" lon="5.02356">
        <ele>369.76</ele>
        <time>2017-12-03T08:59:26Z</time>
      </trkpt>
      <trkpt lat="44.15824" lon="5.02362">
        <ele>370.24</ele>
        <time>2017-12-03T08:59:30Z</time>
      </trkpt>
      <trkpt lat="44.15828" lon="5.0237">
        <ele>370.24</ele>
        <time>2017-12-03T08:59:35Z</time>
      </trkpt>
      <trkpt lat="44.15834" lon="5.02386">
        <ele>369.76</ele>
        <time>2017-12-03T08:59:45Z</time>
      </trkpt>
      <trkpt lat="44.15844" lon="5.02402">
        <ele>369.28</ele>
        <time>2017-12-03T08:59:56Z</time>
      </trkpt>
      <trkpt lat="44.1585" lon="5.0241">
        <ele>369.28</ele>
        <time>2017-12-03T09:00:01Z</time>
      </trkpt>
      <trkpt lat="44.15861" lon="5.02434">
        <ele>368.32</ele>
        <time>2017-12-03T09:00:16Z</time>
      </trkpt>
      <trkpt lat="44.15874" lon="5.02447">
        <ele>368.8</ele>
        <time>2017-12-03T09:00:30Z</time>
      </trkpt>
      <trkpt lat="44.15876" lon="5.02448">
        <ele>361.11</ele>
        <time>2017-12-03T09:00:39Z</time>
      </trkpt>
      <trkpt lat="44.15876" lon="5.02448">
        <ele>374.57</ele>
        <time>2017-12-03T09:00:40Z</time>
      </trkpt>
      <trkpt lat="44.15876" lon="5.02448">
        <ele>365.92</ele>
        <time>2017-12-03T09:00:41Z</time>
      </trkpt>
      <trkpt lat="44.15876" lon="5.02448">
        <ele>370.73</ele>
        <time>2017-12-03T09:00:43Z</time>
      </trkpt>
      <trkpt lat="44.15876" lon="5.02448">
        <ele>366.4</ele>
        <time>2017-12-03T09:00:44Z</time>
      </trkpt>
      <trkpt lat="44.15876" lon="5.02448">
        <ele>369.76</ele>
        <time>2017-12-03T09:00:48Z</time>
      </trkpt>
      <trkpt lat="44.15876" lon="5.02448">
        <ele>370.24</ele>
        <time>2017-12-03T09:00:58Z</time>
      </trkpt>
      <trkpt lat="44.1587" lon="5.0245">
        <ele>370.73</ele>
        <time>2017-12-03T09:01:11Z</time>
      </trkpt>
      <trkpt lat="44.1587" lon="5.0245">
        <ele>370.73</ele>
        <time>2017-12-03T09:01:35Z</time>
      </trkpt>
      <trkpt lat="44.15869" lon="5.0245">
        <ele>371.21</ele>
        <time>2017-12-03T09:01:49Z</time>
      </trkpt>
      <trkpt lat="44.1587" lon="5.02449">
        <ele>370.73</ele>
        <time>2017-12-03T09:01:54Z</time>
      </trkpt>
      <trkpt lat="44.15871" lon="5.02448">
        <ele>366.4</ele>
        <time>2017-12-03T09:02:02Z</time>
      </trkpt>
      <trkpt lat="44.15871" lon="5.02447">
        <ele>368.8</ele>
        <time>2017-12-03T09:02:03Z</time>
      </trkpt>
      <trkpt lat="44.15871" lon="5.02447">
        <ele>373.13</ele>
        <time>2017-12-03T09:02:04Z</time>
      </trkpt>
      <trkpt lat="44.15871" lon="5.02447">
        <ele>370.24</ele>
        <time>2017-12-03T09:02:05Z</time>
      </trkpt>
      <trkpt lat="44.15871" lon="5.02447">
        <ele>368.8</ele>
        <time>2017-12-03T09:02:07Z</time>
      </trkpt>
      <trkpt lat="44.15873" lon="5.02444">
        <ele>367.84</ele>
        <time>2017-12-03T09:02:10Z</time>
      </trkpt>
      <trkpt lat="44.15874" lon="5.02444">
        <ele>371.69</ele>
        <time>2017-12-03T09:02:11Z</time>
      </trkpt>
      <trkpt lat="44.1588" lon="5.02448">
        <ele>369.28</ele>
        <time>2017-12-03T09:02:22Z</time>
      </trkpt>
      <trkpt lat="44.15883" lon="5.02453">
        <ele>368.32</ele>
        <time>2017-12-03T09:02:27Z</time>
      </trkpt>
      <trkpt lat="44.15887" lon="5.02457">
        <ele>367.36</ele>
        <time>2017-12-03T09:02:31Z</time>
      </trkpt>
      <trkpt lat="44.15892" lon="5.02466">
        <ele>367.84</ele>
        <time>2017-12-03T09:02:39Z</time>
      </trkpt>
      <trkpt lat="44.15897" lon="5.02477">
        <ele>367.36</ele>
        <time>2017-12-03T09:02:46Z</time>
      </trkpt>
      <trkpt lat="44.15898" lon="5.0248">
        <ele>367.36</ele>
        <time>2017-12-03T09:02:48Z</time>
      </trkpt>
      <trkpt lat="44.15898" lon="5.02483">
        <ele>367.36</ele>
        <time>2017-12-03T09:03:00Z</time>
      </trkpt>
      <trkpt lat="44.15897" lon="5.02481">
        <ele>367.84</ele>
        <time>2017-12-03T09:03:13Z</time>
      </trkpt>
      <trkpt lat="44.15897" lon="5.02481">
        <ele>368.32</ele>
        <time>2017-12-03T09:03:34Z</time>
      </trkpt>
      <trkpt lat="44.15897" lon="5.02481">
        <ele>368.8</ele>
        <time>2017-12-03T09:04:02Z</time>
      </trkpt>
      <trkpt lat="44.15897" lon="5.02484">
        <ele>368.32</ele>
        <time>2017-12-03T09:04:14Z</time>
      </trkpt>
      <trkpt lat="44.15904" lon="5.025">
        <ele>366.4</ele>
        <time>2017-12-03T09:04:28Z</time>
      </trkpt>
      <trkpt lat="44.15908" lon="5.02508">
        <ele>365.92</ele>
        <time>2017-12-03T09:04:35Z</time>
      </trkpt>
      <trkpt lat="44.15912" lon="5.0252">
        <ele>364.48</ele>
        <time>2017-12-03T09:04:45Z</time>
      </trkpt>
      <trkpt lat="44.15916" lon="5.02531">
        <ele>363.52</ele>
        <time>2017-12-03T09:04:56Z</time>
      </trkpt>
      <trkpt lat="44.1592" lon="5.02542">
        <ele>362.55</ele>
        <time>2017-12-03T09:05:04Z</time>
      </trkpt>
      <trkpt lat="44.15925" lon="5.02552">
        <ele>361.59</ele>
        <time>2017-12-03T09:05:11Z</time>
      </trkpt>
      <trkpt lat="44.15933" lon="5.02565">
        <ele>360.15</ele>
        <time>2017-12-03T09:05:26Z</time>
      </trkpt>
      <trkpt lat="44.15936" lon="5.02572">
        <ele>359.19</ele>
        <time>2017-12-03T09:05:30Z</time>
      </trkpt>
      <trkpt lat="44.15939" lon="5.02578">
        <ele>359.19</ele>
        <time>2017-12-03T09:05:33Z</time>
      </trkpt>
      <trkpt lat="44.15951" lon="5.02595">
        <ele>357.27</ele>
        <time>2017-12-03T09:05:45Z</time>
      </trkpt>
      <trkpt lat="44.15956" lon="5.026">
        <ele>356.31</ele>
        <time>2017-12-03T09:05:49Z</time>
      </trkpt>
      <trkpt lat="44.15957" lon="5.02602">
        <ele>356.31</ele>
        <time>2017-12-03T09:05:51Z</time>
      </trkpt>
      <trkpt lat="44.15974" lon="5.02613">
        <ele>354.86</ele>
        <time>2017-12-03T09:06:03Z</time>
      </trkpt>
      <trkpt lat="44.15979" lon="5.0262">
        <ele>354.86</ele>
        <time>2017-12-03T09:06:08Z</time>
      </trkpt>
      <trkpt lat="44.1599" lon="5.02629">
        <ele>354.86</ele>
        <time>2017-12-03T09:06:21Z</time>
      </trkpt>
      <trkpt lat="44.1599" lon="5.02629">
        <ele>355.34</ele>
        <time>2017-12-03T09:06:38Z</time>
      </trkpt>
      <trkpt lat="44.1599" lon="5.02629">
        <ele>356.31</ele>
        <time>2017-12-03T09:07:02Z</time>
      </trkpt>
      <trkpt lat="44.1599" lon="5.02629">
        <ele>357.75</ele>
        <time>2017-12-03T09:07:30Z</time>
      </trkpt>
      <trkpt lat="44.1599" lon="5.02629">
        <ele>357.27</ele>
        <time>2017-12-03T09:07:37Z</time>
      </trkpt>
      <trkpt lat="44.16004" lon="5.02639">
        <ele>356.79</ele>
        <time>2017-12-03T09:07:51Z</time>
      </trkpt>
      <trkpt lat="44.16021" lon="5.02653">
        <ele>357.27</ele>
        <time>2017-12-03T09:08:06Z</time>
      </trkpt>
      <trkpt lat="44.16034" lon="5.02662">
        <ele>357.27</ele>
        <time>2017-12-03T09:08:18Z</time>
      </trkpt>
      <trkpt lat="44.16037" lon="5.02664">
        <ele>357.27</ele>
        <time>2017-12-03T09:08:21Z</time>
      </trkpt>
      <trkpt lat="44.16038" lon="5.02665">
        <ele>357.27</ele>
        <time>2017-12-03T09:08:23Z</time>
      </trkpt>
      <trkpt lat="44.16046" lon="5.0267">
        <ele>357.75</ele>
        <time>2017-12-03T09:08:32Z</time>
      </trkpt>
      <trkpt lat="44.16052" lon="5.02674">
        <ele>358.23</ele>
        <time>2017-12-03T09:08:37Z</time>
      </trkpt>
      <trkpt lat="44.16056" lon="5.02678">
        <ele>357.75</ele>
        <time>2017-12-03T09:08:42Z</time>
      </trkpt>
      <trkpt lat="44.16069" lon="5.02688">
        <ele>357.27</ele>
        <time>2017-12-03T09:08:56Z</time>
      </trkpt>
      <trkpt lat="44.16075" lon="5.02697">
        <ele>356.79</ele>
        <time>2017-12-03T09:09:05Z</time>
      </trkpt>
      <trkpt lat="44.1609" lon="5.02719">
        <ele>356.31</ele>
        <time>2017-12-03T09:09:20Z</time>
      </trkpt>
      <trkpt lat="44.16107" lon="5.02731">
        <ele>355.83</ele>
        <time>2017-12-03T09:09:34Z</time>
      </trkpt>
      <trkpt lat="44.16112" lon="5.02733">
        <ele>356.31</ele>
        <time>2017-12-03T09:09:41Z</time>
      </trkpt>
      <trkpt lat="44.16122" lon="5.02734">
        <ele>359.67</ele>
        <time>2017-12-03T09:09:52Z</time>
      </trkpt>
      <trkpt lat="44.16126" lon="5.02735">
        <ele>358.23</ele>
        <time>2017-12-03T09:09:56Z</time>
      </trkpt>
      <trkpt lat="44.16142" lon="5.02739">
        <ele>358.71</ele>
        <time>2017-12-03T09:10:09Z</time>
      </trkpt>
      <trkpt lat="44.16156" lon="5.02743">
        <ele>359.19</ele>
        <time>2017-12-03T09:10:20Z</time>
      </trkpt>
      <trkpt lat="44.1616" lon="5.02739">
        <ele>361.11</ele>
        <time>2017-12-03T09:10:32Z</time>
      </trkpt>
      <trkpt lat="44.16163" lon="5.02737">
        <ele>363.04</ele>
        <time>2017-12-03T09:10:45Z</time>
      </trkpt>
      <trkpt lat="44.16166" lon="5.02726">
        <ele>365.92</ele>
        <time>2017-12-03T09:10:56Z</time>
      </trkpt>
      <trkpt lat="44.16168" lon="5.02716">
        <ele>368.8</ele>
        <time>2017-12-03T09:11:09Z</time>
      </trkpt>
      <trkpt lat="44.16169" lon="5.02715">
        <ele>370.24</ele>
        <time>2017-12-03T09:11:15Z</time>
      </trkpt>
      <trkpt lat="44.16176" lon="5.02709">
        <ele>372.65</ele>
        <time>2017-12-03T09:11:28Z</time>
      </trkpt>
      <trkpt lat="44.16178" lon="5.02706">
        <ele>374.57</ele>
        <time>2017-12-03T09:11:32Z</time>
      </trkpt>
      <trkpt lat="44.16181" lon="5.02696">
        <ele>377.45</ele>
        <time>2017-12-03T09:11:42Z</time>
      </trkpt>
      <trkpt lat="44.16185" lon="5.02696">
        <ele>376.49</ele>
        <time>2017-12-03T09:11:57Z</time>
      </trkpt>
      <trkpt lat="44.16189" lon="5.027">
        <ele>378.42</ele>
        <time>2017-12-03T09:12:10Z</time>
      </trkpt>
      <trkpt lat="44.1619" lon="5.02702">
        <ele>372.65</ele>
        <time>2017-12-03T09:12:16Z</time>
      </trkpt>
      <trkpt lat="44.1619" lon="5.02702">
        <ele>382.74</ele>
        <time>2017-12-03T09:12:17Z</time>
      </trkpt>
      <trkpt lat="44.1619" lon="5.02702">
        <ele>379.38</ele>
        <time>2017-12-03T09:12:18Z</time>
      </trkpt>
      <trkpt lat="44.16197" lon="5.02704">
        <ele>380.82</ele>
        <time>2017-12-03T09:12:32Z</time>
      </trkpt>
      <trkpt lat="44.16202" lon="5.02704">
        <ele>384.18</ele>
        <time>2017-12-03T09:12:39Z</time>
      </trkpt>
      <trkpt lat="44.16202" lon="5.02704">
        <ele>384.18</ele>
        <time>2017-12-03T09:12:40Z</time>
      </trkpt>
      <trkpt lat="44.16206" lon="5.02706">
        <ele>384.18</ele>
        <time>2017-12-03T09:12:48Z</time>
      </trkpt>
      <trkpt lat="44.16209" lon="5.02707">
        <ele>383.7</ele>
        <time>2017-12-03T09:12:52Z</time>
      </trkpt>
      <trkpt lat="44.16213" lon="5.02703">
        <ele>386.11</ele>
        <time>2017-12-03T09:12:58Z</time>
      </trkpt>
      <trkpt lat="44.1622" lon="5.02699">
        <ele>388.99</ele>
        <time>2017-12-03T09:13:08Z</time>
      </trkpt>
      <trkpt lat="44.16222" lon="5.02698">
        <ele>392.36</ele>
        <time>2017-12-03T09:13:12Z</time>
      </trkpt>
      <trkpt lat="44.16223" lon="5.02698">
        <ele>394.76</ele>
        <time>2017-12-03T09:13:16Z</time>
      </trkpt>
      <trkpt lat="44.16223" lon="5.02698">
        <ele>398.6</ele>
        <time>2017-12-03T09:13:24Z</time>
      </trkpt>
      <trkpt lat="44.16227" lon="5.02696">
        <ele>399.57</ele>
        <time>2017-12-03T09:13:30Z</time>
      </trkpt>
      <trkpt lat="44.16234" lon="5.02692">
        <ele>401.49</ele>
        <time>2017-12-03T09:13:41Z</time>
      </trkpt>
      <trkpt lat="44.1624" lon="5.02686">
        <ele>404.37</ele>
        <time>2017-12-03T09:13:54Z</time>
      </trkpt>
      <trkpt lat="44.16243" lon="5.02682">
        <ele>405.81</ele>
        <time>2017-12-03T09:14:09Z</time>
      </trkpt>
      <trkpt lat="44.1625" lon="5.02676">
        <ele>406.29</ele>
        <time>2017-12-03T09:14:22Z</time>
      </trkpt>
      <trkpt lat="44.16251" lon="5.02673">
        <ele>409.66</ele>
        <time>2017-12-03T09:14:26Z</time>
      </trkpt>
      <trkpt lat="44.16252" lon="5.02671">
        <ele>407.26</ele>
        <time>2017-12-03T09:14:30Z</time>
      </trkpt>
      <trkpt lat="44.16255" lon="5.0267">
        <ele>409.66</ele>
        <time>2017-12-03T09:14:42Z</time>
      </trkpt>
      <trkpt lat="44.16262" lon="5.02668">
        <ele>411.58</ele>
        <time>2017-12-03T09:14:52Z</time>
      </trkpt>
      <trkpt lat="44.16267" lon="5.02671">
        <ele>413.98</ele>
        <time>2017-12-03T09:15:03Z</time>
      </trkpt>
      <trkpt lat="44.16272" lon="5.02671">
        <ele>416.39</ele>
        <time>2017-12-03T09:15:16Z</time>
      </trkpt>
      <trkpt lat="44.16274" lon="5.02671">
        <ele>418.79</ele>
        <time>2017-12-03T09:15:22Z</time>
      </trkpt>
      <trkpt lat="44.16278" lon="5.0267">
        <ele>422.64</ele>
        <time>2017-12-03T09:15:29Z</time>
      </trkpt>
      <trkpt lat="44.16278" lon="5.0267">
        <ele>422.64</ele>
        <time>2017-12-03T09:15:30Z</time>
      </trkpt>
      <trkpt lat="44.16283" lon="5.0267">
        <ele>425.52</ele>
        <time>2017-12-03T09:15:42Z</time>
      </trkpt>
      <trkpt lat="44.16285" lon="5.0267">
        <ele>426.96</ele>
        <time>2017-12-03T09:15:46Z</time>
      </trkpt>
      <trkpt lat="44.1629" lon="5.02671">
        <ele>429.37</ele>
        <time>2017-12-03T09:16:00Z</time>
      </trkpt>
      <trkpt lat="44.16293" lon="5.02674">
        <ele>432.73</ele>
        <time>2017-12-03T09:16:10Z</time>
      </trkpt>
      <trkpt lat="44.16294" lon="5.02675">
        <ele>434.17</ele>
        <time>2017-12-03T09:16:13Z</time>
      </trkpt>
      <trkpt lat="44.16302" lon="5.02678">
        <ele>435.13</ele>
        <time>2017-12-03T09:16:27Z</time>
      </trkpt>
      <trkpt lat="44.16304" lon="5.02679">
        <ele>437.06</ele>
        <time>2017-12-03T09:16:46Z</time>
      </trkpt>
      <trkpt lat="44.16311" lon="5.02686">
        <ele>438.98</ele>
        <time>2017-12-03T09:16:59Z</time>
      </trkpt>
      <trkpt lat="44.16314" lon="5.0269">
        <ele>440.42</ele>
        <time>2017-12-03T09:17:11Z</time>
      </trkpt>
      <trkpt lat="44.16315" lon="5.0269">
        <ele>440.9</ele>
        <time>2017-12-03T09:17:13Z</time>
      </trkpt>
      <trkpt lat="44.16323" lon="5.02697">
        <ele>443.79</ele>
        <time>2017-12-03T09:17:23Z</time>
      </trkpt>
      <trkpt lat="44.16325" lon="5.02701">
        <ele>444.27</ele>
        <time>2017-12-03T09:17:29Z</time>
      </trkpt>
      <trkpt lat="44.16328" lon="5.02707">
        <ele>446.67</ele>
        <time>2017-12-03T09:17:40Z</time>
      </trkpt>
      <trkpt lat="44.16332" lon="5.02709">
        <ele>448.59</ele>
        <time>2017-12-03T09:17:49Z</time>
      </trkpt>
      <trkpt lat="44.16336" lon="5.02713">
        <ele>450.52</ele>
        <time>2017-12-03T09:18:00Z</time>
      </trkpt>
      <trkpt lat="44.16344" lon="5.02716">
        <ele>451.96</ele>
        <time>2017-12-03T09:18:12Z</time>
      </trkpt>
      <trkpt lat="44.16349" lon="5.0272">
        <ele>455.32</ele>
        <time>2017-12-03T09:18:23Z</time>
      </trkpt>
      <trkpt lat="44.16349" lon="5.02721">
        <ele>455.8</ele>
        <time>2017-12-03T09:18:24Z</time>
      </trkpt>
      <trkpt lat="44.16354" lon="5.02732">
        <ele>457.72</ele>
        <time>2017-12-03T09:18:36Z</time>
      </trkpt>
      <trkpt lat="44.16363" lon="5.02737">
        <ele>460.13</ele>
        <time>2017-12-03T09:18:49Z</time>
      </trkpt>
      <trkpt lat="44.16373" lon="5.02746">
        <ele>462.05</ele>
        <time>2017-12-03T09:19:04Z</time>
      </trkpt>
      <trkpt lat="44.16382" lon="5.02756">
        <ele>463.49</ele>
        <time>2017-12-03T09:19:19Z</time>
      </trkpt>
      <trkpt lat="44.16387" lon="5.02764">
        <ele>463.01</ele>
        <time>2017-12-03T09:19:29Z</time>
      </trkpt>
      <trkpt lat="44.16387" lon="5.02765">
        <ele>463.01</ele>
        <time>2017-12-03T09:19:30Z</time>
      </trkpt>
      <trkpt lat="44.16393" lon="5.02779">
        <ele>460.61</ele>
        <time>2017-12-03T09:19:41Z</time>
      </trkpt>
      <trkpt lat="44.16393" lon="5.0278">
        <ele>460.61</ele>
        <time>2017-12-03T09:19:42Z</time>
      </trkpt>
      <trkpt lat="44.16396" lon="5.02791">
        <ele>460.13</ele>
        <time>2017-12-03T09:19:56Z</time>
      </trkpt>
      <trkpt lat="44.164" lon="5.02806">
        <ele>463.01</ele>
        <time>2017-12-03T09:20:08Z</time>
      </trkpt>
      <trkpt lat="44.16402" lon="5.02816">
        <ele>463.97</ele>
        <time>2017-12-03T09:20:20Z</time>
      </trkpt>
      <trkpt lat="44.16405" lon="5.02831">
        <ele>465.42</ele>
        <time>2017-12-03T09:20:33Z</time>
      </trkpt>
      <trkpt lat="44.16408" lon="5.02844">
        <ele>468.3</ele>
        <time>2017-12-03T09:20:44Z</time>
      </trkpt>
      <trkpt lat="44.16411" lon="5.02856">
        <ele>471.18</ele>
        <time>2017-12-03T09:20:57Z</time>
      </trkpt>
      <trkpt lat="44.16416" lon="5.02869">
        <ele>472.63</ele>
        <time>2017-12-03T09:21:08Z</time>
      </trkpt>
      <trkpt lat="44.16425" lon="5.02882">
        <ele>475.51</ele>
        <time>2017-12-03T09:21:20Z</time>
      </trkpt>
      <trkpt lat="44.1643" lon="5.02887">
        <ele>478.87</ele>
        <time>2017-12-03T09:21:29Z</time>
      </trkpt>
      <trkpt lat="44.1643" lon="5.02888">
        <ele>479.35</ele>
        <time>2017-12-03T09:21:30Z</time>
      </trkpt>
      <trkpt lat="44.16432" lon="5.02891">
        <ele>479.84</ele>
        <time>2017-12-03T09:21:33Z</time>
      </trkpt>
      <trkpt lat="44.16436" lon="5.02893">
        <ele>479.84</ele>
        <time>2017-12-03T09:21:37Z</time>
      </trkpt>
      <trkpt lat="44.16443" lon="5.02899">
        <ele>480.8</ele>
        <time>2017-12-03T09:21:49Z</time>
      </trkpt>
      <trkpt lat="44.16444" lon="5.02901">
        <ele>480.8</ele>
        <time>2017-12-03T09:21:51Z</time>
      </trkpt>
      <trkpt lat="44.16451" lon="5.02911">
        <ele>480.8</ele>
        <time>2017-12-03T09:22:04Z</time>
      </trkpt>
      <trkpt lat="44.16455" lon="5.02916">
        <ele>480.8</ele>
        <time>2017-12-03T09:22:10Z</time>
      </trkpt>
      <trkpt lat="44.16469" lon="5.02926">
        <ele>483.2</ele>
        <time>2017-12-03T09:22:25Z</time>
      </trkpt>
      <trkpt lat="44.16476" lon="5.02945">
        <ele>482.24</ele>
        <time>2017-12-03T09:22:38Z</time>
      </trkpt>
      <trkpt lat="44.16481" lon="5.0296">
        <ele>484.16</ele>
        <time>2017-12-03T09:22:47Z</time>
      </trkpt>
      <trkpt lat="44.1649" lon="5.02974">
        <ele>484.64</ele>
        <time>2017-12-03T09:23:01Z</time>
      </trkpt>
      <trkpt lat="44.16492" lon="5.02994">
        <ele>484.64</ele>
        <time>2017-12-03T09:23:15Z</time>
      </trkpt>
      <trkpt lat="44.16492" lon="5.02996">
        <ele>485.12</ele>
        <time>2017-12-03T09:23:16Z</time>
      </trkpt>
      <trkpt lat="44.16495" lon="5.02998">
        <ele>485.12</ele>
        <time>2017-12-03T09:23:18Z</time>
      </trkpt>
      <trkpt lat="44.16506" lon="5.03012">
        <ele>486.56</ele>
        <time>2017-12-03T09:23:31Z</time>
      </trkpt>
      <trkpt lat="44.16509" lon="5.03024">
        <ele>488.01</ele>
        <time>2017-12-03T09:23:40Z</time>
      </trkpt>
      <trkpt lat="44.16518" lon="5.03036">
        <ele>490.41</ele>
        <time>2017-12-03T09:23:53Z</time>
      </trkpt>
      <trkpt lat="44.1652" lon="5.03036">
        <ele>487.53</ele>
        <time>2017-12-03T09:24:01Z</time>
      </trkpt>
      <trkpt lat="44.1652" lon="5.03036">
        <ele>493.77</ele>
        <time>2017-12-03T09:24:03Z</time>
      </trkpt>
      <trkpt lat="44.1652" lon="5.03036">
        <ele>491.85</ele>
        <time>2017-12-03T09:24:04Z</time>
      </trkpt>
      <trkpt lat="44.1652" lon="5.03036">
        <ele>490.89</ele>
        <time>2017-12-03T09:24:06Z</time>
      </trkpt>
      <trkpt lat="44.1652" lon="5.03036">
        <ele>493.29</ele>
        <time>2017-12-03T09:24:11Z</time>
      </trkpt>
      <trkpt lat="44.1652" lon="5.03036">
        <ele>496.18</ele>
        <time>2017-12-03T09:24:28Z</time>
      </trkpt>
      <trkpt lat="44.1652" lon="5.03036">
        <ele>494.26</ele>
        <time>2017-12-03T09:24:36Z</time>
      </trkpt>
      <trkpt lat="44.1652" lon="5.03037">
        <ele>490.89</ele>
        <time>2017-12-03T09:24:53Z</time>
      </trkpt>
      <trkpt lat="44.1652" lon="5.03037">
        <ele>491.37</ele>
        <time>2017-12-03T09:25:15Z</time>
      </trkpt>
      <trkpt lat="44.1652" lon="5.03038">
        <ele>491.37</ele>
        <time>2017-12-03T09:25:29Z</time>
      </trkpt>
      <trkpt lat="44.16519" lon="5.03038">
        <ele>489.93</ele>
        <time>2017-12-03T09:25:43Z</time>
      </trkpt>
      <trkpt lat="44.16519" lon="5.03038">
        <ele>488.97</ele>
        <time>2017-12-03T09:26:13Z</time>
      </trkpt>
      <trkpt lat="44.16519" lon="5.03038">
        <ele>488.01</ele>
        <time>2017-12-03T09:26:31Z</time>
      </trkpt>
      <trkpt lat="44.16519" lon="5.03039">
        <ele>490.41</ele>
        <time>2017-12-03T09:26:45Z</time>
      </trkpt>
      <trkpt lat="44.16519" lon="5.03039">
        <ele>488.97</ele>
        <time>2017-12-03T09:27:07Z</time>
      </trkpt>
      <trkpt lat="44.16518" lon="5.0304">
        <ele>489.93</ele>
        <time>2017-12-03T09:27:26Z</time>
      </trkpt>
      <trkpt lat="44.16517" lon="5.03041">
        <ele>491.37</ele>
        <time>2017-12-03T09:27:43Z</time>
      </trkpt>
      <trkpt lat="44.16519" lon="5.03045">
        <ele>492.33</ele>
        <time>2017-12-03T09:27:55Z</time>
      </trkpt>
      <trkpt lat="44.16519" lon="5.03049">
        <ele>491.85</ele>
        <time>2017-12-03T09:27:58Z</time>
      </trkpt>
      <trkpt lat="44.16525" lon="5.03061">
        <ele>495.22</ele>
        <time>2017-12-03T09:28:09Z</time>
      </trkpt>
      <trkpt lat="44.16526" lon="5.03063">
        <ele>494.74</ele>
        <time>2017-12-03T09:28:11Z</time>
      </trkpt>
      <trkpt lat="44.16534" lon="5.03076">
        <ele>498.1</ele>
        <time>2017-12-03T09:28:23Z</time>
      </trkpt>
      <trkpt lat="44.16539" lon="5.03082">
        <ele>496.18</ele>
        <time>2017-12-03T09:28:33Z</time>
      </trkpt>
      <trkpt lat="44.1654" lon="5.03082">
        <ele>498.58</ele>
        <time>2017-12-03T09:28:35Z</time>
      </trkpt>
      <trkpt lat="44.16541" lon="5.03083">
        <ele>499.54</ele>
        <time>2017-12-03T09:28:38Z</time>
      </trkpt>
      <trkpt lat="44.16545" lon="5.03085">
        <ele>500.98</ele>
        <time>2017-12-03T09:28:43Z</time>
      </trkpt>
      <trkpt lat="44.16547" lon="5.03079">
        <ele>502.91</ele>
        <time>2017-12-03T09:28:48Z</time>
      </trkpt>
      <trkpt lat="44.16556" lon="5.03075">
        <ele>505.31</ele>
        <time>2017-12-03T09:28:58Z</time>
      </trkpt>
      <trkpt lat="44.16557" lon="5.03075">
        <ele>505.79</ele>
        <time>2017-12-03T09:28:59Z</time>
      </trkpt>
      <trkpt lat="44.16565" lon="5.03073">
        <ele>505.79</ele>
        <time>2017-12-03T09:29:07Z</time>
      </trkpt>
      <trkpt lat="44.16567" lon="5.03071">
        <ele>506.27</ele>
        <time>2017-12-03T09:29:10Z</time>
      </trkpt>
      <trkpt lat="44.16568" lon="5.03063">
        <ele>506.75</ele>
        <time>2017-12-03T09:29:22Z</time>
      </trkpt>
      <trkpt lat="44.16566" lon="5.03072">
        <ele>506.27</ele>
        <time>2017-12-03T09:29:32Z</time>
      </trkpt>
      <trkpt lat="44.16563" lon="5.03073">
        <ele>505.79</ele>
        <time>2017-12-03T09:29:35Z</time>
      </trkpt>
      <trkpt lat="44.16559" lon="5.03075">
        <ele>503.39</ele>
        <time>2017-12-03T09:29:51Z</time>
      </trkpt>
      <trkpt lat="44.16555" lon="5.03076">
        <ele>503.39</ele>
        <time>2017-12-03T09:30:02Z</time>
      </trkpt>
      <trkpt lat="44.16555" lon="5.03076">
        <ele>503.87</ele>
        <time>2017-12-03T09:30:36Z</time>
      </trkpt>
      <trkpt lat="44.16555" lon="5.03076">
        <ele>504.35</ele>
        <time>2017-12-03T09:30:37Z</time>
      </trkpt>
      <trkpt lat="44.16555" lon="5.03075">
        <ele>503.87</ele>
        <time>2017-12-03T09:31:10Z</time>
      </trkpt>
      <trkpt lat="44.16553" lon="5.03076">
        <ele>501.95</ele>
        <time>2017-12-03T09:31:16Z</time>
      </trkpt>
      <trkpt lat="44.16552" lon="5.03077">
        <ele>501.46</ele>
        <time>2017-12-03T09:31:18Z</time>
      </trkpt>
      <trkpt lat="44.16548" lon="5.03078">
        <ele>501.46</ele>
        <time>2017-12-03T09:31:22Z</time>
      </trkpt>
      <trkpt lat="44.16547" lon="5.0308">
        <ele>502.43</ele>
        <time>2017-12-03T09:31:24Z</time>
      </trkpt>
      <trkpt lat="44.16546" lon="5.03087">
        <ele>500.5</ele>
        <time>2017-12-03T09:31:31Z</time>
      </trkpt>
      <trkpt lat="44.16549" lon="5.03089">
        <ele>502.43</ele>
        <time>2017-12-03T09:31:33Z</time>
      </trkpt>
      <trkpt lat="44.16551" lon="5.03091">
        <ele>502.91</ele>
        <time>2017-12-03T09:31:36Z</time>
      </trkpt>
      <trkpt lat="44.1656" lon="5.03101">
        <ele>503.39</ele>
        <time>2017-12-03T09:31:47Z</time>
      </trkpt>
      <trkpt lat="44.16564" lon="5.03103">
        <ele>505.31</ele>
        <time>2017-12-03T09:31:51Z</time>
      </trkpt>
      <trkpt lat="44.16564" lon="5.03104">
        <ele>505.31</ele>
        <time>2017-12-03T09:31:52Z</time>
      </trkpt>
      <trkpt lat="44.16566" lon="5.03107">
        <ele>508.19</ele>
        <time>2017-12-03T09:31:55Z</time>
      </trkpt>
      <trkpt lat="44.16566" lon="5.03109">
        <ele>506.75</ele>
        <time>2017-12-03T09:31:57Z</time>
      </trkpt>
      <trkpt lat="44.16566" lon="5.03113">
        <ele>507.71</ele>
        <time>2017-12-03T09:32:10Z</time>
      </trkpt>
      <trkpt lat="44.16567" lon="5.03126">
        <ele>508.67</ele>
        <time>2017-12-03T09:32:18Z</time>
      </trkpt>
      <trkpt lat="44.16573" lon="5.03138">
        <ele>511.08</ele>
        <time>2017-12-03T09:32:30Z</time>
      </trkpt>
      <trkpt lat="44.16574" lon="5.03141">
        <ele>513.48</ele>
        <time>2017-12-03T09:32:32Z</time>
      </trkpt>
      <trkpt lat="44.16582" lon="5.03154">
        <ele>512.04</ele>
        <time>2017-12-03T09:32:43Z</time>
      </trkpt>
      <trkpt lat="44.16585" lon="5.03159">
        <ele>512.04</ele>
        <time>2017-12-03T09:32:47Z</time>
      </trkpt>
      <trkpt lat="44.16586" lon="5.03181">
        <ele>509.16</ele>
        <time>2017-12-03T09:33:00Z</time>
      </trkpt>
      <trkpt lat="44.16589" lon="5.03187">
        <ele>511.56</ele>
        <time>2017-12-03T09:33:04Z</time>
      </trkpt>
      <trkpt lat="44.16594" lon="5.03197">
        <ele>511.08</ele>
        <time>2017-12-03T09:33:10Z</time>
      </trkpt>
      <trkpt lat="44.16595" lon="5.03201">
        <ele>510.12</ele>
        <time>2017-12-03T09:33:12Z</time>
      </trkpt>
      <trkpt lat="44.16597" lon="5.0321">
        <ele>510.12</ele>
        <time>2017-12-03T09:33:18Z</time>
      </trkpt>
      <trkpt lat="44.16602" lon="5.03224">
        <ele>509.64</ele>
        <time>2017-12-03T09:33:27Z</time>
      </trkpt>
      <trkpt lat="44.16606" lon="5.03237">
        <ele>507.71</ele>
        <time>2017-12-03T09:33:37Z</time>
      </trkpt>
      <trkpt lat="44.16607" lon="5.03248">
        <ele>509.16</ele>
        <time>2017-12-03T09:33:46Z</time>
      </trkpt>
      <trkpt lat="44.16609" lon="5.03255">
        <ele>510.6</ele>
        <time>2017-12-03T09:33:51Z</time>
      </trkpt>
      <trkpt lat="44.16611" lon="5.0327">
        <ele>512.04</ele>
        <time>2017-12-03T09:34:04Z</time>
      </trkpt>
      <trkpt lat="44.16611" lon="5.0327">
        <ele>512.04</ele>
        <time>2017-12-03T09:34:17Z</time>
      </trkpt>
      <trkpt lat="44.16614" lon="5.03276">
        <ele>513</ele>
        <time>2017-12-03T09:34:23Z</time>
      </trkpt>
      <trkpt lat="44.16618" lon="5.03291">
        <ele>515.88</ele>
        <time>2017-12-03T09:34:36Z</time>
      </trkpt>
      <trkpt lat="44.16618" lon="5.03292">
        <ele>515.4</ele>
        <time>2017-12-03T09:34:37Z</time>
      </trkpt>
      <trkpt lat="44.1662" lon="5.033">
        <ele>516.85</ele>
        <time>2017-12-03T09:34:43Z</time>
      </trkpt>
      <trkpt lat="44.16621" lon="5.03302">
        <ele>516.85</ele>
        <time>2017-12-03T09:34:45Z</time>
      </trkpt>
      <trkpt lat="44.16631" lon="5.03316">
        <ele>518.77</ele>
        <time>2017-12-03T09:34:58Z</time>
      </trkpt>
      <trkpt lat="44.16635" lon="5.03328">
        <ele>518.29</ele>
        <time>2017-12-03T09:35:06Z</time>
      </trkpt>
      <trkpt lat="44.16638" lon="5.03334">
        <ele>519.25</ele>
        <time>2017-12-03T09:35:10Z</time>
      </trkpt>
      <trkpt lat="44.16643" lon="5.03346">
        <ele>519.25</ele>
        <time>2017-12-03T09:35:18Z</time>
      </trkpt>
      <trkpt lat="44.16645" lon="5.03356">
        <ele>518.29</ele>
        <time>2017-12-03T09:35:23Z</time>
      </trkpt>
      <trkpt lat="44.16649" lon="5.03363">
        <ele>520.21</ele>
        <time>2017-12-03T09:35:29Z</time>
      </trkpt>
      <trkpt lat="44.16656" lon="5.03367">
        <ele>522.61</ele>
        <time>2017-12-03T09:35:35Z</time>
      </trkpt>
      <trkpt lat="44.16664" lon="5.03381">
        <ele>522.13</ele>
        <time>2017-12-03T09:35:42Z</time>
      </trkpt>
      <trkpt lat="44.16667" lon="5.03393">
        <ele>523.09</ele>
        <time>2017-12-03T09:35:50Z</time>
      </trkpt>
      <trkpt lat="44.16668" lon="5.03394">
        <ele>522.13</ele>
        <time>2017-12-03T09:35:51Z</time>
      </trkpt>
      <trkpt lat="44.16673" lon="5.034">
        <ele>522.61</ele>
        <time>2017-12-03T09:35:55Z</time>
      </trkpt>
      <trkpt lat="44.16679" lon="5.03414">
        <ele>522.13</ele>
        <time>2017-12-03T09:36:04Z</time>
      </trkpt>
      <trkpt lat="44.16687" lon="5.03432">
        <ele>523.09</ele>
        <time>2017-12-03T09:36:17Z</time>
      </trkpt>
      <trkpt lat="44.16689" lon="5.03434">
        <ele>525.02</ele>
        <time>2017-12-03T09:36:20Z</time>
      </trkpt>
      <trkpt lat="44.16693" lon="5.03441">
        <ele>523.09</ele>
        <time>2017-12-03T09:36:26Z</time>
      </trkpt>
      <trkpt lat="44.16697" lon="5.03445">
        <ele>524.06</ele>
        <time>2017-12-03T09:36:30Z</time>
      </trkpt>
      <trkpt lat="44.16698" lon="5.0345">
        <ele>522.61</ele>
        <time>2017-12-03T09:36:33Z</time>
      </trkpt>
      <trkpt lat="44.16702" lon="5.03456">
        <ele>520.69</ele>
        <time>2017-12-03T09:36:37Z</time>
      </trkpt>
      <trkpt lat="44.16703" lon="5.03458">
        <ele>520.69</ele>
        <time>2017-12-03T09:36:38Z</time>
      </trkpt>
      <trkpt lat="44.16707" lon="5.03467">
        <ele>518.77</ele>
        <time>2017-12-03T09:36:43Z</time>
      </trkpt>
      <trkpt lat="44.16708" lon="5.03471">
        <ele>518.77</ele>
        <time>2017-12-03T09:36:45Z</time>
      </trkpt>
      <trkpt lat="44.16721" lon="5.03492">
        <ele>517.81</ele>
        <time>2017-12-03T09:36:57Z</time>
      </trkpt>
      <trkpt lat="44.16729" lon="5.03496">
        <ele>515.88</ele>
        <time>2017-12-03T09:37:04Z</time>
      </trkpt>
      <trkpt lat="44.16735" lon="5.03501">
        <ele>515.88</ele>
        <time>2017-12-03T09:37:10Z</time>
      </trkpt>
      <trkpt lat="44.16738" lon="5.03509">
        <ele>516.85</ele>
        <time>2017-12-03T09:37:14Z</time>
      </trkpt>
      <trkpt lat="44.16741" lon="5.03514">
        <ele>515.88</ele>
        <time>2017-12-03T09:37:18Z</time>
      </trkpt>
      <trkpt lat="44.16742" lon="5.03514">
        <ele>515.88</ele>
        <time>2017-12-03T09:37:30Z</time>
      </trkpt>
      <trkpt lat="44.16742" lon="5.03514">
        <ele>515.88</ele>
        <time>2017-12-03T09:37:55Z</time>
      </trkpt>
      <trkpt lat="44.16743" lon="5.03515">
        <ele>516.85</ele>
        <time>2017-12-03T09:38:20Z</time>
      </trkpt>
      <trkpt lat="44.16751" lon="5.03511">
        <ele>518.77</ele>
        <time>2017-12-03T09:38:28Z</time>
      </trkpt>
      <trkpt lat="44.16754" lon="5.0351">
        <ele>519.25</ele>
        <time>2017-12-03T09:38:30Z</time>
      </trkpt>
      <trkpt lat="44.16758" lon="5.03513">
        <ele>519.25</ele>
        <time>2017-12-03T09:38:35Z</time>
      </trkpt>
      <trkpt lat="44.16764" lon="5.03516">
        <ele>521.17</ele>
        <time>2017-12-03T09:38:41Z</time>
      </trkpt>
      <trkpt lat="44.16769" lon="5.03524">
        <ele>522.61</ele>
        <time>2017-12-03T09:38:50Z</time>
      </trkpt>
      <trkpt lat="44.16772" lon="5.03528">
        <ele>524.54</ele>
        <time>2017-12-03T09:38:55Z</time>
      </trkpt>
      <trkpt lat="44.16774" lon="5.03527">
        <ele>525.5</ele>
        <time>2017-12-03T09:38:57Z</time>
      </trkpt>
      <trkpt lat="44.16778" lon="5.03527">
        <ele>526.94</ele>
        <time>2017-12-03T09:39:06Z</time>
      </trkpt>
      <trkpt lat="44.1678" lon="5.03529">
        <ele>526.94</ele>
        <time>2017-12-03T09:39:10Z</time>
      </trkpt>
      <trkpt lat="44.16786" lon="5.03532">
        <ele>527.9</ele>
        <time>2017-12-03T09:39:15Z</time>
      </trkpt>
      <trkpt lat="44.16803" lon="5.03549">
        <ele>528.38</ele>
        <time>2017-12-03T09:39:30Z</time>
      </trkpt>
      <trkpt lat="44.16803" lon="5.0355">
        <ele>528.38</ele>
        <time>2017-12-03T09:39:31Z</time>
      </trkpt>
      <trkpt lat="44.16809" lon="5.03553">
        <ele>530.3</ele>
        <time>2017-12-03T09:39:37Z</time>
      </trkpt>
      <trkpt lat="44.16814" lon="5.03556">
        <ele>530.79</ele>
        <time>2017-12-03T09:39:42Z</time>
      </trkpt>
      <trkpt lat="44.1682" lon="5.03559">
        <ele>533.19</ele>
        <time>2017-12-03T09:39:48Z</time>
      </trkpt>
      <trkpt lat="44.16827" lon="5.0356">
        <ele>533.19</ele>
        <time>2017-12-03T09:39:54Z</time>
      </trkpt>
      <trkpt lat="44.16832" lon="5.03564">
        <ele>533.67</ele>
        <time>2017-12-03T09:39:58Z</time>
      </trkpt>
      <trkpt lat="44.16839" lon="5.0357">
        <ele>532.71</ele>
        <time>2017-12-03T09:40:05Z</time>
      </trkpt>
      <trkpt lat="44.16841" lon="5.03572">
        <ele>532.23</ele>
        <time>2017-12-03T09:40:07Z</time>
      </trkpt>
      <trkpt lat="44.16852" lon="5.03578">
        <ele>534.15</ele>
        <time>2017-12-03T09:40:18Z</time>
      </trkpt>
      <trkpt lat="44.16863" lon="5.03593">
        <ele>532.23</ele>
        <time>2017-12-03T09:40:32Z</time>
      </trkpt>
      <trkpt lat="44.16864" lon="5.03594">
        <ele>532.23</ele>
        <time>2017-12-03T09:40:33Z</time>
      </trkpt>
      <trkpt lat="44.16866" lon="5.03595">
        <ele>532.23</ele>
        <time>2017-12-03T09:40:35Z</time>
      </trkpt>
      <trkpt lat="44.16871" lon="5.03604">
        <ele>531.75</ele>
        <time>2017-12-03T09:40:40Z</time>
      </trkpt>
      <trkpt lat="44.16875" lon="5.03604">
        <ele>530.3</ele>
        <time>2017-12-03T09:40:44Z</time>
      </trkpt>
      <trkpt lat="44.16883" lon="5.03604">
        <ele>532.23</ele>
        <time>2017-12-03T09:40:53Z</time>
      </trkpt>
      <trkpt lat="44.16886" lon="5.03606">
        <ele>530.3</ele>
        <time>2017-12-03T09:40:57Z</time>
      </trkpt>
      <trkpt lat="44.16886" lon="5.03607">
        <ele>530.3</ele>
        <time>2017-12-03T09:40:58Z</time>
      </trkpt>
      <trkpt lat="44.16886" lon="5.03609">
        <ele>528.86</ele>
        <time>2017-12-03T09:41:00Z</time>
      </trkpt>
      <trkpt lat="44.16899" lon="5.03612">
        <ele>525.98</ele>
        <time>2017-12-03T09:41:14Z</time>
      </trkpt>
      <trkpt lat="44.16906" lon="5.03614">
        <ele>523.09</ele>
        <time>2017-12-03T09:41:23Z</time>
      </trkpt>
      <trkpt lat="44.1691" lon="5.03616">
        <ele>521.17</ele>
        <time>2017-12-03T09:41:28Z</time>
      </trkpt>
      <trkpt lat="44.16914" lon="5.03617">
        <ele>520.21</ele>
        <time>2017-12-03T09:41:33Z</time>
      </trkpt>
      <trkpt lat="44.1692" lon="5.03616">
        <ele>520.69</ele>
        <time>2017-12-03T09:41:37Z</time>
      </trkpt>
      <trkpt lat="44.16937" lon="5.03623">
        <ele>520.69</ele>
        <time>2017-12-03T09:41:52Z</time>
      </trkpt>
      <trkpt lat="44.16953" lon="5.03627">
        <ele>517.81</ele>
        <time>2017-12-03T09:42:05Z</time>
      </trkpt>
      <trkpt lat="44.16967" lon="5.03628">
        <ele>514.44</ele>
        <time>2017-12-03T09:42:18Z</time>
      </trkpt>
      <trkpt lat="44.16969" lon="5.0363">
        <ele>518.77</ele>
        <time>2017-12-03T09:42:25Z</time>
      </trkpt>
      <trkpt lat="44.16971" lon="5.03633">
        <ele>517.81</ele>
        <time>2017-12-03T09:42:29Z</time>
      </trkpt>
      <trkpt lat="44.16973" lon="5.03636">
        <ele>519.73</ele>
        <time>2017-12-03T09:42:39Z</time>
      </trkpt>
      <trkpt lat="44.16973" lon="5.03638">
        <ele>521.65</ele>
        <time>2017-12-03T09:42:46Z</time>
      </trkpt>
      <trkpt lat="44.16975" lon="5.03641">
        <ele>523.58</ele>
        <time>2017-12-03T09:42:58Z</time>
      </trkpt>
      <trkpt lat="44.16978" lon="5.03647">
        <ele>521.17</ele>
        <time>2017-12-03T09:43:12Z</time>
      </trkpt>
      <trkpt lat="44.16981" lon="5.03649">
        <ele>523.09</ele>
        <time>2017-12-03T09:43:19Z</time>
      </trkpt>
      <trkpt lat="44.16985" lon="5.03652">
        <ele>524.54</ele>
        <time>2017-12-03T09:43:30Z</time>
      </trkpt>
      <trkpt lat="44.16985" lon="5.03653">
        <ele>525.5</ele>
        <time>2017-12-03T09:43:55Z</time>
      </trkpt>
      <trkpt lat="44.1699" lon="5.03658">
        <ele>525.02</ele>
        <time>2017-12-03T09:44:00Z</time>
      </trkpt>
      <trkpt lat="44.16994" lon="5.03666">
        <ele>524.54</ele>
        <time>2017-12-03T09:44:13Z</time>
      </trkpt>
      <trkpt lat="44.16995" lon="5.03667">
        <ele>523.09</ele>
        <time>2017-12-03T09:44:23Z</time>
      </trkpt>
      <trkpt lat="44.16998" lon="5.03678">
        <ele>522.61</ele>
        <time>2017-12-03T09:44:31Z</time>
      </trkpt>
      <trkpt lat="44.17001" lon="5.03686">
        <ele>523.09</ele>
        <time>2017-12-03T09:44:36Z</time>
      </trkpt>
      <trkpt lat="44.17003" lon="5.03689">
        <ele>521.17</ele>
        <time>2017-12-03T09:44:41Z</time>
      </trkpt>
      <trkpt lat="44.17007" lon="5.03693">
        <ele>522.13</ele>
        <time>2017-12-03T09:44:46Z</time>
      </trkpt>
      <trkpt lat="44.17008" lon="5.03694">
        <ele>522.13</ele>
        <time>2017-12-03T09:44:48Z</time>
      </trkpt>
      <trkpt lat="44.1701" lon="5.03696">
        <ele>522.13</ele>
        <time>2017-12-03T09:44:50Z</time>
      </trkpt>
      <trkpt lat="44.17013" lon="5.03697">
        <ele>523.58</ele>
        <time>2017-12-03T09:44:54Z</time>
      </trkpt>
      <trkpt lat="44.17014" lon="5.03698">
        <ele>524.06</ele>
        <time>2017-12-03T09:44:56Z</time>
      </trkpt>
      <trkpt lat="44.17021" lon="5.03696">
        <ele>524.54</ele>
        <time>2017-12-03T09:45:04Z</time>
      </trkpt>
      <trkpt lat="44.17025" lon="5.03698">
        <ele>524.54</ele>
        <time>2017-12-03T09:45:09Z</time>
      </trkpt>
      <trkpt lat="44.17035" lon="5.03703">
        <ele>527.9</ele>
        <time>2017-12-03T09:45:19Z</time>
      </trkpt>
      <trkpt lat="44.17038" lon="5.03706">
        <ele>527.42</ele>
        <time>2017-12-03T09:45:24Z</time>
      </trkpt>
      <trkpt lat="44.17046" lon="5.03715">
        <ele>528.86</ele>
        <time>2017-12-03T09:45:36Z</time>
      </trkpt>
      <trkpt lat="44.17049" lon="5.03718">
        <ele>528.86</ele>
        <time>2017-12-03T09:45:40Z</time>
      </trkpt>
      <trkpt lat="44.17051" lon="5.03721">
        <ele>528.38</ele>
        <time>2017-12-03T09:45:42Z</time>
      </trkpt>
      <trkpt lat="44.17058" lon="5.03733">
        <ele>529.82</ele>
        <time>2017-12-03T09:45:53Z</time>
      </trkpt>
      <trkpt lat="44.17061" lon="5.03739">
        <ele>529.34</ele>
        <time>2017-12-03T09:45:58Z</time>
      </trkpt>
      <trkpt lat="44.17062" lon="5.03741">
        <ele>529.34</ele>
        <time>2017-12-03T09:46:00Z</time>
      </trkpt>
      <trkpt lat="44.17066" lon="5.03756">
        <ele>526.94</ele>
        <time>2017-12-03T09:46:14Z</time>
      </trkpt>
      <trkpt lat="44.17066" lon="5.03757">
        <ele>527.42</ele>
        <time>2017-12-03T09:46:15Z</time>
      </trkpt>
      <trkpt lat="44.17067" lon="5.03762">
        <ele>525.98</ele>
        <time>2017-12-03T09:46:18Z</time>
      </trkpt>
      <trkpt lat="44.17068" lon="5.03765">
        <ele>525.02</ele>
        <time>2017-12-03T09:46:20Z</time>
      </trkpt>
      <trkpt lat="44.17069" lon="5.03769">
        <ele>524.54</ele>
        <time>2017-12-03T09:46:23Z</time>
      </trkpt>
      <trkpt lat="44.17071" lon="5.03781">
        <ele>524.54</ele>
        <time>2017-12-03T09:46:35Z</time>
      </trkpt>
      <trkpt lat="44.17072" lon="5.03785">
        <ele>524.54</ele>
        <time>2017-12-03T09:46:38Z</time>
      </trkpt>
      <trkpt lat="44.17071" lon="5.03791">
        <ele>522.61</ele>
        <time>2017-12-03T09:46:42Z</time>
      </trkpt>
      <trkpt lat="44.17076" lon="5.03804">
        <ele>522.13</ele>
        <time>2017-12-03T09:46:52Z</time>
      </trkpt>
      <trkpt lat="44.17082" lon="5.03806">
        <ele>523.58</ele>
        <time>2017-12-03T09:46:59Z</time>
      </trkpt>
      <trkpt lat="44.17085" lon="5.03807">
        <ele>524.54</ele>
        <time>2017-12-03T09:47:03Z</time>
      </trkpt>
      <trkpt lat="44.17092" lon="5.03811">
        <ele>527.42</ele>
        <time>2017-12-03T09:47:09Z</time>
      </trkpt>
      <trkpt lat="44.17096" lon="5.03816">
        <ele>526.46</ele>
        <time>2017-12-03T09:47:16Z</time>
      </trkpt>
      <trkpt lat="44.17102" lon="5.03823">
        <ele>527.42</ele>
        <time>2017-12-03T09:47:22Z</time>
      </trkpt>
      <trkpt lat="44.17104" lon="5.03828">
        <ele>526.94</ele>
        <time>2017-12-03T09:47:26Z</time>
      </trkpt>
      <trkpt lat="44.17108" lon="5.03834">
        <ele>524.54</ele>
        <time>2017-12-03T09:47:30Z</time>
      </trkpt>
      <trkpt lat="44.17109" lon="5.03841">
        <ele>523.09</ele>
        <time>2017-12-03T09:47:35Z</time>
      </trkpt>
      <trkpt lat="44.17111" lon="5.03844">
        <ele>522.13</ele>
        <time>2017-12-03T09:47:37Z</time>
      </trkpt>
      <trkpt lat="44.17112" lon="5.03848">
        <ele>521.65</ele>
        <time>2017-12-03T09:47:39Z</time>
      </trkpt>
      <trkpt lat="44.17121" lon="5.03851">
        <ele>524.54</ele>
        <time>2017-12-03T09:47:50Z</time>
      </trkpt>
      <trkpt lat="44.17122" lon="5.03851">
        <ele>524.06</ele>
        <time>2017-12-03T09:47:51Z</time>
      </trkpt>
      <trkpt lat="44.17132" lon="5.03869">
        <ele>522.61</ele>
        <time>2017-12-03T09:48:06Z</time>
      </trkpt>
      <trkpt lat="44.17139" lon="5.03882">
        <ele>523.09</ele>
        <time>2017-12-03T09:48:14Z</time>
      </trkpt>
      <trkpt lat="44.17143" lon="5.03893">
        <ele>524.54</ele>
        <time>2017-12-03T09:48:21Z</time>
      </trkpt>
      <trkpt lat="44.17145" lon="5.03908">
        <ele>523.58</ele>
        <time>2017-12-03T09:48:28Z</time>
      </trkpt>
      <trkpt lat="44.17143" lon="5.03914">
        <ele>524.06</ele>
        <time>2017-12-03T09:48:31Z</time>
      </trkpt>
      <trkpt lat="44.17143" lon="5.03928">
        <ele>524.06</ele>
        <time>2017-12-03T09:48:39Z</time>
      </trkpt>
      <trkpt lat="44.17141" lon="5.03939">
        <ele>524.06</ele>
        <time>2017-12-03T09:48:45Z</time>
      </trkpt>
      <trkpt lat="44.17141" lon="5.03949">
        <ele>525.02</ele>
        <time>2017-12-03T09:48:50Z</time>
      </trkpt>
      <trkpt lat="44.17141" lon="5.03953">
        <ele>524.54</ele>
        <time>2017-12-03T09:48:53Z</time>
      </trkpt>
      <trkpt lat="44.17142" lon="5.03963">
        <ele>526.46</ele>
        <time>2017-12-03T09:49:00Z</time>
      </trkpt>
      <trkpt lat="44.17141" lon="5.03967">
        <ele>526.46</ele>
        <time>2017-12-03T09:49:02Z</time>
      </trkpt>
      <trkpt lat="44.17142" lon="5.03987">
        <ele>527.9</ele>
        <time>2017-12-03T09:49:13Z</time>
      </trkpt>
      <trkpt lat="44.17146" lon="5.04002">
        <ele>527.9</ele>
        <time>2017-12-03T09:49:24Z</time>
      </trkpt>
      <trkpt lat="44.17147" lon="5.04004">
        <ele>528.38</ele>
        <time>2017-12-03T09:49:25Z</time>
      </trkpt>
      <trkpt lat="44.17151" lon="5.04007">
        <ele>527.9</ele>
        <time>2017-12-03T09:49:29Z</time>
      </trkpt>
      <trkpt lat="44.17157" lon="5.04015">
        <ele>526.46</ele>
        <time>2017-12-03T09:49:36Z</time>
      </trkpt>
      <trkpt lat="44.17158" lon="5.04018">
        <ele>525.98</ele>
        <time>2017-12-03T09:49:38Z</time>
      </trkpt>
      <trkpt lat="44.17164" lon="5.04028">
        <ele>525.02</ele>
        <time>2017-12-03T09:49:44Z</time>
      </trkpt>
      <trkpt lat="44.1717" lon="5.04037">
        <ele>524.06</ele>
        <time>2017-12-03T09:49:51Z</time>
      </trkpt>
      <trkpt lat="44.17174" lon="5.04045">
        <ele>523.09</ele>
        <time>2017-12-03T09:49:56Z</time>
      </trkpt>
      <trkpt lat="44.17184" lon="5.04054">
        <ele>522.61</ele>
        <time>2017-12-03T09:50:06Z</time>
      </trkpt>
      <trkpt lat="44.17189" lon="5.04057">
        <ele>522.13</ele>
        <time>2017-12-03T09:50:10Z</time>
      </trkpt>
      <trkpt lat="44.172" lon="5.04068">
        <ele>519.73</ele>
        <time>2017-12-03T09:50:22Z</time>
      </trkpt>
      <trkpt lat="44.17204" lon="5.04072">
        <ele>518.77</ele>
        <time>2017-12-03T09:50:32Z</time>
      </trkpt>
      <trkpt lat="44.17202" lon="5.04071">
        <ele>518.77</ele>
        <time>2017-12-03T09:50:43Z</time>
      </trkpt>
      <trkpt lat="44.17202" lon="5.04071">
        <ele>519.73</ele>
        <time>2017-12-03T09:50:55Z</time>
      </trkpt>
      <trkpt lat="44.17202" lon="5.04071">
        <ele>508.19</ele>
        <time>2017-12-03T09:51:04Z</time>
      </trkpt>
      <trkpt lat="44.17202" lon="5.04071">
        <ele>532.71</ele>
        <time>2017-12-03T09:51:05Z</time>
      </trkpt>
      <trkpt lat="44.17202" lon="5.04071">
        <ele>521.17</ele>
        <time>2017-12-03T09:51:06Z</time>
      </trkpt>
      <trkpt lat="44.17202" lon="5.04071">
        <ele>514.44</ele>
        <time>2017-12-03T09:51:08Z</time>
      </trkpt>
      <trkpt lat="44.17202" lon="5.04071">
        <ele>524.54</ele>
        <time>2017-12-03T09:51:09Z</time>
      </trkpt>
      <trkpt lat="44.17202" lon="5.04071">
        <ele>518.77</ele>
        <time>2017-12-03T09:51:10Z</time>
      </trkpt>
      <trkpt lat="44.17202" lon="5.04071">
        <ele>521.65</ele>
        <time>2017-12-03T09:51:11Z</time>
      </trkpt>
      <trkpt lat="44.17202" lon="5.04071">
        <ele>511.56</ele>
        <time>2017-12-03T09:51:13Z</time>
      </trkpt>
      <trkpt lat="44.17202" lon="5.04071">
        <ele>528.38</ele>
        <time>2017-12-03T09:51:14Z</time>
      </trkpt>
      <trkpt lat="44.17202" lon="5.04071">
        <ele>519.73</ele>
        <time>2017-12-03T09:51:15Z</time>
      </trkpt>
      <trkpt lat="44.17202" lon="5.04071">
        <ele>508.19</ele>
        <time>2017-12-03T09:51:19Z</time>
      </trkpt>
      <trkpt lat="44.17202" lon="5.04071">
        <ele>526.94</ele>
        <time>2017-12-03T09:51:20Z</time>
      </trkpt>
      <trkpt lat="44.17202" lon="5.04071">
        <ele>520.69</ele>
        <time>2017-12-03T09:51:21Z</time>
      </trkpt>
      <trkpt lat="44.17201" lon="5.04071">
        <ele>520.21</ele>
        <time>2017-12-03T09:51:42Z</time>
      </trkpt>
      <trkpt lat="44.17201" lon="5.04071">
        <ele>520.21</ele>
        <time>2017-12-03T09:51:52Z</time>
      </trkpt>
      <trkpt lat="44.17203" lon="5.04072">
        <ele>519.25</ele>
        <time>2017-12-03T09:52:02Z</time>
      </trkpt>
      <trkpt lat="44.17208" lon="5.04075">
        <ele>518.29</ele>
        <time>2017-12-03T09:52:06Z</time>
      </trkpt>
      <trkpt lat="44.1721" lon="5.04077">
        <ele>517.81</ele>
        <time>2017-12-03T09:52:08Z</time>
      </trkpt>
      <trkpt lat="44.1722" lon="5.04084">
        <ele>515.88</ele>
        <time>2017-12-03T09:52:19Z</time>
      </trkpt>
      <trkpt lat="44.17222" lon="5.04085">
        <ele>515.4</ele>
        <time>2017-12-03T09:52:21Z</time>
      </trkpt>
      <trkpt lat="44.17234" lon="5.0409">
        <ele>514.44</ele>
        <time>2017-12-03T09:52:29Z</time>
      </trkpt>
      <trkpt lat="44.17237" lon="5.04091">
        <ele>514.44</ele>
        <time>2017-12-03T09:52:31Z</time>
      </trkpt>
      <trkpt lat="44.17252" lon="5.04094">
        <ele>513</ele>
        <time>2017-12-03T09:52:43Z</time>
      </trkpt>
      <trkpt lat="44.17259" lon="5.04107">
        <ele>513</ele>
        <time>2017-12-03T09:52:57Z</time>
      </trkpt>
      <trkpt lat="44.1726" lon="5.04109">
        <ele>513.48</ele>
        <time>2017-12-03T09:53:12Z</time>
      </trkpt>
      <trkpt lat="44.1726" lon="5.04111">
        <ele>513.48</ele>
        <time>2017-12-03T09:53:13Z</time>
      </trkpt>
      <trkpt lat="44.17259" lon="5.04122">
        <ele>513.96</ele>
        <time>2017-12-03T09:53:19Z</time>
      </trkpt>
      <trkpt lat="44.1726" lon="5.04131">
        <ele>513</ele>
        <time>2017-12-03T09:53:24Z</time>
      </trkpt>
      <trkpt lat="44.17258" lon="5.04146">
        <ele>514.44</ele>
        <time>2017-12-03T09:53:31Z</time>
      </trkpt>
      <trkpt lat="44.17263" lon="5.04164">
        <ele>513.96</ele>
        <time>2017-12-03T09:53:41Z</time>
      </trkpt>
      <trkpt lat="44.17268" lon="5.04182">
        <ele>514.44</ele>
        <time>2017-12-03T09:53:53Z</time>
      </trkpt>
      <trkpt lat="44.17269" lon="5.04185">
        <ele>514.44</ele>
        <time>2017-12-03T09:53:55Z</time>
      </trkpt>
      <trkpt lat="44.17271" lon="5.04189">
        <ele>514.44</ele>
        <time>2017-12-03T09:53:57Z</time>
      </trkpt>
      <trkpt lat="44.17276" lon="5.04204">
        <ele>513.96</ele>
        <time>2017-12-03T09:54:08Z</time>
      </trkpt>
      <trkpt lat="44.17277" lon="5.04207">
        <ele>513.96</ele>
        <time>2017-12-03T09:54:10Z</time>
      </trkpt>
      <trkpt lat="44.17283" lon="5.04229">
        <ele>513.48</ele>
        <time>2017-12-03T09:54:22Z</time>
      </trkpt>
      <trkpt lat="44.17284" lon="5.04234">
        <ele>513</ele>
        <time>2017-12-03T09:54:24Z</time>
      </trkpt>
      <trkpt lat="44.17288" lon="5.04245">
        <ele>512.04</ele>
        <time>2017-12-03T09:54:29Z</time>
      </trkpt>
      <trkpt lat="44.17296" lon="5.04265">
        <ele>511.08</ele>
        <time>2017-12-03T09:54:42Z</time>
      </trkpt>
      <trkpt lat="44.173" lon="5.04272">
        <ele>511.08</ele>
        <time>2017-12-03T09:54:46Z</time>
      </trkpt>
      <trkpt lat="44.1731" lon="5.04289">
        <ele>510.6</ele>
        <time>2017-12-03T09:54:58Z</time>
      </trkpt>
      <trkpt lat="44.17313" lon="5.04295">
        <ele>509.64</ele>
        <time>2017-12-03T09:55:01Z</time>
      </trkpt>
      <trkpt lat="44.17323" lon="5.04315">
        <ele>509.16</ele>
        <time>2017-12-03T09:55:14Z</time>
      </trkpt>
      <trkpt lat="44.17323" lon="5.04317">
        <ele>509.16</ele>
        <time>2017-12-03T09:55:15Z</time>
      </trkpt>
      <trkpt lat="44.17331" lon="5.04333">
        <ele>509.16</ele>
        <time>2017-12-03T09:55:23Z</time>
      </trkpt>
      <trkpt lat="44.17334" lon="5.04339">
        <ele>509.16</ele>
        <time>2017-12-03T09:55:29Z</time>
      </trkpt>
      <trkpt lat="44.1734" lon="5.04355">
        <ele>509.16</ele>
        <time>2017-12-03T09:55:37Z</time>
      </trkpt>
      <trkpt lat="44.17343" lon="5.04365">
        <ele>509.16</ele>
        <time>2017-12-03T09:55:43Z</time>
      </trkpt>
      <trkpt lat="44.17345" lon="5.04368">
        <ele>509.16</ele>
        <time>2017-12-03T09:55:45Z</time>
      </trkpt>
      <trkpt lat="44.17354" lon="5.04384">
        <ele>508.19</ele>
        <time>2017-12-03T09:55:56Z</time>
      </trkpt>
      <trkpt lat="44.1736" lon="5.044">
        <ele>507.23</ele>
        <time>2017-12-03T09:56:03Z</time>
      </trkpt>
      <trkpt lat="44.17364" lon="5.04412">
        <ele>506.75</ele>
        <time>2017-12-03T09:56:11Z</time>
      </trkpt>
      <trkpt lat="44.17368" lon="5.0442">
        <ele>507.71</ele>
        <time>2017-12-03T09:56:15Z</time>
      </trkpt>
      <trkpt lat="44.17372" lon="5.04429">
        <ele>508.19</ele>
        <time>2017-12-03T09:56:21Z</time>
      </trkpt>
      <trkpt lat="44.1738" lon="5.04444">
        <ele>507.71</ele>
        <time>2017-12-03T09:56:31Z</time>
      </trkpt>
      <trkpt lat="44.17383" lon="5.0446">
        <ele>507.71</ele>
        <time>2017-12-03T09:56:40Z</time>
      </trkpt>
      <trkpt lat="44.17386" lon="5.04468">
        <ele>508.19</ele>
        <time>2017-12-03T09:56:44Z</time>
      </trkpt>
      <trkpt lat="44.17389" lon="5.04472">
        <ele>508.19</ele>
        <time>2017-12-03T09:56:47Z</time>
      </trkpt>
      <trkpt lat="44.1739" lon="5.04478">
        <ele>508.19</ele>
        <time>2017-12-03T09:56:51Z</time>
      </trkpt>
      <trkpt lat="44.17395" lon="5.04489">
        <ele>507.71</ele>
        <time>2017-12-03T09:56:58Z</time>
      </trkpt>
      <trkpt lat="44.17398" lon="5.04495">
        <ele>507.71</ele>
        <time>2017-12-03T09:57:03Z</time>
      </trkpt>
      <trkpt lat="44.17402" lon="5.04509">
        <ele>507.71</ele>
        <time>2017-12-03T09:57:13Z</time>
      </trkpt>
      <trkpt lat="44.17406" lon="5.04525">
        <ele>506.75</ele>
        <time>2017-12-03T09:57:23Z</time>
      </trkpt>
      <trkpt lat="44.17408" lon="5.04529">
        <ele>506.27</ele>
        <time>2017-12-03T09:57:26Z</time>
      </trkpt>
      <trkpt lat="44.17412" lon="5.04551">
        <ele>504.83</ele>
        <time>2017-12-03T09:57:38Z</time>
      </trkpt>
      <trkpt lat="44.17417" lon="5.04572">
        <ele>501.95</ele>
        <time>2017-12-03T09:57:51Z</time>
      </trkpt>
      <trkpt lat="44.17417" lon="5.04572">
        <ele>501.95</ele>
        <time>2017-12-03T09:57:52Z</time>
      </trkpt>
      <trkpt lat="44.17422" lon="5.04586">
        <ele>500.98</ele>
        <time>2017-12-03T09:58:01Z</time>
      </trkpt>
      <trkpt lat="44.17427" lon="5.04594">
        <ele>500.98</ele>
        <time>2017-12-03T09:58:06Z</time>
      </trkpt>
      <trkpt lat="44.1743" lon="5.04597">
        <ele>500.5</ele>
        <time>2017-12-03T09:58:19Z</time>
      </trkpt>
      <trkpt lat="44.1743" lon="5.04599">
        <ele>499.54</ele>
        <time>2017-12-03T09:58:36Z</time>
      </trkpt>
      <trkpt lat="44.17442" lon="5.04608">
        <ele>498.1</ele>
        <time>2017-12-03T09:58:46Z</time>
      </trkpt>
      <trkpt lat="44.17448" lon="5.04616">
        <ele>497.14</ele>
        <time>2017-12-03T09:58:55Z</time>
      </trkpt>
      <trkpt lat="44.17463" lon="5.04635">
        <ele>494.74</ele>
        <time>2017-12-03T09:59:09Z</time>
      </trkpt>
      <trkpt lat="44.17469" lon="5.04641">
        <ele>492.33</ele>
        <time>2017-12-03T09:59:17Z</time>
      </trkpt>
      <trkpt lat="44.17473" lon="5.04644">
        <ele>491.37</ele>
        <time>2017-12-03T09:59:21Z</time>
      </trkpt>
      <trkpt lat="44.17483" lon="5.04655">
        <ele>489.45</ele>
        <time>2017-12-03T09:59:30Z</time>
      </trkpt>
      <trkpt lat="44.17491" lon="5.04663">
        <ele>485.6</ele>
        <time>2017-12-03T09:59:39Z</time>
      </trkpt>
      <trkpt lat="44.17503" lon="5.04682">
        <ele>485.12</ele>
        <time>2017-12-03T09:59:51Z</time>
      </trkpt>
      <trkpt lat="44.17509" lon="5.04689">
        <ele>484.64</ele>
        <time>2017-12-03T09:59:58Z</time>
      </trkpt>
      <trkpt lat="44.17519" lon="5.04706">
        <ele>483.2</ele>
        <time>2017-12-03T10:00:11Z</time>
      </trkpt>
      <trkpt lat="44.1752" lon="5.04709">
        <ele>482.72</ele>
        <time>2017-12-03T10:00:13Z</time>
      </trkpt>
      <trkpt lat="44.17521" lon="5.04713">
        <ele>482.72</ele>
        <time>2017-12-03T10:00:15Z</time>
      </trkpt>
      <trkpt lat="44.17527" lon="5.04737">
        <ele>481.28</ele>
        <time>2017-12-03T10:00:28Z</time>
      </trkpt>
      <trkpt lat="44.17529" lon="5.0474">
        <ele>481.28</ele>
        <time>2017-12-03T10:00:30Z</time>
      </trkpt>
      <trkpt lat="44.17531" lon="5.0475">
        <ele>480.8</ele>
        <time>2017-12-03T10:00:35Z</time>
      </trkpt>
      <trkpt lat="44.17534" lon="5.0476">
        <ele>479.35</ele>
        <time>2017-12-03T10:00:43Z</time>
      </trkpt>
      <trkpt lat="44.17537" lon="5.04767">
        <ele>478.87</ele>
        <time>2017-12-03T10:00:47Z</time>
      </trkpt>
      <trkpt lat="44.17538" lon="5.04771">
        <ele>478.39</ele>
        <time>2017-12-03T10:00:50Z</time>
      </trkpt>
      <trkpt lat="44.17545" lon="5.04795">
        <ele>477.91</ele>
        <time>2017-12-03T10:01:03Z</time>
      </trkpt>
      <trkpt lat="44.17546" lon="5.04804">
        <ele>477.43</ele>
        <time>2017-12-03T10:01:08Z</time>
      </trkpt>
      <trkpt lat="44.17551" lon="5.04827">
        <ele>476.47</ele>
        <time>2017-12-03T10:01:20Z</time>
      </trkpt>
      <trkpt lat="44.17555" lon="5.04845">
        <ele>474.55</ele>
        <time>2017-12-03T10:01:30Z</time>
      </trkpt>
      <trkpt lat="44.17561" lon="5.04864">
        <ele>474.07</ele>
        <time>2017-12-03T10:01:39Z</time>
      </trkpt>
      <trkpt lat="44.17564" lon="5.04872">
        <ele>472.63</ele>
        <time>2017-12-03T10:01:45Z</time>
      </trkpt>
      <trkpt lat="44.17575" lon="5.04889">
        <ele>471.18</ele>
        <time>2017-12-03T10:01:58Z</time>
      </trkpt>
      <trkpt lat="44.17577" lon="5.04894">
        <ele>470.22</ele>
        <time>2017-12-03T10:02:02Z</time>
      </trkpt>
      <trkpt lat="44.17581" lon="5.04901">
        <ele>469.26</ele>
        <time>2017-12-03T10:02:07Z</time>
      </trkpt>
      <trkpt lat="44.1759" lon="5.04916">
        <ele>468.78</ele>
        <time>2017-12-03T10:02:18Z</time>
      </trkpt>
      <trkpt lat="44.17596" lon="5.04927">
        <ele>466.38</ele>
        <time>2017-12-03T10:02:25Z</time>
      </trkpt>
      <trkpt lat="44.17603" lon="5.04936">
        <ele>464.93</ele>
        <time>2017-12-03T10:02:33Z</time>
      </trkpt>
      <trkpt lat="44.17614" lon="5.04957">
        <ele>463.49</ele>
        <time>2017-12-03T10:02:48Z</time>
      </trkpt>
      <trkpt lat="44.17628" lon="5.04978">
        <ele>463.01</ele>
        <time>2017-12-03T10:03:02Z</time>
      </trkpt>
      <trkpt lat="44.1763" lon="5.04986">
        <ele>461.09</ele>
        <time>2017-12-03T10:03:08Z</time>
      </trkpt>
      <trkpt lat="44.17635" lon="5.04994">
        <ele>463.01</ele>
        <time>2017-12-03T10:03:12Z</time>
      </trkpt>
      <trkpt lat="44.17644" lon="5.05001">
        <ele>461.09</ele>
        <time>2017-12-03T10:03:21Z</time>
      </trkpt>
      <trkpt lat="44.17646" lon="5.05003">
        <ele>462.05</ele>
        <time>2017-12-03T10:03:23Z</time>
      </trkpt>
      <trkpt lat="44.17655" lon="5.05012">
        <ele>461.57</ele>
        <time>2017-12-03T10:03:31Z</time>
      </trkpt>
      <trkpt lat="44.17656" lon="5.05018">
        <ele>460.13</ele>
        <time>2017-12-03T10:03:35Z</time>
      </trkpt>
      <trkpt lat="44.17659" lon="5.05038">
        <ele>458.21</ele>
        <time>2017-12-03T10:03:46Z</time>
      </trkpt>
      <trkpt lat="44.1766" lon="5.0504">
        <ele>457.72</ele>
        <time>2017-12-03T10:03:48Z</time>
      </trkpt>
      <trkpt lat="44.17662" lon="5.05045">
        <ele>459.17</ele>
        <time>2017-12-03T10:03:51Z</time>
      </trkpt>
      <trkpt lat="44.17661" lon="5.05048">
        <ele>459.17</ele>
        <time>2017-12-03T10:03:54Z</time>
      </trkpt>
      <trkpt lat="44.17658" lon="5.05049">
        <ele>457.24</ele>
        <time>2017-12-03T10:03:59Z</time>
      </trkpt>
      <trkpt lat="44.17656" lon="5.05048">
        <ele>458.69</ele>
        <time>2017-12-03T10:04:02Z</time>
      </trkpt>
      <trkpt lat="44.17652" lon="5.05044">
        <ele>457.72</ele>
        <time>2017-12-03T10:04:07Z</time>
      </trkpt>
      <trkpt lat="44.17638" lon="5.05035">
        <ele>456.28</ele>
        <time>2017-12-03T10:04:20Z</time>
      </trkpt>
      <trkpt lat="44.17636" lon="5.05034">
        <ele>455.32</ele>
        <time>2017-12-03T10:04:21Z</time>
      </trkpt>
      <trkpt lat="44.17635" lon="5.05033">
        <ele>454.84</ele>
        <time>2017-12-03T10:04:23Z</time>
      </trkpt>
      <trkpt lat="44.17635" lon="5.05033">
        <ele>453.88</ele>
        <time>2017-12-03T10:04:25Z</time>
      </trkpt>
      <trkpt lat="44.17627" lon="5.05028">
        <ele>452.44</ele>
        <time>2017-12-03T10:04:32Z</time>
      </trkpt>
      <trkpt lat="44.17624" lon="5.05025">
        <ele>451.48</ele>
        <time>2017-12-03T10:04:35Z</time>
      </trkpt>
      <trkpt lat="44.17606" lon="5.05015">
        <ele>449.07</ele>
        <time>2017-12-03T10:04:48Z</time>
      </trkpt>
      <trkpt lat="44.17597" lon="5.05012">
        <ele>448.59</ele>
        <time>2017-12-03T10:04:56Z</time>
      </trkpt>
      <trkpt lat="44.1758" lon="5.05001">
        <ele>448.59</ele>
        <time>2017-12-03T10:05:09Z</time>
      </trkpt>
      <trkpt lat="44.17578" lon="5.05">
        <ele>448.11</ele>
        <time>2017-12-03T10:05:11Z</time>
      </trkpt>
      <trkpt lat="44.17567" lon="5.05002">
        <ele>446.67</ele>
        <time>2017-12-03T10:05:21Z</time>
      </trkpt>
      <trkpt lat="44.1756" lon="5.05">
        <ele>443.79</ele>
        <time>2017-12-03T10:05:27Z</time>
      </trkpt>
      <trkpt lat="44.17542" lon="5.05002">
        <ele>440.9</ele>
        <time>2017-12-03T10:05:40Z</time>
      </trkpt>
      <trkpt lat="44.1754" lon="5.05001">
        <ele>439.46</ele>
        <time>2017-12-03T10:05:42Z</time>
      </trkpt>
      <trkpt lat="44.17538" lon="5.05001">
        <ele>438.5</ele>
        <time>2017-12-03T10:05:43Z</time>
      </trkpt>
      <trkpt lat="44.17522" lon="5.04999">
        <ele>438.02</ele>
        <time>2017-12-03T10:05:53Z</time>
      </trkpt>
      <trkpt lat="44.1752" lon="5.04999">
        <ele>440.9</ele>
        <time>2017-12-03T10:05:55Z</time>
      </trkpt>
      <trkpt lat="44.1752" lon="5.04999">
        <ele>437.06</ele>
        <time>2017-12-03T10:05:56Z</time>
      </trkpt>
      <trkpt lat="44.1751" lon="5.04992">
        <ele>435.61</ele>
        <time>2017-12-03T10:06:08Z</time>
      </trkpt>
      <trkpt lat="44.17506" lon="5.04982">
        <ele>435.13</ele>
        <time>2017-12-03T10:06:16Z</time>
      </trkpt>
      <trkpt lat="44.17506" lon="5.04983">
        <ele>435.13</ele>
        <time>2017-12-03T10:06:18Z</time>
      </trkpt>
      <trkpt lat="44.17508" lon="5.04988">
        <ele>434.65</ele>
        <time>2017-12-03T10:06:21Z</time>
      </trkpt>
      <trkpt lat="44.17511" lon="5.04994">
        <ele>435.61</ele>
        <time>2017-12-03T10:06:25Z</time>
      </trkpt>
      <trkpt lat="44.17514" lon="5.05007">
        <ele>436.1</ele>
        <time>2017-12-03T10:06:38Z</time>
      </trkpt>
      <trkpt lat="44.17514" lon="5.05007">
        <ele>435.13</ele>
        <time>2017-12-03T10:06:41Z</time>
      </trkpt>
      <trkpt lat="44.17509" lon="5.04988">
        <ele>437.06</ele>
        <time>2017-12-03T10:06:53Z</time>
      </trkpt>
      <trkpt lat="44.17505" lon="5.04981">
        <ele>436.1</ele>
        <time>2017-12-03T10:06:58Z</time>
      </trkpt>
      <trkpt lat="44.17504" lon="5.04977">
        <ele>436.1</ele>
        <time>2017-12-03T10:07:01Z</time>
      </trkpt>
      <trkpt lat="44.17507" lon="5.04988">
        <ele>435.61</ele>
        <time>2017-12-03T10:07:09Z</time>
      </trkpt>
      <trkpt lat="44.17513" lon="5.0501">
        <ele>436.58</ele>
        <time>2017-12-03T10:07:21Z</time>
      </trkpt>
      <trkpt lat="44.17516" lon="5.05025">
        <ele>435.13</ele>
        <time>2017-12-03T10:07:31Z</time>
      </trkpt>
      <trkpt lat="44.17521" lon="5.05053">
        <ele>435.61</ele>
        <time>2017-12-03T10:07:45Z</time>
      </trkpt>
      <trkpt lat="44.17522" lon="5.05075">
        <ele>435.13</ele>
        <time>2017-12-03T10:07:55Z</time>
      </trkpt>
      <trkpt lat="44.17521" lon="5.05076">
        <ele>434.65</ele>
        <time>2017-12-03T10:07:57Z</time>
      </trkpt>
      <trkpt lat="44.17519" lon="5.05076">
        <ele>435.61</ele>
        <time>2017-12-03T10:07:59Z</time>
      </trkpt>
      <trkpt lat="44.17518" lon="5.05076">
        <ele>435.13</ele>
        <time>2017-12-03T10:08:01Z</time>
      </trkpt>
      <trkpt lat="44.17512" lon="5.05076">
        <ele>435.61</ele>
        <time>2017-12-03T10:08:05Z</time>
      </trkpt>
      <trkpt lat="44.17504" lon="5.05077">
        <ele>436.58</ele>
        <time>2017-12-03T10:08:10Z</time>
      </trkpt>
      <trkpt lat="44.17492" lon="5.05074">
        <ele>435.61</ele>
        <time>2017-12-03T10:08:20Z</time>
      </trkpt>
      <trkpt lat="44.17487" lon="5.05077">
        <ele>433.69</ele>
        <time>2017-12-03T10:08:24Z</time>
      </trkpt>
      <trkpt lat="44.17485" lon="5.05078">
        <ele>438.02</ele>
        <time>2017-12-03T10:08:25Z</time>
      </trkpt>
      <trkpt lat="44.1747" lon="5.05091">
        <ele>435.13</ele>
        <time>2017-12-03T10:08:38Z</time>
      </trkpt>
      <trkpt lat="44.17455" lon="5.05103">
        <ele>434.17</ele>
        <time>2017-12-03T10:08:50Z</time>
      </trkpt>
      <trkpt lat="44.17437" lon="5.05102">
        <ele>435.13</ele>
        <time>2017-12-03T10:09:02Z</time>
      </trkpt>
      <trkpt lat="44.17421" lon="5.05099">
        <ele>433.21</ele>
        <time>2017-12-03T10:09:13Z</time>
      </trkpt>
      <trkpt lat="44.1742" lon="5.05099">
        <ele>433.69</ele>
        <time>2017-12-03T10:09:15Z</time>
      </trkpt>
      <trkpt lat="44.17407" lon="5.05099">
        <ele>431.77</ele>
        <time>2017-12-03T10:09:25Z</time>
      </trkpt>
      <trkpt lat="44.17403" lon="5.05099">
        <ele>434.17</ele>
        <time>2017-12-03T10:09:29Z</time>
      </trkpt>
      <trkpt lat="44.17399" lon="5.05097">
        <ele>435.61</ele>
        <time>2017-12-03T10:09:32Z</time>
      </trkpt>
      <trkpt lat="44.17393" lon="5.05095">
        <ele>437.06</ele>
        <time>2017-12-03T10:09:37Z</time>
      </trkpt>
      <trkpt lat="44.1739" lon="5.05095">
        <ele>438.02</ele>
        <time>2017-12-03T10:09:40Z</time>
      </trkpt>
      <trkpt lat="44.17382" lon="5.05094">
        <ele>438.5</ele>
        <time>2017-12-03T10:09:46Z</time>
      </trkpt>
      <trkpt lat="44.17368" lon="5.05091">
        <ele>437.06</ele>
        <time>2017-12-03T10:09:56Z</time>
      </trkpt>
      <trkpt lat="44.17362" lon="5.0509">
        <ele>439.94</ele>
        <time>2017-12-03T10:10:00Z</time>
      </trkpt>
      <trkpt lat="44.17358" lon="5.05091">
        <ele>441.86</ele>
        <time>2017-12-03T10:10:05Z</time>
      </trkpt>
      <trkpt lat="44.17348" lon="5.05093">
        <ele>442.34</ele>
        <time>2017-12-03T10:10:13Z</time>
      </trkpt>
      <trkpt lat="44.17341" lon="5.05096">
        <ele>439.46</ele>
        <time>2017-12-03T10:10:22Z</time>
      </trkpt>
      <trkpt lat="44.17336" lon="5.05099">
        <ele>438.5</ele>
        <time>2017-12-03T10:10:25Z</time>
      </trkpt>
      <trkpt lat="44.17329" lon="5.05105">
        <ele>438.98</ele>
        <time>2017-12-03T10:10:30Z</time>
      </trkpt>
      <trkpt lat="44.17324" lon="5.05117">
        <ele>438.02</ele>
        <time>2017-12-03T10:10:36Z</time>
      </trkpt>
      <trkpt lat="44.17319" lon="5.05123">
        <ele>439.46</ele>
        <time>2017-12-03T10:10:41Z</time>
      </trkpt>
      <trkpt lat="44.17318" lon="5.05124">
        <ele>439.94</ele>
        <time>2017-12-03T10:10:43Z</time>
      </trkpt>
      <trkpt lat="44.17311" lon="5.05127">
        <ele>438.98</ele>
        <time>2017-12-03T10:10:48Z</time>
      </trkpt>
      <trkpt lat="44.1731" lon="5.05129">
        <ele>438.5</ele>
        <time>2017-12-03T10:10:49Z</time>
      </trkpt>
      <trkpt lat="44.17304" lon="5.05131">
        <ele>436.58</ele>
        <time>2017-12-03T10:10:53Z</time>
      </trkpt>
      <trkpt lat="44.17297" lon="5.05135">
        <ele>438.5</ele>
        <time>2017-12-03T10:11:00Z</time>
      </trkpt>
      <trkpt lat="44.17282" lon="5.05149">
        <ele>438.02</ele>
        <time>2017-12-03T10:11:13Z</time>
      </trkpt>
      <trkpt lat="44.17281" lon="5.0515">
        <ele>438.5</ele>
        <time>2017-12-03T10:11:14Z</time>
      </trkpt>
      <trkpt lat="44.17277" lon="5.05154">
        <ele>441.38</ele>
        <time>2017-12-03T10:11:17Z</time>
      </trkpt>
      <trkpt lat="44.17265" lon="5.05169">
        <ele>441.86</ele>
        <time>2017-12-03T10:11:29Z</time>
      </trkpt>
      <trkpt lat="44.17263" lon="5.05169">
        <ele>440.9</ele>
        <time>2017-12-03T10:11:31Z</time>
      </trkpt>
      <trkpt lat="44.1726" lon="5.05164">
        <ele>441.38</ele>
        <time>2017-12-03T10:11:38Z</time>
      </trkpt>
      <trkpt lat="44.17259" lon="5.05159">
        <ele>439.94</ele>
        <time>2017-12-03T10:11:41Z</time>
      </trkpt>
      <trkpt lat="44.17259" lon="5.05156">
        <ele>438.5</ele>
        <time>2017-12-03T10:11:44Z</time>
      </trkpt>
      <trkpt lat="44.17255" lon="5.0515">
        <ele>438.02</ele>
        <time>2017-12-03T10:11:50Z</time>
      </trkpt>
      <trkpt lat="44.17254" lon="5.05147">
        <ele>437.54</ele>
        <time>2017-12-03T10:11:53Z</time>
      </trkpt>
      <trkpt lat="44.17249" lon="5.05135">
        <ele>435.61</ele>
        <time>2017-12-03T10:12:00Z</time>
      </trkpt>
      <trkpt lat="44.17245" lon="5.05125">
        <ele>433.69</ele>
        <time>2017-12-03T10:12:05Z</time>
      </trkpt>
      <trkpt lat="44.17243" lon="5.05122">
        <ele>432.73</ele>
        <time>2017-12-03T10:12:07Z</time>
      </trkpt>
      <trkpt lat="44.17243" lon="5.05121">
        <ele>433.21</ele>
        <time>2017-12-03T10:12:08Z</time>
      </trkpt>
      <trkpt lat="44.17239" lon="5.05116">
        <ele>431.77</ele>
        <time>2017-12-03T10:12:16Z</time>
      </trkpt>
      <trkpt lat="44.17229" lon="5.05103">
        <ele>430.81</ele>
        <time>2017-12-03T10:12:23Z</time>
      </trkpt>
      <trkpt lat="44.17226" lon="5.05095">
        <ele>429.85</ele>
        <time>2017-12-03T10:12:26Z</time>
      </trkpt>
      <trkpt lat="44.17222" lon="5.05079">
        <ele>428.4</ele>
        <time>2017-12-03T10:12:33Z</time>
      </trkpt>
      <trkpt lat="44.17218" lon="5.05061">
        <ele>425.52</ele>
        <time>2017-12-03T10:12:43Z</time>
      </trkpt>
      <trkpt lat="44.17214" lon="5.05052">
        <ele>422.64</ele>
        <time>2017-12-03T10:12:50Z</time>
      </trkpt>
      <trkpt lat="44.1721" lon="5.05046">
        <ele>424.08</ele>
        <time>2017-12-03T10:12:55Z</time>
      </trkpt>
      <trkpt lat="44.17203" lon="5.05032">
        <ele>425.04</ele>
        <time>2017-12-03T10:13:00Z</time>
      </trkpt>
      <trkpt lat="44.17201" lon="5.05027">
        <ele>424.08</ele>
        <time>2017-12-03T10:13:04Z</time>
      </trkpt>
      <trkpt lat="44.17198" lon="5.05023">
        <ele>423.12</ele>
        <time>2017-12-03T10:13:07Z</time>
      </trkpt>
      <trkpt lat="44.17195" lon="5.0501">
        <ele>423.12</ele>
        <time>2017-12-03T10:13:12Z</time>
      </trkpt>
      <trkpt lat="44.17187" lon="5.04984">
        <ele>422.16</ele>
        <time>2017-12-03T10:13:26Z</time>
      </trkpt>
      <trkpt lat="44.17181" lon="5.04965">
        <ele>421.19</ele>
        <time>2017-12-03T10:13:36Z</time>
      </trkpt>
      <trkpt lat="44.1717" lon="5.04952">
        <ele>420.23</ele>
        <time>2017-12-03T10:13:49Z</time>
      </trkpt>
      <trkpt lat="44.17156" lon="5.04941">
        <ele>419.27</ele>
        <time>2017-12-03T10:13:58Z</time>
      </trkpt>
      <trkpt lat="44.17146" lon="5.04939">
        <ele>417.83</ele>
        <time>2017-12-03T10:14:06Z</time>
      </trkpt>
      <trkpt lat="44.17143" lon="5.04939">
        <ele>416.87</ele>
        <time>2017-12-03T10:14:08Z</time>
      </trkpt>
      <trkpt lat="44.17128" lon="5.04934">
        <ele>415.43</ele>
        <time>2017-12-03T10:14:19Z</time>
      </trkpt>
      <trkpt lat="44.17125" lon="5.04932">
        <ele>414.47</ele>
        <time>2017-12-03T10:14:22Z</time>
      </trkpt>
      <trkpt lat="44.17109" lon="5.04927">
        <ele>413.98</ele>
        <time>2017-12-03T10:14:34Z</time>
      </trkpt>
      <trkpt lat="44.17108" lon="5.04927">
        <ele>413.98</ele>
        <time>2017-12-03T10:14:35Z</time>
      </trkpt>
      <trkpt lat="44.17099" lon="5.04927">
        <ele>412.06</ele>
        <time>2017-12-03T10:14:43Z</time>
      </trkpt>
      <trkpt lat="44.17093" lon="5.04924">
        <ele>413.5</ele>
        <time>2017-12-03T10:14:48Z</time>
      </trkpt>
      <trkpt lat="44.17091" lon="5.04922">
        <ele>413.02</ele>
        <time>2017-12-03T10:14:50Z</time>
      </trkpt>
      <trkpt lat="44.17086" lon="5.04921">
        <ele>414.95</ele>
        <time>2017-12-03T10:14:54Z</time>
      </trkpt>
      <trkpt lat="44.17086" lon="5.04922">
        <ele>415.43</ele>
        <time>2017-12-03T10:14:55Z</time>
      </trkpt>
      <trkpt lat="44.17075" lon="5.04921">
        <ele>417.35</ele>
        <time>2017-12-03T10:15:06Z</time>
      </trkpt>
      <trkpt lat="44.17063" lon="5.04919">
        <ele>418.31</ele>
        <time>2017-12-03T10:15:18Z</time>
      </trkpt>
      <trkpt lat="44.17058" lon="5.04918">
        <ele>418.31</ele>
        <time>2017-12-03T10:15:23Z</time>
      </trkpt>
      <trkpt lat="44.17051" lon="5.04919">
        <ele>418.31</ele>
        <time>2017-12-03T10:15:28Z</time>
      </trkpt>
      <trkpt lat="44.17045" lon="5.04918">
        <ele>418.31</ele>
        <time>2017-12-03T10:15:33Z</time>
      </trkpt>
      <trkpt lat="44.17036" lon="5.04915">
        <ele>418.79</ele>
        <time>2017-12-03T10:15:39Z</time>
      </trkpt>
      <trkpt lat="44.17031" lon="5.04913">
        <ele>419.27</ele>
        <time>2017-12-03T10:15:44Z</time>
      </trkpt>
      <trkpt lat="44.17027" lon="5.04913">
        <ele>419.27</ele>
        <time>2017-12-03T10:15:47Z</time>
      </trkpt>
      <trkpt lat="44.17013" lon="5.04907">
        <ele>420.71</ele>
        <time>2017-12-03T10:15:59Z</time>
      </trkpt>
      <trkpt lat="44.16998" lon="5.04901">
        <ele>422.16</ele>
        <time>2017-12-03T10:16:11Z</time>
      </trkpt>
      <trkpt lat="44.16989" lon="5.04896">
        <ele>424.08</ele>
        <time>2017-12-03T10:16:22Z</time>
      </trkpt>
      <trkpt lat="44.16986" lon="5.04894">
        <ele>425.52</ele>
        <time>2017-12-03T10:16:25Z</time>
      </trkpt>
      <trkpt lat="44.16971" lon="5.04895">
        <ele>425.52</ele>
        <time>2017-12-03T10:16:38Z</time>
      </trkpt>
      <trkpt lat="44.16963" lon="5.04894">
        <ele>426.48</ele>
        <time>2017-12-03T10:16:47Z</time>
      </trkpt>
      <trkpt lat="44.1695" lon="5.04897">
        <ele>428.4</ele>
        <time>2017-12-03T10:17:00Z</time>
      </trkpt>
      <trkpt lat="44.16937" lon="5.04886">
        <ele>429.37</ele>
        <time>2017-12-03T10:17:13Z</time>
      </trkpt>
      <trkpt lat="44.16927" lon="5.04875">
        <ele>429.37</ele>
        <time>2017-12-03T10:17:25Z</time>
      </trkpt>
      <trkpt lat="44.16911" lon="5.04862">
        <ele>426.96</ele>
        <time>2017-12-03T10:17:38Z</time>
      </trkpt>
      <trkpt lat="44.16907" lon="5.04856">
        <ele>426.48</ele>
        <time>2017-12-03T10:17:43Z</time>
      </trkpt>
      <trkpt lat="44.16898" lon="5.04853">
        <ele>425.04</ele>
        <time>2017-12-03T10:17:52Z</time>
      </trkpt>
      <trkpt lat="44.16889" lon="5.04843">
        <ele>421.19</ele>
        <time>2017-12-03T10:18:02Z</time>
      </trkpt>
      <trkpt lat="44.16887" lon="5.04842">
        <ele>420.23</ele>
        <time>2017-12-03T10:18:04Z</time>
      </trkpt>
      <trkpt lat="44.16876" lon="5.0484">
        <ele>416.87</ele>
        <time>2017-12-03T10:18:16Z</time>
      </trkpt>
      <trkpt lat="44.16872" lon="5.0484">
        <ele>415.91</ele>
        <time>2017-12-03T10:18:19Z</time>
      </trkpt>
      <trkpt lat="44.16858" lon="5.04835">
        <ele>413.98</ele>
        <time>2017-12-03T10:18:31Z</time>
      </trkpt>
      <trkpt lat="44.16856" lon="5.04834">
        <ele>413.5</ele>
        <time>2017-12-03T10:18:33Z</time>
      </trkpt>
      <trkpt lat="44.16843" lon="5.04834">
        <ele>410.62</ele>
        <time>2017-12-03T10:18:45Z</time>
      </trkpt>
      <trkpt lat="44.16831" lon="5.04831">
        <ele>406.77</ele>
        <time>2017-12-03T10:18:58Z</time>
      </trkpt>
      <trkpt lat="44.16828" lon="5.0483">
        <ele>405.81</ele>
        <time>2017-12-03T10:19:00Z</time>
      </trkpt>
      <trkpt lat="44.16821" lon="5.04831">
        <ele>404.37</ele>
        <time>2017-12-03T10:19:06Z</time>
      </trkpt>
      <trkpt lat="44.16807" lon="5.04835">
        <ele>401.49</ele>
        <time>2017-12-03T10:19:17Z</time>
      </trkpt>
      <trkpt lat="44.16806" lon="5.04835">
        <ele>401.01</ele>
        <time>2017-12-03T10:19:19Z</time>
      </trkpt>
      <trkpt lat="44.16801" lon="5.04835">
        <ele>401.01</ele>
        <time>2017-12-03T10:19:23Z</time>
      </trkpt>
      <trkpt lat="44.16795" lon="5.04834">
        <ele>401.01</ele>
        <time>2017-12-03T10:19:27Z</time>
      </trkpt>
      <trkpt lat="44.1679" lon="5.04833">
        <ele>399.08</ele>
        <time>2017-12-03T10:19:31Z</time>
      </trkpt>
      <trkpt lat="44.16789" lon="5.04832">
        <ele>399.57</ele>
        <time>2017-12-03T10:19:33Z</time>
      </trkpt>
      <trkpt lat="44.16786" lon="5.04831">
        <ele>401.01</ele>
        <time>2017-12-03T10:19:36Z</time>
      </trkpt>
      <trkpt lat="44.16777" lon="5.04829">
        <ele>401.49</ele>
        <time>2017-12-03T10:19:49Z</time>
      </trkpt>
      <trkpt lat="44.16775" lon="5.04828">
        <ele>401.49</ele>
        <time>2017-12-03T10:19:51Z</time>
      </trkpt>
      <trkpt lat="44.16764" lon="5.04823">
        <ele>401.97</ele>
        <time>2017-12-03T10:20:01Z</time>
      </trkpt>
      <trkpt lat="44.16755" lon="5.04823">
        <ele>403.89</ele>
        <time>2017-12-03T10:20:10Z</time>
      </trkpt>
      <trkpt lat="44.16751" lon="5.04824">
        <ele>405.81</ele>
        <time>2017-12-03T10:20:14Z</time>
      </trkpt>
      <trkpt lat="44.1675" lon="5.04826">
        <ele>407.26</ele>
        <time>2017-12-03T10:20:25Z</time>
      </trkpt>
      <trkpt lat="44.1675" lon="5.04826">
        <ele>405.81</ele>
        <time>2017-12-03T10:20:43Z</time>
      </trkpt>
      <trkpt lat="44.1675" lon="5.04826">
        <ele>405.81</ele>
        <time>2017-12-03T10:21:10Z</time>
      </trkpt>
      <trkpt lat="44.1675" lon="5.04826">
        <ele>406.77</ele>
        <time>2017-12-03T10:21:41Z</time>
      </trkpt>
      <trkpt lat="44.1675" lon="5.04826">
        <ele>407.26</ele>
        <time>2017-12-03T10:21:56Z</time>
      </trkpt>
      <trkpt lat="44.1675" lon="5.04826">
        <ele>408.22</ele>
        <time>2017-12-03T10:22:01Z</time>
      </trkpt>
      <trkpt lat="44.1675" lon="5.04826">
        <ele>406.77</ele>
        <time>2017-12-03T10:22:03Z</time>
      </trkpt>
      <trkpt lat="44.1675" lon="5.04826">
        <ele>407.74</ele>
        <time>2017-12-03T10:22:25Z</time>
      </trkpt>
      <trkpt lat="44.1675" lon="5.04826">
        <ele>405.81</ele>
        <time>2017-12-03T10:22:50Z</time>
      </trkpt>
      <trkpt lat="44.1675" lon="5.04827">
        <ele>408.7</ele>
        <time>2017-12-03T10:23:13Z</time>
      </trkpt>
      <trkpt lat="44.1675" lon="5.04827">
        <ele>405.33</ele>
        <time>2017-12-03T10:23:22Z</time>
      </trkpt>
      <trkpt lat="44.1675" lon="5.04827">
        <ele>407.26</ele>
        <time>2017-12-03T10:23:44Z</time>
      </trkpt>
      <trkpt lat="44.16738" lon="5.04834">
        <ele>406.29</ele>
        <time>2017-12-03T10:23:55Z</time>
      </trkpt>
      <trkpt lat="44.16735" lon="5.04836">
        <ele>407.74</ele>
        <time>2017-12-03T10:23:57Z</time>
      </trkpt>
      <trkpt lat="44.16729" lon="5.04838">
        <ele>407.26</ele>
        <time>2017-12-03T10:24:01Z</time>
      </trkpt>
      <trkpt lat="44.16725" lon="5.04839">
        <ele>406.77</ele>
        <time>2017-12-03T10:24:16Z</time>
      </trkpt>
      <trkpt lat="44.16721" lon="5.04841">
        <ele>406.77</ele>
        <time>2017-12-03T10:24:27Z</time>
      </trkpt>
      <trkpt lat="44.16719" lon="5.04843">
        <ele>407.26</ele>
        <time>2017-12-03T10:24:31Z</time>
      </trkpt>
      <trkpt lat="44.16717" lon="5.04845">
        <ele>406.77</ele>
        <time>2017-12-03T10:24:33Z</time>
      </trkpt>
      <trkpt lat="44.16711" lon="5.04847">
        <ele>405.81</ele>
        <time>2017-12-03T10:24:39Z</time>
      </trkpt>
      <trkpt lat="44.16707" lon="5.04848">
        <ele>405.81</ele>
        <time>2017-12-03T10:24:42Z</time>
      </trkpt>
      <trkpt lat="44.167" lon="5.04849">
        <ele>405.33</ele>
        <time>2017-12-03T10:24:49Z</time>
      </trkpt>
      <trkpt lat="44.16695" lon="5.04849">
        <ele>406.29</ele>
        <time>2017-12-03T10:24:53Z</time>
      </trkpt>
      <trkpt lat="44.1668" lon="5.04853">
        <ele>405.33</ele>
        <time>2017-12-03T10:25:05Z</time>
      </trkpt>
      <trkpt lat="44.16664" lon="5.04858">
        <ele>403.89</ele>
        <time>2017-12-03T10:25:18Z</time>
      </trkpt>
      <trkpt lat="44.16662" lon="5.04858">
        <ele>404.85</ele>
        <time>2017-12-03T10:25:19Z</time>
      </trkpt>
      <trkpt lat="44.16656" lon="5.04859">
        <ele>406.29</ele>
        <time>2017-12-03T10:25:23Z</time>
      </trkpt>
      <trkpt lat="44.16648" lon="5.0486">
        <ele>405.81</ele>
        <time>2017-12-03T10:25:28Z</time>
      </trkpt>
      <trkpt lat="44.16647" lon="5.04861">
        <ele>405.33</ele>
        <time>2017-12-03T10:25:30Z</time>
      </trkpt>
      <trkpt lat="44.16636" lon="5.04863">
        <ele>406.77</ele>
        <time>2017-12-03T10:25:38Z</time>
      </trkpt>
      <trkpt lat="44.16629" lon="5.04863">
        <ele>405.33</ele>
        <time>2017-12-03T10:25:43Z</time>
      </trkpt>
      <trkpt lat="44.16617" lon="5.04865">
        <ele>403.89</ele>
        <time>2017-12-03T10:25:52Z</time>
      </trkpt>
      <trkpt lat="44.1661" lon="5.04865">
        <ele>401.49</ele>
        <time>2017-12-03T10:25:56Z</time>
      </trkpt>
      <trkpt lat="44.16606" lon="5.04864">
        <ele>404.85</ele>
        <time>2017-12-03T10:25:59Z</time>
      </trkpt>
      <trkpt lat="44.16602" lon="5.04861">
        <ele>401.49</ele>
        <time>2017-12-03T10:26:05Z</time>
      </trkpt>
      <trkpt lat="44.16601" lon="5.04861">
        <ele>401.49</ele>
        <time>2017-12-03T10:26:06Z</time>
      </trkpt>
      <trkpt lat="44.16592" lon="5.04853">
        <ele>401.97</ele>
        <time>2017-12-03T10:26:12Z</time>
      </trkpt>
      <trkpt lat="44.16587" lon="5.04848">
        <ele>401.01</ele>
        <time>2017-12-03T10:26:18Z</time>
      </trkpt>
      <trkpt lat="44.16585" lon="5.04845">
        <ele>400.05</ele>
        <time>2017-12-03T10:26:20Z</time>
      </trkpt>
      <trkpt lat="44.16578" lon="5.04836">
        <ele>397.64</ele>
        <time>2017-12-03T10:26:28Z</time>
      </trkpt>
      <trkpt lat="44.16569" lon="5.04827">
        <ele>395.24</ele>
        <time>2017-12-03T10:26:37Z</time>
      </trkpt>
      <trkpt lat="44.16566" lon="5.04831">
        <ele>394.28</ele>
        <time>2017-12-03T10:26:40Z</time>
      </trkpt>
      <trkpt lat="44.16563" lon="5.04839">
        <ele>394.28</ele>
        <time>2017-12-03T10:26:47Z</time>
      </trkpt>
      <trkpt lat="44.16558" lon="5.04857">
        <ele>392.36</ele>
        <time>2017-12-03T10:26:59Z</time>
      </trkpt>
      <trkpt lat="44.16554" lon="5.04867">
        <ele>391.87</ele>
        <time>2017-12-03T10:27:06Z</time>
      </trkpt>
      <trkpt lat="44.16554" lon="5.04872">
        <ele>388.99</ele>
        <time>2017-12-03T10:27:09Z</time>
      </trkpt>
      <trkpt lat="44.16552" lon="5.04882">
        <ele>388.03</ele>
        <time>2017-12-03T10:27:15Z</time>
      </trkpt>
      <trkpt lat="44.16552" lon="5.04885">
        <ele>387.07</ele>
        <time>2017-12-03T10:27:17Z</time>
      </trkpt>
      <trkpt lat="44.16551" lon="5.04895">
        <ele>386.11</ele>
        <time>2017-12-03T10:27:23Z</time>
      </trkpt>
      <trkpt lat="44.16548" lon="5.04907">
        <ele>382.74</ele>
        <time>2017-12-03T10:27:32Z</time>
      </trkpt>
      <trkpt lat="44.16534" lon="5.04912">
        <ele>379.86</ele>
        <time>2017-12-03T10:27:47Z</time>
      </trkpt>
      <trkpt lat="44.16526" lon="5.04909">
        <ele>378.42</ele>
        <time>2017-12-03T10:27:54Z</time>
      </trkpt>
      <trkpt lat="44.16518" lon="5.04904">
        <ele>376.97</ele>
        <time>2017-12-03T10:27:59Z</time>
      </trkpt>
      <trkpt lat="44.16505" lon="5.049">
        <ele>374.09</ele>
        <time>2017-12-03T10:28:10Z</time>
      </trkpt>
      <trkpt lat="44.16502" lon="5.04899">
        <ele>373.13</ele>
        <time>2017-12-03T10:28:13Z</time>
      </trkpt>
      <trkpt lat="44.16483" lon="5.0489">
        <ele>370.73</ele>
        <time>2017-12-03T10:28:25Z</time>
      </trkpt>
      <trkpt lat="44.16469" lon="5.04883">
        <ele>369.28</ele>
        <time>2017-12-03T10:28:38Z</time>
      </trkpt>
      <trkpt lat="44.16464" lon="5.04879">
        <ele>367.36</ele>
        <time>2017-12-03T10:28:43Z</time>
      </trkpt>
      <trkpt lat="44.16449" lon="5.0487">
        <ele>364.96</ele>
        <time>2017-12-03T10:28:55Z</time>
      </trkpt>
      <trkpt lat="44.16433" lon="5.04863">
        <ele>362.07</ele>
        <time>2017-12-03T10:29:07Z</time>
      </trkpt>
      <trkpt lat="44.16422" lon="5.04858">
        <ele>360.63</ele>
        <time>2017-12-03T10:29:14Z</time>
      </trkpt>
      <trkpt lat="44.16397" lon="5.04849">
        <ele>358.71</ele>
        <time>2017-12-03T10:29:28Z</time>
      </trkpt>
      <trkpt lat="44.16382" lon="5.04845">
        <ele>356.31</ele>
        <time>2017-12-03T10:29:41Z</time>
      </trkpt>
      <trkpt lat="44.16372" lon="5.04844">
        <ele>355.34</ele>
        <time>2017-12-03T10:29:48Z</time>
      </trkpt>
      <trkpt lat="44.16348" lon="5.04845">
        <ele>355.34</ele>
        <time>2017-12-03T10:30:02Z</time>
      </trkpt>
      <trkpt lat="44.1634" lon="5.04847">
        <ele>353.42</ele>
        <time>2017-12-03T10:30:10Z</time>
      </trkpt>
      <trkpt lat="44.16327" lon="5.04851">
        <ele>352.46</ele>
        <time>2017-12-03T10:30:19Z</time>
      </trkpt>
      <trkpt lat="44.16321" lon="5.04853">
        <ele>352.46</ele>
        <time>2017-12-03T10:30:23Z</time>
      </trkpt>
      <trkpt lat="44.16316" lon="5.04853">
        <ele>351.98</ele>
        <time>2017-12-03T10:30:26Z</time>
      </trkpt>
      <trkpt lat="44.16296" lon="5.04858">
        <ele>350.06</ele>
        <time>2017-12-03T10:30:41Z</time>
      </trkpt>
      <trkpt lat="44.16287" lon="5.04863">
        <ele>349.58</ele>
        <time>2017-12-03T10:30:51Z</time>
      </trkpt>
      <trkpt lat="44.16282" lon="5.04864">
        <ele>349.1</ele>
        <time>2017-12-03T10:30:58Z</time>
      </trkpt>
      <trkpt lat="44.16278" lon="5.04864">
        <ele>349.1</ele>
        <time>2017-12-03T10:31:01Z</time>
      </trkpt>
      <trkpt lat="44.16271" lon="5.04867">
        <ele>348.13</ele>
        <time>2017-12-03T10:31:09Z</time>
      </trkpt>
      <trkpt lat="44.1626" lon="5.04872">
        <ele>347.65</ele>
        <time>2017-12-03T10:31:22Z</time>
      </trkpt>
      <trkpt lat="44.16255" lon="5.04872">
        <ele>346.21</ele>
        <time>2017-12-03T10:31:32Z</time>
      </trkpt>
      <trkpt lat="44.16249" lon="5.04878">
        <ele>345.25</ele>
        <time>2017-12-03T10:31:39Z</time>
      </trkpt>
      <trkpt lat="44.16247" lon="5.04881">
        <ele>344.29</ele>
        <time>2017-12-03T10:31:42Z</time>
      </trkpt>
      <trkpt lat="44.16239" lon="5.04899">
        <ele>341.41</ele>
        <time>2017-12-03T10:31:53Z</time>
      </trkpt>
      <trkpt lat="44.1623" lon="5.0491">
        <ele>341.41</ele>
        <time>2017-12-03T10:32:03Z</time>
      </trkpt>
      <trkpt lat="44.16224" lon="5.04916">
        <ele>338.04</ele>
        <time>2017-12-03T10:32:08Z</time>
      </trkpt>
      <trkpt lat="44.16214" lon="5.0493">
        <ele>335.16</ele>
        <time>2017-12-03T10:32:18Z</time>
      </trkpt>
      <trkpt lat="44.1621" lon="5.04945">
        <ele>331.79</ele>
        <time>2017-12-03T10:32:29Z</time>
      </trkpt>
      <trkpt lat="44.16208" lon="5.04958">
        <ele>328.43</ele>
        <time>2017-12-03T10:32:37Z</time>
      </trkpt>
      <trkpt lat="44.16208" lon="5.0496">
        <ele>327.95</ele>
        <time>2017-12-03T10:32:38Z</time>
      </trkpt>
      <trkpt lat="44.16208" lon="5.04976">
        <ele>324.58</ele>
        <time>2017-12-03T10:32:49Z</time>
      </trkpt>
      <trkpt lat="44.16211" lon="5.04985">
        <ele>323.62</ele>
        <time>2017-12-03T10:32:55Z</time>
      </trkpt>
      <trkpt lat="44.16214" lon="5.0499">
        <ele>322.18</ele>
        <time>2017-12-03T10:33:00Z</time>
      </trkpt>
      <trkpt lat="44.16215" lon="5.04996">
        <ele>320.74</ele>
        <time>2017-12-03T10:33:03Z</time>
      </trkpt>
      <trkpt lat="44.16212" lon="5.05001">
        <ele>319.78</ele>
        <time>2017-12-03T10:33:06Z</time>
      </trkpt>
      <trkpt lat="44.16205" lon="5.05002">
        <ele>317.37</ele>
        <time>2017-12-03T10:33:11Z</time>
      </trkpt>
      <trkpt lat="44.16191" lon="5.05003">
        <ele>315.45</ele>
        <time>2017-12-03T10:33:24Z</time>
      </trkpt>
      <trkpt lat="44.1619" lon="5.05003">
        <ele>314.97</ele>
        <time>2017-12-03T10:33:25Z</time>
      </trkpt>
      <trkpt lat="44.16171" lon="5.04993">
        <ele>311.6</ele>
        <time>2017-12-03T10:33:39Z</time>
      </trkpt>
      <trkpt lat="44.16153" lon="5.04983">
        <ele>308.24</ele>
        <time>2017-12-03T10:33:50Z</time>
      </trkpt>
      <trkpt lat="44.16152" lon="5.04982">
        <ele>308.24</ele>
        <time>2017-12-03T10:33:52Z</time>
      </trkpt>
      <trkpt lat="44.16144" lon="5.04982">
        <ele>306.32</ele>
        <time>2017-12-03T10:34:02Z</time>
      </trkpt>
      <trkpt lat="44.16144" lon="5.04982">
        <ele>306.8</ele>
        <time>2017-12-03T10:34:05Z</time>
      </trkpt>
      <trkpt lat="44.16147" lon="5.04983">
        <ele>307.76</ele>
        <time>2017-12-03T10:34:08Z</time>
      </trkpt>
      <trkpt lat="44.1615" lon="5.04985">
        <ele>307.28</ele>
        <time>2017-12-03T10:34:10Z</time>
      </trkpt>
      <trkpt lat="44.16153" lon="5.04987">
        <ele>308.24</ele>
        <time>2017-12-03T10:34:13Z</time>
      </trkpt>
      <trkpt lat="44.16158" lon="5.04989">
        <ele>308.72</ele>
        <time>2017-12-03T10:34:16Z</time>
      </trkpt>
      <trkpt lat="44.1616" lon="5.04991">
        <ele>309.2</ele>
        <time>2017-12-03T10:34:19Z</time>
      </trkpt>
      <trkpt lat="44.16157" lon="5.05002">
        <ele>311.6</ele>
        <time>2017-12-03T10:34:31Z</time>
      </trkpt>
      <trkpt lat="44.16157" lon="5.05003">
        <ele>311.6</ele>
        <time>2017-12-03T10:34:32Z</time>
      </trkpt>
      <trkpt lat="44.16156" lon="5.05006">
        <ele>312.09</ele>
        <time>2017-12-03T10:34:34Z</time>
      </trkpt>
      <trkpt lat="44.16154" lon="5.05013">
        <ele>314.01</ele>
        <time>2017-12-03T10:34:39Z</time>
      </trkpt>
      <trkpt lat="44.16152" lon="5.05016">
        <ele>314.49</ele>
        <time>2017-12-03T10:34:42Z</time>
      </trkpt>
      <trkpt lat="44.16145" lon="5.05023">
        <ele>315.93</ele>
        <time>2017-12-03T10:34:50Z</time>
      </trkpt>
      <trkpt lat="44.16135" lon="5.05023">
        <ele>319.78</ele>
        <time>2017-12-03T10:35:01Z</time>
      </trkpt>
      <trkpt lat="44.16131" lon="5.05021">
        <ele>320.26</ele>
        <time>2017-12-03T10:35:04Z</time>
      </trkpt>
      <trkpt lat="44.16125" lon="5.05021">
        <ele>321.7</ele>
        <time>2017-12-03T10:35:10Z</time>
      </trkpt>
      <trkpt lat="44.16112" lon="5.05017">
        <ele>322.66</ele>
        <time>2017-12-03T10:35:21Z</time>
      </trkpt>
      <trkpt lat="44.1611" lon="5.05016">
        <ele>323.62</ele>
        <time>2017-12-03T10:35:23Z</time>
      </trkpt>
      <trkpt lat="44.16108" lon="5.05016">
        <ele>323.14</ele>
        <time>2017-12-03T10:35:24Z</time>
      </trkpt>
      <trkpt lat="44.16104" lon="5.05015">
        <ele>324.1</ele>
        <time>2017-12-03T10:35:28Z</time>
      </trkpt>
      <trkpt lat="44.161" lon="5.05013">
        <ele>324.1</ele>
        <time>2017-12-03T10:35:31Z</time>
      </trkpt>
      <trkpt lat="44.16087" lon="5.05008">
        <ele>323.14</ele>
        <time>2017-12-03T10:35:41Z</time>
      </trkpt>
      <trkpt lat="44.16077" lon="5.05005">
        <ele>322.66</ele>
        <time>2017-12-03T10:35:47Z</time>
      </trkpt>
      <trkpt lat="44.16074" lon="5.05001">
        <ele>325.06</ele>
        <time>2017-12-03T10:35:50Z</time>
      </trkpt>
      <trkpt lat="44.16072" lon="5.05001">
        <ele>325.06</ele>
        <time>2017-12-03T10:35:51Z</time>
      </trkpt>
      <trkpt lat="44.16061" lon="5.04995">
        <ele>323.14</ele>
        <time>2017-12-03T10:36:01Z</time>
      </trkpt>
      <trkpt lat="44.16055" lon="5.04994">
        <ele>324.58</ele>
        <time>2017-12-03T10:36:05Z</time>
      </trkpt>
      <trkpt lat="44.16045" lon="5.0499">
        <ele>324.58</ele>
        <time>2017-12-03T10:36:16Z</time>
      </trkpt>
      <trkpt lat="44.16042" lon="5.04989">
        <ele>325.54</ele>
        <time>2017-12-03T10:36:18Z</time>
      </trkpt>
      <trkpt lat="44.16032" lon="5.04988">
        <ele>326.5</ele>
        <time>2017-12-03T10:36:25Z</time>
      </trkpt>
      <trkpt lat="44.16027" lon="5.04987">
        <ele>329.87</ele>
        <time>2017-12-03T10:36:31Z</time>
      </trkpt>
      <trkpt lat="44.16026" lon="5.04986">
        <ele>329.87</ele>
        <time>2017-12-03T10:36:32Z</time>
      </trkpt>
      <trkpt lat="44.16025" lon="5.04984">
        <ele>329.87</ele>
        <time>2017-12-03T10:36:33Z</time>
      </trkpt>
      <trkpt lat="44.16015" lon="5.0498">
        <ele>330.83</ele>
        <time>2017-12-03T10:36:45Z</time>
      </trkpt>
      <trkpt lat="44.16011" lon="5.04975">
        <ele>334.2</ele>
        <time>2017-12-03T10:36:54Z</time>
      </trkpt>
      <trkpt lat="44.1601" lon="5.04974">
        <ele>334.68</ele>
        <time>2017-12-03T10:36:55Z</time>
      </trkpt>
      <trkpt lat="44.16007" lon="5.04972">
        <ele>335.16</ele>
        <time>2017-12-03T10:36:57Z</time>
      </trkpt>
      <trkpt lat="44.16003" lon="5.04966">
        <ele>334.2</ele>
        <time>2017-12-03T10:37:01Z</time>
      </trkpt>
      <trkpt lat="44.16002" lon="5.04963">
        <ele>333.23</ele>
        <time>2017-12-03T10:37:03Z</time>
      </trkpt>
      <trkpt lat="44.1599" lon="5.04959">
        <ele>336.6</ele>
        <time>2017-12-03T10:37:16Z</time>
      </trkpt>
      <trkpt lat="44.15981" lon="5.04957">
        <ele>339.48</ele>
        <time>2017-12-03T10:37:25Z</time>
      </trkpt>
      <trkpt lat="44.15979" lon="5.04958">
        <ele>340.44</ele>
        <time>2017-12-03T10:37:27Z</time>
      </trkpt>
      <trkpt lat="44.15975" lon="5.0496">
        <ele>340.44</ele>
        <time>2017-12-03T10:37:33Z</time>
      </trkpt>
      <trkpt lat="44.15973" lon="5.0495">
        <ele>340.92</ele>
        <time>2017-12-03T10:37:40Z</time>
      </trkpt>
      <trkpt lat="44.1597" lon="5.04949">
        <ele>340.92</ele>
        <time>2017-12-03T10:37:42Z</time>
      </trkpt>
      <trkpt lat="44.15957" lon="5.04943">
        <ele>340.92</ele>
        <time>2017-12-03T10:37:54Z</time>
      </trkpt>
      <trkpt lat="44.15957" lon="5.04941">
        <ele>342.37</ele>
        <time>2017-12-03T10:37:56Z</time>
      </trkpt>
      <trkpt lat="44.15955" lon="5.04933">
        <ele>343.33</ele>
        <time>2017-12-03T10:38:02Z</time>
      </trkpt>
      <trkpt lat="44.15948" lon="5.04922">
        <ele>345.73</ele>
        <time>2017-12-03T10:38:14Z</time>
      </trkpt>
      <trkpt lat="44.15945" lon="5.0492">
        <ele>346.69</ele>
        <time>2017-12-03T10:38:19Z</time>
      </trkpt>
      <trkpt lat="44.15942" lon="5.0492">
        <ele>347.17</ele>
        <time>2017-12-03T10:38:21Z</time>
      </trkpt>
      <trkpt lat="44.15933" lon="5.04915">
        <ele>350.54</ele>
        <time>2017-12-03T10:38:33Z</time>
      </trkpt>
      <trkpt lat="44.15926" lon="5.04908">
        <ele>352.94</ele>
        <time>2017-12-03T10:38:44Z</time>
      </trkpt>
      <trkpt lat="44.15926" lon="5.04903">
        <ele>354.38</ele>
        <time>2017-12-03T10:38:49Z</time>
      </trkpt>
      <trkpt lat="44.15924" lon="5.04897">
        <ele>354.86</ele>
        <time>2017-12-03T10:38:56Z</time>
      </trkpt>
      <trkpt lat="44.15918" lon="5.04894">
        <ele>355.83</ele>
        <time>2017-12-03T10:39:00Z</time>
      </trkpt>
      <trkpt lat="44.15917" lon="5.04892">
        <ele>356.79</ele>
        <time>2017-12-03T10:39:02Z</time>
      </trkpt>
      <trkpt lat="44.15916" lon="5.04892">
        <ele>357.27</ele>
        <time>2017-12-03T10:39:03Z</time>
      </trkpt>
      <trkpt lat="44.15909" lon="5.04886">
        <ele>359.19</ele>
        <time>2017-12-03T10:39:14Z</time>
      </trkpt>
      <trkpt lat="44.15904" lon="5.04884">
        <ele>359.67</ele>
        <time>2017-12-03T10:39:19Z</time>
      </trkpt>
      <trkpt lat="44.159" lon="5.04885">
        <ele>361.59</ele>
        <time>2017-12-03T10:39:23Z</time>
      </trkpt>
      <trkpt lat="44.15893" lon="5.04884">
        <ele>361.11</ele>
        <time>2017-12-03T10:39:29Z</time>
      </trkpt>
      <trkpt lat="44.15889" lon="5.04886">
        <ele>360.15</ele>
        <time>2017-12-03T10:39:32Z</time>
      </trkpt>
      <trkpt lat="44.15883" lon="5.04884">
        <ele>359.67</ele>
        <time>2017-12-03T10:39:44Z</time>
      </trkpt>
      <trkpt lat="44.15882" lon="5.04881">
        <ele>360.15</ele>
        <time>2017-12-03T10:39:54Z</time>
      </trkpt>
      <trkpt lat="44.15881" lon="5.04883">
        <ele>359.19</ele>
        <time>2017-12-03T10:39:58Z</time>
      </trkpt>
      <trkpt lat="44.15875" lon="5.04882">
        <ele>359.19</ele>
        <time>2017-12-03T10:40:12Z</time>
      </trkpt>
      <trkpt lat="44.15873" lon="5.04879">
        <ele>359.19</ele>
        <time>2017-12-03T10:40:15Z</time>
      </trkpt>
      <trkpt lat="44.15868" lon="5.04879">
        <ele>359.67</ele>
        <time>2017-12-03T10:40:22Z</time>
      </trkpt>
      <trkpt lat="44.15865" lon="5.04884">
        <ele>358.23</ele>
        <time>2017-12-03T10:40:36Z</time>
      </trkpt>
      <trkpt lat="44.15861" lon="5.04887">
        <ele>358.71</ele>
        <time>2017-12-03T10:40:54Z</time>
      </trkpt>
      <trkpt lat="44.15856" lon="5.04885">
        <ele>357.27</ele>
        <time>2017-12-03T10:41:12Z</time>
      </trkpt>
      <trkpt lat="44.15853" lon="5.04881">
        <ele>358.71</ele>
        <time>2017-12-03T10:41:17Z</time>
      </trkpt>
      <trkpt lat="44.1585" lon="5.04876">
        <ele>357.75</ele>
        <time>2017-12-03T10:41:27Z</time>
      </trkpt>
      <trkpt lat="44.15847" lon="5.04873">
        <ele>361.11</ele>
        <time>2017-12-03T10:41:37Z</time>
      </trkpt>
      <trkpt lat="44.15849" lon="5.04876">
        <ele>360.63</ele>
        <time>2017-12-03T10:41:48Z</time>
      </trkpt>
      <trkpt lat="44.1585" lon="5.04878">
        <ele>359.19</ele>
        <time>2017-12-03T10:41:56Z</time>
      </trkpt>
      <trkpt lat="44.15852" lon="5.04879">
        <ele>358.23</ele>
        <time>2017-12-03T10:41:58Z</time>
      </trkpt>
      <trkpt lat="44.15853" lon="5.04881">
        <ele>355.83</ele>
        <time>2017-12-03T10:42:00Z</time>
      </trkpt>
      <trkpt lat="44.15854" lon="5.04883">
        <ele>354.86</ele>
        <time>2017-12-03T10:42:02Z</time>
      </trkpt>
      <trkpt lat="44.15859" lon="5.04888">
        <ele>356.79</ele>
        <time>2017-12-03T10:42:15Z</time>
      </trkpt>
      <trkpt lat="44.15853" lon="5.04884">
        <ele>356.79</ele>
        <time>2017-12-03T10:42:25Z</time>
      </trkpt>
      <trkpt lat="44.15852" lon="5.04884">
        <ele>358.23</ele>
        <time>2017-12-03T10:42:28Z</time>
      </trkpt>
      <trkpt lat="44.15852" lon="5.04885">
        <ele>356.79</ele>
        <time>2017-12-03T10:42:30Z</time>
      </trkpt>
      <trkpt lat="44.15851" lon="5.04891">
        <ele>354.38</ele>
        <time>2017-12-03T10:42:40Z</time>
      </trkpt>
      <trkpt lat="44.1585" lon="5.04894">
        <ele>351.98</ele>
        <time>2017-12-03T10:42:53Z</time>
      </trkpt>
      <trkpt lat="44.1585" lon="5.04894">
        <ele>351.5</ele>
        <time>2017-12-03T10:42:54Z</time>
      </trkpt>
      <trkpt lat="44.1585" lon="5.04894">
        <ele>351.5</ele>
        <time>2017-12-03T10:42:57Z</time>
      </trkpt>
      <trkpt lat="44.15847" lon="5.04896">
        <ele>349.58</ele>
        <time>2017-12-03T10:43:08Z</time>
      </trkpt>
      <trkpt lat="44.15843" lon="5.04902">
        <ele>346.21</ele>
        <time>2017-12-03T10:43:17Z</time>
      </trkpt>
      <trkpt lat="44.15842" lon="5.04902">
        <ele>346.21</ele>
        <time>2017-12-03T10:43:18Z</time>
      </trkpt>
      <trkpt lat="44.15839" lon="5.04906">
        <ele>344.77</ele>
        <time>2017-12-03T10:43:34Z</time>
      </trkpt>
      <trkpt lat="44.15839" lon="5.04904">
        <ele>344.29</ele>
        <time>2017-12-03T10:43:50Z</time>
      </trkpt>
      <trkpt lat="44.15838" lon="5.04905">
        <ele>343.33</ele>
        <time>2017-12-03T10:44:05Z</time>
      </trkpt>
      <trkpt lat="44.15838" lon="5.04906">
        <ele>339</ele>
        <time>2017-12-03T10:44:12Z</time>
      </trkpt>
      <trkpt lat="44.15838" lon="5.04906">
        <ele>343.33</ele>
        <time>2017-12-03T10:44:14Z</time>
      </trkpt>
      <trkpt lat="44.15836" lon="5.0491">
        <ele>339.96</ele>
        <time>2017-12-03T10:44:22Z</time>
      </trkpt>
      <trkpt lat="44.15835" lon="5.04912">
        <ele>338.52</ele>
        <time>2017-12-03T10:44:26Z</time>
      </trkpt>
      <trkpt lat="44.15833" lon="5.04916">
        <ele>337.56</ele>
        <time>2017-12-03T10:44:30Z</time>
      </trkpt>
      <trkpt lat="44.15832" lon="5.04916">
        <ele>336.6</ele>
        <time>2017-12-03T10:44:42Z</time>
      </trkpt>
      <trkpt lat="44.15831" lon="5.04914">
        <ele>336.12</ele>
        <time>2017-12-03T10:44:52Z</time>
      </trkpt>
      <trkpt lat="44.15827" lon="5.04915">
        <ele>334.2</ele>
        <time>2017-12-03T10:45:03Z</time>
      </trkpt>
      <trkpt lat="44.15825" lon="5.04917">
        <ele>331.31</ele>
        <time>2017-12-03T10:45:13Z</time>
      </trkpt>
      <trkpt lat="44.15826" lon="5.04922">
        <ele>328.43</ele>
        <time>2017-12-03T10:45:23Z</time>
      </trkpt>
      <trkpt lat="44.15822" lon="5.04929">
        <ele>326.02</ele>
        <time>2017-12-03T10:45:34Z</time>
      </trkpt>
      <trkpt lat="44.15822" lon="5.0493">
        <ele>325.06</ele>
        <time>2017-12-03T10:45:36Z</time>
      </trkpt>
      <trkpt lat="44.1582" lon="5.04931">
        <ele>322.18</ele>
        <time>2017-12-03T10:45:44Z</time>
      </trkpt>
      <trkpt lat="44.15814" lon="5.04934">
        <ele>318.81</ele>
        <time>2017-12-03T10:45:51Z</time>
      </trkpt>
      <trkpt lat="44.15809" lon="5.04937">
        <ele>316.41</ele>
        <time>2017-12-03T10:45:57Z</time>
      </trkpt>
      <trkpt lat="44.15805" lon="5.04941">
        <ele>313.53</ele>
        <time>2017-12-03T10:46:03Z</time>
      </trkpt>
      <trkpt lat="44.15806" lon="5.04943">
        <ele>312.09</ele>
        <time>2017-12-03T10:46:06Z</time>
      </trkpt>
      <trkpt lat="44.15803" lon="5.04949">
        <ele>309.2</ele>
        <time>2017-12-03T10:46:14Z</time>
      </trkpt>
      <trkpt lat="44.15803" lon="5.04956">
        <ele>305.84</ele>
        <time>2017-12-03T10:46:24Z</time>
      </trkpt>
      <trkpt lat="44.15802" lon="5.04959">
        <ele>304.39</ele>
        <time>2017-12-03T10:46:26Z</time>
      </trkpt>
      <trkpt lat="44.15797" lon="5.04963">
        <ele>300.55</ele>
        <time>2017-12-03T10:46:37Z</time>
      </trkpt>
      <trkpt lat="44.15794" lon="5.04967">
        <ele>301.03</ele>
        <time>2017-12-03T10:46:43Z</time>
      </trkpt>
      <trkpt lat="44.1579" lon="5.0497">
        <ele>299.11</ele>
        <time>2017-12-03T10:46:47Z</time>
      </trkpt>
      <trkpt lat="44.15782" lon="5.04973">
        <ele>296.7</ele>
        <time>2017-12-03T10:46:59Z</time>
      </trkpt>
      <trkpt lat="44.1578" lon="5.04975">
        <ele>295.74</ele>
        <time>2017-12-03T10:47:06Z</time>
      </trkpt>
      <trkpt lat="44.15774" lon="5.04976">
        <ele>292.38</ele>
        <time>2017-12-03T10:47:15Z</time>
      </trkpt>
      <trkpt lat="44.1577" lon="5.04979">
        <ele>289.49</ele>
        <time>2017-12-03T10:47:22Z</time>
      </trkpt>
      <trkpt lat="44.15767" lon="5.04981">
        <ele>288.05</ele>
        <time>2017-12-03T10:47:25Z</time>
      </trkpt>
      <trkpt lat="44.15765" lon="5.04982">
        <ele>285.65</ele>
        <time>2017-12-03T10:47:28Z</time>
      </trkpt>
      <trkpt lat="44.15755" lon="5.04982">
        <ele>283.73</ele>
        <time>2017-12-03T10:47:41Z</time>
      </trkpt>
      <trkpt lat="44.15748" lon="5.04984">
        <ele>280.84</ele>
        <time>2017-12-03T10:47:53Z</time>
      </trkpt>
      <trkpt lat="44.15742" lon="5.0499">
        <ele>277.96</ele>
        <time>2017-12-03T10:48:03Z</time>
      </trkpt>
      <trkpt lat="44.15739" lon="5.04991">
        <ele>276.52</ele>
        <time>2017-12-03T10:48:06Z</time>
      </trkpt>
      <trkpt lat="44.1573" lon="5.04999">
        <ele>273.15</ele>
        <time>2017-12-03T10:48:17Z</time>
      </trkpt>
      <trkpt lat="44.15728" lon="5.05">
        <ele>272.19</ele>
        <time>2017-12-03T10:48:19Z</time>
      </trkpt>
      <trkpt lat="44.15727" lon="5.05001">
        <ele>272.67</ele>
        <time>2017-12-03T10:48:29Z</time>
      </trkpt>
      <trkpt lat="44.15729" lon="5.05001">
        <ele>272.67</ele>
        <time>2017-12-03T10:48:39Z</time>
      </trkpt>
      <trkpt lat="44.15728" lon="5.05001">
        <ele>272.67</ele>
        <time>2017-12-03T10:48:50Z</time>
      </trkpt>
      <trkpt lat="44.15728" lon="5.05001">
        <ele>272.19</ele>
        <time>2017-12-03T10:48:57Z</time>
      </trkpt>
      <trkpt lat="44.1572" lon="5.04989">
        <ele>274.11</ele>
        <time>2017-12-03T10:49:09Z</time>
      </trkpt>
      <trkpt lat="44.15708" lon="5.04975">
        <ele>275.07</ele>
        <time>2017-12-03T10:49:21Z</time>
      </trkpt>
      <trkpt lat="44.15707" lon="5.04973">
        <ele>275.07</ele>
        <time>2017-12-03T10:49:22Z</time>
      </trkpt>
      <trkpt lat="44.15704" lon="5.04969">
        <ele>275.56</ele>
        <time>2017-12-03T10:49:26Z</time>
      </trkpt>
      <trkpt lat="44.15695" lon="5.04954">
        <ele>277.96</ele>
        <time>2017-12-03T10:49:38Z</time>
      </trkpt>
      <trkpt lat="44.15693" lon="5.04951">
        <ele>277.96</ele>
        <time>2017-12-03T10:49:40Z</time>
      </trkpt>
      <trkpt lat="44.15689" lon="5.04946">
        <ele>278.92</ele>
        <time>2017-12-03T10:49:44Z</time>
      </trkpt>
      <trkpt lat="44.15682" lon="5.04938">
        <ele>280.84</ele>
        <time>2017-12-03T10:49:52Z</time>
      </trkpt>
      <trkpt lat="44.15673" lon="5.04928">
        <ele>282.28</ele>
        <time>2017-12-03T10:50:02Z</time>
      </trkpt>
      <trkpt lat="44.15668" lon="5.04923">
        <ele>282.77</ele>
        <time>2017-12-03T10:50:07Z</time>
      </trkpt>
      <trkpt lat="44.15657" lon="5.04909">
        <ele>282.77</ele>
        <time>2017-12-03T10:50:19Z</time>
      </trkpt>
      <trkpt lat="44.15653" lon="5.04906">
        <ele>283.73</ele>
        <time>2017-12-03T10:50:23Z</time>
      </trkpt>
      <trkpt lat="44.15643" lon="5.04892">
        <ele>285.17</ele>
        <time>2017-12-03T10:50:33Z</time>
      </trkpt>
      <trkpt lat="44.15637" lon="5.04882">
        <ele>285.17</ele>
        <time>2017-12-03T10:50:41Z</time>
      </trkpt>
      <trkpt lat="44.15634" lon="5.04875">
        <ele>286.13</ele>
        <time>2017-12-03T10:50:47Z</time>
      </trkpt>
      <trkpt lat="44.15625" lon="5.04865">
        <ele>285.65</ele>
        <time>2017-12-03T10:50:59Z</time>
      </trkpt>
      <trkpt lat="44.15627" lon="5.04856">
        <ele>284.69</ele>
        <time>2017-12-03T10:51:07Z</time>
      </trkpt>
      <trkpt lat="44.15631" lon="5.04843">
        <ele>283.25</ele>
        <time>2017-12-03T10:51:14Z</time>
      </trkpt>
      <trkpt lat="44.15625" lon="5.04838">
        <ele>280.36</ele>
        <time>2017-12-03T10:51:25Z</time>
      </trkpt>
      <trkpt lat="44.15624" lon="5.04838">
        <ele>277.48</ele>
        <time>2017-12-03T10:51:35Z</time>
      </trkpt>
      <trkpt lat="44.15624" lon="5.04838">
        <ele>277.96</ele>
        <time>2017-12-03T10:51:54Z</time>
      </trkpt>
      <trkpt lat="44.15624" lon="5.04838">
        <ele>278.92</ele>
        <time>2017-12-03T10:52:12Z</time>
      </trkpt>
      <trkpt lat="44.15623" lon="5.04838">
        <ele>279.4</ele>
        <time>2017-12-03T10:52:33Z</time>
      </trkpt>
      <trkpt lat="44.15623" lon="5.04838">
        <ele>279.88</ele>
        <time>2017-12-03T10:52:54Z</time>
      </trkpt>
      <trkpt lat="44.15624" lon="5.04838">
        <ele>282.28</ele>
        <time>2017-12-03T10:53:14Z</time>
      </trkpt>
      <trkpt lat="44.15626" lon="5.04837">
        <ele>283.73</ele>
        <time>2017-12-03T10:53:20Z</time>
      </trkpt>
      <trkpt lat="44.15629" lon="5.04845">
        <ele>284.69</ele>
        <time>2017-12-03T10:53:30Z</time>
      </trkpt>
      <trkpt lat="44.15629" lon="5.04845">
        <ele>283.73</ele>
        <time>2017-12-03T10:53:33Z</time>
      </trkpt>
      <trkpt lat="44.15628" lon="5.0485">
        <ele>284.21</ele>
        <time>2017-12-03T10:53:45Z</time>
      </trkpt>
      <trkpt lat="44.15628" lon="5.0485">
        <ele>286.61</ele>
        <time>2017-12-03T10:53:49Z</time>
      </trkpt>
      <trkpt lat="44.1563" lon="5.04847">
        <ele>285.17</ele>
        <time>2017-12-03T10:53:52Z</time>
      </trkpt>
      <trkpt lat="44.15629" lon="5.04848">
        <ele>284.21</ele>
        <time>2017-12-03T10:54:04Z</time>
      </trkpt>
      <trkpt lat="44.15628" lon="5.04856">
        <ele>285.65</ele>
        <time>2017-12-03T10:54:10Z</time>
      </trkpt>
      <trkpt lat="44.15629" lon="5.04866">
        <ele>285.65</ele>
        <time>2017-12-03T10:54:16Z</time>
      </trkpt>
      <trkpt lat="44.15631" lon="5.04868">
        <ele>284.69</ele>
        <time>2017-12-03T10:54:19Z</time>
      </trkpt>
      <trkpt lat="44.15639" lon="5.04873">
        <ele>285.65</ele>
        <time>2017-12-03T10:54:26Z</time>
      </trkpt>
      <trkpt lat="44.15644" lon="5.04874">
        <ele>286.61</ele>
        <time>2017-12-03T10:54:31Z</time>
      </trkpt>
      <trkpt lat="44.15648" lon="5.04873">
        <ele>287.09</ele>
        <time>2017-12-03T10:54:43Z</time>
      </trkpt>
      <trkpt lat="44.15648" lon="5.04873">
        <ele>287.57</ele>
        <time>2017-12-03T10:55:05Z</time>
      </trkpt>
      <trkpt lat="44.15651" lon="5.04864">
        <ele>288.05</ele>
        <time>2017-12-03T10:55:11Z</time>
      </trkpt>
      <trkpt lat="44.15657" lon="5.0486">
        <ele>289.49</ele>
        <time>2017-12-03T10:55:17Z</time>
      </trkpt>
      <trkpt lat="44.15661" lon="5.04856">
        <ele>289.49</ele>
        <time>2017-12-03T10:55:22Z</time>
      </trkpt>
      <trkpt lat="44.15663" lon="5.04857">
        <ele>290.46</ele>
        <time>2017-12-03T10:55:25Z</time>
      </trkpt>
      <trkpt lat="44.15664" lon="5.04865">
        <ele>293.34</ele>
        <time>2017-12-03T10:55:33Z</time>
      </trkpt>
      <trkpt lat="44.15671" lon="5.04874">
        <ele>295.26</ele>
        <time>2017-12-03T10:55:42Z</time>
      </trkpt>
      <trkpt lat="44.15675" lon="5.04883">
        <ele>297.67</ele>
        <time>2017-12-03T10:55:50Z</time>
      </trkpt>
      <trkpt lat="44.1568" lon="5.04882">
        <ele>298.63</ele>
        <time>2017-12-03T10:55:54Z</time>
      </trkpt>
      <trkpt lat="44.15681" lon="5.04874">
        <ele>299.59</ele>
        <time>2017-12-03T10:55:59Z</time>
      </trkpt>
      <trkpt lat="44.15682" lon="5.04865">
        <ele>300.07</ele>
        <time>2017-12-03T10:56:05Z</time>
      </trkpt>
      <trkpt lat="44.15684" lon="5.04858">
        <ele>300.55</ele>
        <time>2017-12-03T10:56:10Z</time>
      </trkpt>
      <trkpt lat="44.15686" lon="5.04853">
        <ele>302.47</ele>
        <time>2017-12-03T10:56:15Z</time>
      </trkpt>
      <trkpt lat="44.15693" lon="5.0484">
        <ele>304.88</ele>
        <time>2017-12-03T10:56:26Z</time>
      </trkpt>
      <trkpt lat="44.157" lon="5.04829">
        <ele>306.32</ele>
        <time>2017-12-03T10:56:37Z</time>
      </trkpt>
      <trkpt lat="44.15704" lon="5.04823">
        <ele>307.28</ele>
        <time>2017-12-03T10:56:42Z</time>
      </trkpt>
      <trkpt lat="44.15708" lon="5.04816">
        <ele>311.6</ele>
        <time>2017-12-03T10:56:47Z</time>
      </trkpt>
      <trkpt lat="44.15714" lon="5.04806">
        <ele>314.49</ele>
        <time>2017-12-03T10:56:57Z</time>
      </trkpt>
      <trkpt lat="44.15713" lon="5.04805">
        <ele>314.49</ele>
        <time>2017-12-03T10:57:04Z</time>
      </trkpt>
      <trkpt lat="44.15713" lon="5.04819">
        <ele>315.93</ele>
        <time>2017-12-03T10:57:15Z</time>
      </trkpt>
      <trkpt lat="44.15712" lon="5.04828">
        <ele>317.85</ele>
        <time>2017-12-03T10:57:21Z</time>
      </trkpt>
      <trkpt lat="44.15713" lon="5.04842">
        <ele>320.74</ele>
        <time>2017-12-03T10:57:32Z</time>
      </trkpt>
      <trkpt lat="44.15713" lon="5.04844">
        <ele>321.22</ele>
        <time>2017-12-03T10:57:45Z</time>
      </trkpt>
      <trkpt lat="44.15714" lon="5.04848">
        <ele>321.7</ele>
        <time>2017-12-03T10:58:02Z</time>
      </trkpt>
      <trkpt lat="44.15715" lon="5.04851">
        <ele>322.66</ele>
        <time>2017-12-03T10:58:20Z</time>
      </trkpt>
      <trkpt lat="44.15715" lon="5.04857">
        <ele>323.62</ele>
        <time>2017-12-03T10:58:31Z</time>
      </trkpt>
      <trkpt lat="44.15714" lon="5.04861">
        <ele>323.14</ele>
        <time>2017-12-03T10:58:42Z</time>
      </trkpt>
      <trkpt lat="44.15713" lon="5.04862">
        <ele>323.62</ele>
        <time>2017-12-03T10:59:07Z</time>
      </trkpt>
      <trkpt lat="44.15715" lon="5.04861">
        <ele>323.14</ele>
        <time>2017-12-03T10:59:15Z</time>
      </trkpt>
      <trkpt lat="44.15713" lon="5.04863">
        <ele>323.62</ele>
        <time>2017-12-03T10:59:25Z</time>
      </trkpt>
      <trkpt lat="44.15713" lon="5.0486">
        <ele>323.62</ele>
        <time>2017-12-03T10:59:39Z</time>
      </trkpt>
      <trkpt lat="44.15713" lon="5.0486">
        <ele>326.02</ele>
        <time>2017-12-03T10:59:55Z</time>
      </trkpt>
      <trkpt lat="44.15713" lon="5.0486">
        <ele>326.5</ele>
        <time>2017-12-03T11:00:03Z</time>
      </trkpt>
      <trkpt lat="44.15713" lon="5.04864">
        <ele>324.58</ele>
        <time>2017-12-03T11:00:13Z</time>
      </trkpt>
      <trkpt lat="44.15713" lon="5.04863">
        <ele>322.66</ele>
        <time>2017-12-03T11:00:19Z</time>
      </trkpt>
      <trkpt lat="44.15724" lon="5.04837">
        <ele>324.58</ele>
        <time>2017-12-03T11:20:39Z</time>
      </trkpt>
      <trkpt lat="44.15721" lon="5.04839">
        <ele>324.1</ele>
        <time>2017-12-03T11:20:40Z</time>
      </trkpt>
      <trkpt lat="44.15712" lon="5.04868">
        <ele>325.06</ele>
        <time>2017-12-03T11:20:51Z</time>
      </trkpt>
      <trkpt lat="44.15709" lon="5.04866">
        <ele>325.54</ele>
        <time>2017-12-03T11:29:49Z</time>
      </trkpt>
      <trkpt lat="44.15706" lon="5.04865">
        <ele>323.62</ele>
        <time>2017-12-03T11:30:09Z</time>
      </trkpt>
      <trkpt lat="44.15706" lon="5.04864">
        <ele>326.99</ele>
        <time>2017-12-03T11:30:11Z</time>
      </trkpt>
      <trkpt lat="44.15706" lon="5.04863">
        <ele>326.5</ele>
        <time>2017-12-03T11:30:20Z</time>
      </trkpt>
      <trkpt lat="44.15712" lon="5.04855">
        <ele>326.5</ele>
        <time>2017-12-03T11:30:32Z</time>
      </trkpt>
      <trkpt lat="44.15713" lon="5.04854">
        <ele>326.5</ele>
        <time>2017-12-03T11:30:34Z</time>
      </trkpt>
      <trkpt lat="44.15714" lon="5.04849">
        <ele>325.54</ele>
        <time>2017-12-03T11:30:39Z</time>
      </trkpt>
      <trkpt lat="44.15714" lon="5.04833">
        <ele>322.66</ele>
        <time>2017-12-03T11:30:54Z</time>
      </trkpt>
      <trkpt lat="44.15713" lon="5.04828">
        <ele>321.7</ele>
        <time>2017-12-03T11:30:59Z</time>
      </trkpt>
      <trkpt lat="44.15714" lon="5.04822">
        <ele>319.78</ele>
        <time>2017-12-03T11:31:04Z</time>
      </trkpt>
      <trkpt lat="44.15714" lon="5.04811">
        <ele>318.33</ele>
        <time>2017-12-03T11:31:11Z</time>
      </trkpt>
      <trkpt lat="44.15708" lon="5.04808">
        <ele>314.97</ele>
        <time>2017-12-03T11:31:22Z</time>
      </trkpt>
      <trkpt lat="44.15705" lon="5.04813">
        <ele>313.53</ele>
        <time>2017-12-03T11:31:28Z</time>
      </trkpt>
      <trkpt lat="44.15698" lon="5.04824">
        <ele>311.12</ele>
        <time>2017-12-03T11:31:36Z</time>
      </trkpt>
      <trkpt lat="44.15694" lon="5.04831">
        <ele>309.68</ele>
        <time>2017-12-03T11:31:43Z</time>
      </trkpt>
      <trkpt lat="44.15692" lon="5.04835">
        <ele>309.2</ele>
        <time>2017-12-03T11:31:46Z</time>
      </trkpt>
      <trkpt lat="44.1569" lon="5.04839">
        <ele>308.24</ele>
        <time>2017-12-03T11:31:49Z</time>
      </trkpt>
      <trkpt lat="44.15685" lon="5.04853">
        <ele>305.36</ele>
        <time>2017-12-03T11:31:58Z</time>
      </trkpt>
      <trkpt lat="44.15681" lon="5.04864">
        <ele>304.88</ele>
        <time>2017-12-03T11:32:05Z</time>
      </trkpt>
      <trkpt lat="44.15681" lon="5.0487">
        <ele>303.43</ele>
        <time>2017-12-03T11:32:08Z</time>
      </trkpt>
      <trkpt lat="44.15682" lon="5.04875">
        <ele>303.43</ele>
        <time>2017-12-03T11:32:11Z</time>
      </trkpt>
      <trkpt lat="44.15682" lon="5.04882">
        <ele>301.51</ele>
        <time>2017-12-03T11:32:16Z</time>
      </trkpt>
      <trkpt lat="44.15681" lon="5.04884">
        <ele>301.51</ele>
        <time>2017-12-03T11:32:24Z</time>
      </trkpt>
      <trkpt lat="44.15679" lon="5.04884">
        <ele>301.51</ele>
        <time>2017-12-03T11:32:27Z</time>
      </trkpt>
      <trkpt lat="44.15669" lon="5.04872">
        <ele>298.15</ele>
        <time>2017-12-03T11:32:37Z</time>
      </trkpt>
      <trkpt lat="44.15667" lon="5.04867">
        <ele>296.7</ele>
        <time>2017-12-03T11:32:40Z</time>
      </trkpt>
      <trkpt lat="44.15664" lon="5.04857">
        <ele>295.74</ele>
        <time>2017-12-03T11:32:46Z</time>
      </trkpt>
      <trkpt lat="44.15654" lon="5.04856">
        <ele>292.38</ele>
        <time>2017-12-03T11:32:56Z</time>
      </trkpt>
      <trkpt lat="44.15653" lon="5.04857">
        <ele>292.38</ele>
        <time>2017-12-03T11:32:57Z</time>
      </trkpt>
      <trkpt lat="44.15652" lon="5.04858">
        <ele>291.9</ele>
        <time>2017-12-03T11:32:58Z</time>
      </trkpt>
      <trkpt lat="44.15645" lon="5.04872">
        <ele>290.46</ele>
        <time>2017-12-03T11:33:09Z</time>
      </trkpt>
      <trkpt lat="44.15643" lon="5.04873">
        <ele>290.46</ele>
        <time>2017-12-03T11:33:11Z</time>
      </trkpt>
      <trkpt lat="44.15642" lon="5.04874">
        <ele>289.49</ele>
        <time>2017-12-03T11:33:13Z</time>
      </trkpt>
      <trkpt lat="44.15639" lon="5.04881">
        <ele>286.61</ele>
        <time>2017-12-03T11:33:18Z</time>
      </trkpt>
      <trkpt lat="44.15637" lon="5.04887">
        <ele>284.21</ele>
        <time>2017-12-03T11:33:24Z</time>
      </trkpt>
      <trkpt lat="44.15635" lon="5.04893">
        <ele>283.73</ele>
        <time>2017-12-03T11:33:34Z</time>
      </trkpt>
      <trkpt lat="44.15634" lon="5.04897">
        <ele>283.73</ele>
        <time>2017-12-03T11:33:37Z</time>
      </trkpt>
      <trkpt lat="44.15636" lon="5.04903">
        <ele>283.73</ele>
        <time>2017-12-03T11:33:40Z</time>
      </trkpt>
      <trkpt lat="44.15637" lon="5.04906">
        <ele>284.21</ele>
        <time>2017-12-03T11:33:42Z</time>
      </trkpt>
      <trkpt lat="44.15638" lon="5.04911">
        <ele>282.28</ele>
        <time>2017-12-03T11:33:45Z</time>
      </trkpt>
      <trkpt lat="44.15639" lon="5.04912">
        <ele>282.28</ele>
        <time>2017-12-03T11:33:46Z</time>
      </trkpt>
      <trkpt lat="44.1564" lon="5.04915">
        <ele>281.32</ele>
        <time>2017-12-03T11:33:51Z</time>
      </trkpt>
      <trkpt lat="44.15642" lon="5.04919">
        <ele>281.32</ele>
        <time>2017-12-03T11:33:55Z</time>
      </trkpt>
      <trkpt lat="44.15651" lon="5.04928">
        <ele>278.44</ele>
        <time>2017-12-03T11:34:05Z</time>
      </trkpt>
      <trkpt lat="44.15651" lon="5.04929">
        <ele>277.96</ele>
        <time>2017-12-03T11:34:06Z</time>
      </trkpt>
      <trkpt lat="44.15655" lon="5.04943">
        <ele>275.56</ele>
        <time>2017-12-03T11:34:17Z</time>
      </trkpt>
      <trkpt lat="44.15655" lon="5.04944">
        <ele>275.07</ele>
        <time>2017-12-03T11:34:18Z</time>
      </trkpt>
      <trkpt lat="44.1566" lon="5.04956">
        <ele>272.67</ele>
        <time>2017-12-03T11:34:30Z</time>
      </trkpt>
      <trkpt lat="44.15663" lon="5.04964">
        <ele>269.79</ele>
        <time>2017-12-03T11:34:38Z</time>
      </trkpt>
      <trkpt lat="44.15668" lon="5.04977">
        <ele>266.42</ele>
        <time>2017-12-03T11:34:46Z</time>
      </trkpt>
      <trkpt lat="44.15668" lon="5.04978">
        <ele>265.94</ele>
        <time>2017-12-03T11:34:47Z</time>
      </trkpt>
      <trkpt lat="44.15673" lon="5.0499">
        <ele>264.5</ele>
        <time>2017-12-03T11:34:58Z</time>
      </trkpt>
      <trkpt lat="44.15674" lon="5.04997">
        <ele>263.06</ele>
        <time>2017-12-03T11:35:03Z</time>
      </trkpt>
      <trkpt lat="44.15666" lon="5.05004">
        <ele>260.65</ele>
        <time>2017-12-03T11:35:16Z</time>
      </trkpt>
      <trkpt lat="44.1566" lon="5.05004">
        <ele>258.73</ele>
        <time>2017-12-03T11:35:21Z</time>
      </trkpt>
      <trkpt lat="44.15645" lon="5.05">
        <ele>257.29</ele>
        <time>2017-12-03T11:35:29Z</time>
      </trkpt>
      <trkpt lat="44.15635" lon="5.04998">
        <ele>254.41</ele>
        <time>2017-12-03T11:35:35Z</time>
      </trkpt>
      <trkpt lat="44.15632" lon="5.04995">
        <ele>252.96</ele>
        <time>2017-12-03T11:35:38Z</time>
      </trkpt>
      <trkpt lat="44.15629" lon="5.04991">
        <ele>252</ele>
        <time>2017-12-03T11:35:43Z</time>
      </trkpt>
      <trkpt lat="44.15623" lon="5.04991">
        <ele>251.52</ele>
        <time>2017-12-03T11:35:47Z</time>
      </trkpt>
      <trkpt lat="44.15616" lon="5.04988">
        <ele>247.68</ele>
        <time>2017-12-03T11:35:56Z</time>
      </trkpt>
      <trkpt lat="44.15612" lon="5.0499">
        <ele>244.79</ele>
        <time>2017-12-03T11:36:05Z</time>
      </trkpt>
      <trkpt lat="44.15608" lon="5.04998">
        <ele>242.87</ele>
        <time>2017-12-03T11:36:14Z</time>
      </trkpt>
      <trkpt lat="44.15603" lon="5.04999">
        <ele>239.02</ele>
        <time>2017-12-03T11:36:19Z</time>
      </trkpt>
      <trkpt lat="44.15602" lon="5.05">
        <ele>238.54</ele>
        <time>2017-12-03T11:36:21Z</time>
      </trkpt>
      <trkpt lat="44.15598" lon="5.05001">
        <ele>237.1</ele>
        <time>2017-12-03T11:36:27Z</time>
      </trkpt>
      <trkpt lat="44.15592" lon="5.05001">
        <ele>233.74</ele>
        <time>2017-12-03T11:36:35Z</time>
      </trkpt>
      <trkpt lat="44.15592" lon="5.05001">
        <ele>233.74</ele>
        <time>2017-12-03T11:36:36Z</time>
      </trkpt>
      <trkpt lat="44.15587" lon="5.05005">
        <ele>231.33</ele>
        <time>2017-12-03T11:36:41Z</time>
      </trkpt>
      <trkpt lat="44.15585" lon="5.05007">
        <ele>228.93</ele>
        <time>2017-12-03T11:36:47Z</time>
      </trkpt>
      <trkpt lat="44.15579" lon="5.05">
        <ele>227.49</ele>
        <time>2017-12-03T11:36:54Z</time>
      </trkpt>
      <trkpt lat="44.1557" lon="5.05006">
        <ele>224.61</ele>
        <time>2017-12-03T11:37:02Z</time>
      </trkpt>
      <trkpt lat="44.15569" lon="5.0501">
        <ele>223.64</ele>
        <time>2017-12-03T11:37:04Z</time>
      </trkpt>
      <trkpt lat="44.15564" lon="5.05007">
        <ele>220.28</ele>
        <time>2017-12-03T11:37:14Z</time>
      </trkpt>
      <trkpt lat="44.15565" lon="5.05004">
        <ele>218.84</ele>
        <time>2017-12-03T11:37:17Z</time>
      </trkpt>
      <trkpt lat="44.15563" lon="5.04993">
        <ele>216.43</ele>
        <time>2017-12-03T11:37:29Z</time>
      </trkpt>
      <trkpt lat="44.15562" lon="5.04991">
        <ele>215.95</ele>
        <time>2017-12-03T11:37:31Z</time>
      </trkpt>
      <trkpt lat="44.15557" lon="5.04982">
        <ele>212.59</ele>
        <time>2017-12-03T11:37:40Z</time>
      </trkpt>
      <trkpt lat="44.15552" lon="5.04976">
        <ele>209.22</ele>
        <time>2017-12-03T11:37:51Z</time>
      </trkpt>
      <trkpt lat="44.15551" lon="5.0497">
        <ele>207.78</ele>
        <time>2017-12-03T11:37:56Z</time>
      </trkpt>
      <trkpt lat="44.15552" lon="5.04965">
        <ele>207.78</ele>
        <time>2017-12-03T11:37:59Z</time>
      </trkpt>
      <trkpt lat="44.1555" lon="5.04952">
        <ele>204.9</ele>
        <time>2017-12-03T11:38:11Z</time>
      </trkpt>
      <trkpt lat="44.1555" lon="5.04951">
        <ele>204.42</ele>
        <time>2017-12-03T11:38:12Z</time>
      </trkpt>
      <trkpt lat="44.1555" lon="5.04945">
        <ele>201.53</ele>
        <time>2017-12-03T11:38:25Z</time>
      </trkpt>
      <trkpt lat="44.15552" lon="5.04943">
        <ele>198.65</ele>
        <time>2017-12-03T11:38:34Z</time>
      </trkpt>
      <trkpt lat="44.15551" lon="5.04942">
        <ele>197.69</ele>
        <time>2017-12-03T11:38:42Z</time>
      </trkpt>
      <trkpt lat="44.15549" lon="5.04935">
        <ele>196.25</ele>
        <time>2017-12-03T11:38:52Z</time>
      </trkpt>
      <trkpt lat="44.15546" lon="5.04926">
        <ele>192.88</ele>
        <time>2017-12-03T11:39:02Z</time>
      </trkpt>
      <trkpt lat="44.15545" lon="5.04925">
        <ele>192.88</ele>
        <time>2017-12-03T11:39:05Z</time>
      </trkpt>
      <trkpt lat="44.15545" lon="5.04915">
        <ele>189.52</ele>
        <time>2017-12-03T11:39:13Z</time>
      </trkpt>
      <trkpt lat="44.15544" lon="5.04908">
        <ele>186.63</ele>
        <time>2017-12-03T11:39:18Z</time>
      </trkpt>
      <trkpt lat="44.15545" lon="5.04907">
        <ele>186.15</ele>
        <time>2017-12-03T11:39:19Z</time>
      </trkpt>
      <trkpt lat="44.15541" lon="5.04902">
        <ele>184.71</ele>
        <time>2017-12-03T11:39:23Z</time>
      </trkpt>
      <trkpt lat="44.15538" lon="5.04896">
        <ele>184.23</ele>
        <time>2017-12-03T11:39:30Z</time>
      </trkpt>
      <trkpt lat="44.15538" lon="5.04894">
        <ele>184.23</ele>
        <time>2017-12-03T11:39:33Z</time>
      </trkpt>
      <trkpt lat="44.15538" lon="5.0489">
        <ele>184.71</ele>
        <time>2017-12-03T11:39:37Z</time>
      </trkpt>
      <trkpt lat="44.15537" lon="5.04888">
        <ele>186.63</ele>
        <time>2017-12-03T11:39:51Z</time>
      </trkpt>
      <trkpt lat="44.15537" lon="5.04878">
        <ele>189.04</ele>
        <time>2017-12-03T11:40:05Z</time>
      </trkpt>
      <trkpt lat="44.15536" lon="5.0487">
        <ele>190.96</ele>
        <time>2017-12-03T11:40:17Z</time>
      </trkpt>
      <trkpt lat="44.15535" lon="5.04866">
        <ele>192.88</ele>
        <time>2017-12-03T11:40:28Z</time>
      </trkpt>
      <trkpt lat="44.15536" lon="5.04865">
        <ele>196.25</ele>
        <time>2017-12-03T11:40:37Z</time>
      </trkpt>
      <trkpt lat="44.15535" lon="5.04864">
        <ele>198.65</ele>
        <time>2017-12-03T11:40:49Z</time>
      </trkpt>
      <trkpt lat="44.15535" lon="5.04864">
        <ele>199.13</ele>
        <time>2017-12-03T11:40:52Z</time>
      </trkpt>
      <trkpt lat="44.15533" lon="5.04863">
        <ele>202.98</ele>
        <time>2017-12-03T11:41:01Z</time>
      </trkpt>
      <trkpt lat="44.15533" lon="5.04863">
        <ele>202.01</ele>
        <time>2017-12-03T11:41:02Z</time>
      </trkpt>
      <trkpt lat="44.1553" lon="5.04863">
        <ele>204.42</ele>
        <time>2017-12-03T11:41:12Z</time>
      </trkpt>
      <trkpt lat="44.1553" lon="5.04863">
        <ele>208.26</ele>
        <time>2017-12-03T11:41:23Z</time>
      </trkpt>
      <trkpt lat="44.1553" lon="5.04863">
        <ele>205.38</ele>
        <time>2017-12-03T11:41:30Z</time>
      </trkpt>
      <trkpt lat="44.15517" lon="5.04856">
        <ele>207.3</ele>
        <time>2017-12-03T11:41:43Z</time>
      </trkpt>
      <trkpt lat="44.15517" lon="5.04856">
        <ele>207.78</ele>
        <time>2017-12-03T11:41:44Z</time>
      </trkpt>
      <trkpt lat="44.15511" lon="5.04858">
        <ele>207.78</ele>
        <time>2017-12-03T11:41:49Z</time>
      </trkpt>
      <trkpt lat="44.15503" lon="5.04856">
        <ele>208.26</ele>
        <time>2017-12-03T11:41:56Z</time>
      </trkpt>
      <trkpt lat="44.15497" lon="5.04859">
        <ele>209.22</ele>
        <time>2017-12-03T11:42:04Z</time>
      </trkpt>
      <trkpt lat="44.15488" lon="5.04859">
        <ele>210.19</ele>
        <time>2017-12-03T11:42:16Z</time>
      </trkpt>
      <trkpt lat="44.15489" lon="5.04858">
        <ele>210.19</ele>
        <time>2017-12-03T11:42:22Z</time>
      </trkpt>
      <trkpt lat="44.15489" lon="5.04857">
        <ele>212.11</ele>
        <time>2017-12-03T11:42:26Z</time>
      </trkpt>
      <trkpt lat="44.1549" lon="5.04857">
        <ele>213.07</ele>
        <time>2017-12-03T11:42:28Z</time>
      </trkpt>
      <trkpt lat="44.1549" lon="5.04855">
        <ele>216.91</ele>
        <time>2017-12-03T11:42:37Z</time>
      </trkpt>
      <trkpt lat="44.1549" lon="5.04855">
        <ele>216.91</ele>
        <time>2017-12-03T11:42:52Z</time>
      </trkpt>
      <trkpt lat="44.1549" lon="5.04855">
        <ele>219.8</ele>
        <time>2017-12-03T11:42:55Z</time>
      </trkpt>
      <trkpt lat="44.1549" lon="5.04855">
        <ele>220.76</ele>
        <time>2017-12-03T11:42:57Z</time>
      </trkpt>
      <trkpt lat="44.1549" lon="5.04855">
        <ele>219.8</ele>
        <time>2017-12-03T11:43:04Z</time>
      </trkpt>
      <trkpt lat="44.15485" lon="5.04852">
        <ele>224.61</ele>
        <time>2017-12-03T11:43:11Z</time>
      </trkpt>
      <trkpt lat="44.15485" lon="5.04852">
        <ele>227.97</ele>
        <time>2017-12-03T11:43:16Z</time>
      </trkpt>
      <trkpt lat="44.15485" lon="5.04852">
        <ele>227.97</ele>
        <time>2017-12-03T11:43:17Z</time>
      </trkpt>
      <trkpt lat="44.15485" lon="5.04852">
        <ele>229.89</ele>
        <time>2017-12-03T11:43:34Z</time>
      </trkpt>
      <trkpt lat="44.15485" lon="5.04852">
        <ele>234.22</ele>
        <time>2017-12-03T11:43:36Z</time>
      </trkpt>
      <trkpt lat="44.15485" lon="5.04852">
        <ele>230.85</ele>
        <time>2017-12-03T11:43:39Z</time>
      </trkpt>
      <trkpt lat="44.15485" lon="5.04831">
        <ele>233.26</ele>
        <time>2017-12-03T11:43:48Z</time>
      </trkpt>
      <trkpt lat="44.15488" lon="5.04828">
        <ele>236.14</ele>
        <time>2017-12-03T11:43:52Z</time>
      </trkpt>
      <trkpt lat="44.1549" lon="5.04823">
        <ele>236.14</ele>
        <time>2017-12-03T11:43:57Z</time>
      </trkpt>
      <trkpt lat="44.15491" lon="5.0482">
        <ele>235.18</ele>
        <time>2017-12-03T11:44:01Z</time>
      </trkpt>
      <trkpt lat="44.15496" lon="5.04814">
        <ele>235.66</ele>
        <time>2017-12-03T11:44:08Z</time>
      </trkpt>
      <trkpt lat="44.15499" lon="5.04811">
        <ele>234.7</ele>
        <time>2017-12-03T11:44:11Z</time>
      </trkpt>
      <trkpt lat="44.15502" lon="5.04807">
        <ele>237.58</ele>
        <time>2017-12-03T11:44:19Z</time>
      </trkpt>
      <trkpt lat="44.15502" lon="5.04807">
        <ele>238.06</ele>
        <time>2017-12-03T11:44:34Z</time>
      </trkpt>
      <trkpt lat="44.15502" lon="5.04807">
        <ele>237.58</ele>
        <time>2017-12-03T11:44:43Z</time>
      </trkpt>
      <trkpt lat="44.15502" lon="5.04807">
        <ele>240.95</ele>
        <time>2017-12-03T11:44:45Z</time>
      </trkpt>
      <trkpt lat="44.15502" lon="5.04807">
        <ele>237.1</ele>
        <time>2017-12-03T11:44:50Z</time>
      </trkpt>
      <trkpt lat="44.15502" lon="5.04807">
        <ele>236.14</ele>
        <time>2017-12-03T11:44:52Z</time>
      </trkpt>
      <trkpt lat="44.15502" lon="5.04807">
        <ele>239.51</ele>
        <time>2017-12-03T11:44:55Z</time>
      </trkpt>
      <trkpt lat="44.15502" lon="5.04807">
        <ele>238.54</ele>
        <time>2017-12-03T11:44:56Z</time>
      </trkpt>
      <trkpt lat="44.15502" lon="5.04807">
        <ele>236.62</ele>
        <time>2017-12-03T11:45:02Z</time>
      </trkpt>
      <trkpt lat="44.15502" lon="5.04807">
        <ele>240.47</ele>
        <time>2017-12-03T11:45:12Z</time>
      </trkpt>
      <trkpt lat="44.15502" lon="5.04807">
        <ele>240.47</ele>
        <time>2017-12-03T11:45:13Z</time>
      </trkpt>
      <trkpt lat="44.15502" lon="5.04807">
        <ele>244.31</ele>
        <time>2017-12-03T11:45:21Z</time>
      </trkpt>
      <trkpt lat="44.15502" lon="5.04807">
        <ele>244.31</ele>
        <time>2017-12-03T11:45:27Z</time>
      </trkpt>
      <trkpt lat="44.15502" lon="5.04807">
        <ele>242.39</ele>
        <time>2017-12-03T11:45:30Z</time>
      </trkpt>
      <trkpt lat="44.15499" lon="5.04801">
        <ele>242.39</ele>
        <time>2017-12-03T11:45:43Z</time>
      </trkpt>
      <trkpt lat="44.15499" lon="5.04801">
        <ele>245.27</ele>
        <time>2017-12-03T11:46:03Z</time>
      </trkpt>
      <trkpt lat="44.15499" lon="5.04801">
        <ele>246.23</ele>
        <time>2017-12-03T11:46:08Z</time>
      </trkpt>
      <trkpt lat="44.15498" lon="5.048">
        <ele>245.27</ele>
        <time>2017-12-03T11:46:23Z</time>
      </trkpt>
      <trkpt lat="44.15498" lon="5.04793">
        <ele>247.68</ele>
        <time>2017-12-03T11:46:31Z</time>
      </trkpt>
      <trkpt lat="44.15498" lon="5.04792">
        <ele>247.68</ele>
        <time>2017-12-03T11:46:32Z</time>
      </trkpt>
      <trkpt lat="44.15497" lon="5.04787">
        <ele>251.04</ele>
        <time>2017-12-03T11:46:43Z</time>
      </trkpt>
      <trkpt lat="44.15481" lon="5.04795">
        <ele>250.08</ele>
        <time>2017-12-03T11:46:56Z</time>
      </trkpt>
      <trkpt lat="44.15468" lon="5.04803">
        <ele>253.93</ele>
        <time>2017-12-03T11:46:59Z</time>
      </trkpt>
      <trkpt lat="44.15466" lon="5.04802">
        <ele>254.89</ele>
        <time>2017-12-03T11:47:01Z</time>
      </trkpt>
      <trkpt lat="44.15465" lon="5.04802">
        <ele>254.41</ele>
        <time>2017-12-03T11:47:02Z</time>
      </trkpt>
      <trkpt lat="44.15458" lon="5.04801">
        <ele>255.37</ele>
        <time>2017-12-03T11:47:13Z</time>
      </trkpt>
      <trkpt lat="44.15457" lon="5.04801">
        <ele>257.29</ele>
        <time>2017-12-03T11:47:16Z</time>
      </trkpt>
      <trkpt lat="44.15456" lon="5.04803">
        <ele>259.69</ele>
        <time>2017-12-03T11:47:21Z</time>
      </trkpt>
      <trkpt lat="44.15455" lon="5.04802">
        <ele>256.33</ele>
        <time>2017-12-03T11:47:33Z</time>
      </trkpt>
      <trkpt lat="44.15452" lon="5.04801">
        <ele>260.65</ele>
        <time>2017-12-03T11:47:39Z</time>
      </trkpt>
      <trkpt lat="44.15452" lon="5.04799">
        <ele>257.77</ele>
        <time>2017-12-03T11:47:41Z</time>
      </trkpt>
      <trkpt lat="44.1545" lon="5.04799">
        <ele>261.62</ele>
        <time>2017-12-03T11:47:47Z</time>
      </trkpt>
      <trkpt lat="44.15449" lon="5.04796">
        <ele>263.54</ele>
        <time>2017-12-03T11:47:53Z</time>
      </trkpt>
      <trkpt lat="44.15448" lon="5.04793">
        <ele>264.5</ele>
        <time>2017-12-03T11:48:04Z</time>
      </trkpt>
      <trkpt lat="44.15448" lon="5.04787">
        <ele>262.58</ele>
        <time>2017-12-03T11:48:15Z</time>
      </trkpt>
      <trkpt lat="44.15449" lon="5.04785">
        <ele>263.54</ele>
        <time>2017-12-03T11:48:18Z</time>
      </trkpt>
      <trkpt lat="44.15449" lon="5.04782">
        <ele>266.42</ele>
        <time>2017-12-03T11:48:20Z</time>
      </trkpt>
      <trkpt lat="44.1545" lon="5.04782">
        <ele>268.83</ele>
        <time>2017-12-03T11:48:23Z</time>
      </trkpt>
      <trkpt lat="44.15451" lon="5.0478">
        <ele>268.83</ele>
        <time>2017-12-03T11:48:27Z</time>
      </trkpt>
      <trkpt lat="44.15442" lon="5.04777">
        <ele>267.38</ele>
        <time>2017-12-03T11:48:39Z</time>
      </trkpt>
      <trkpt lat="44.15439" lon="5.04779">
        <ele>268.83</ele>
        <time>2017-12-03T11:48:42Z</time>
      </trkpt>
      <trkpt lat="44.15436" lon="5.0478">
        <ele>266.9</ele>
        <time>2017-12-03T11:48:47Z</time>
      </trkpt>
      <trkpt lat="44.15433" lon="5.04781">
        <ele>262.1</ele>
        <time>2017-12-03T11:48:50Z</time>
      </trkpt>
      <trkpt lat="44.15433" lon="5.04779">
        <ele>265.46</ele>
        <time>2017-12-03T11:48:53Z</time>
      </trkpt>
      <trkpt lat="44.15433" lon="5.04778">
        <ele>267.86</ele>
        <time>2017-12-03T11:48:54Z</time>
      </trkpt>
      <trkpt lat="44.15432" lon="5.04777">
        <ele>268.35</ele>
        <time>2017-12-03T11:48:58Z</time>
      </trkpt>
      <trkpt lat="44.15432" lon="5.04776">
        <ele>264.5</ele>
        <time>2017-12-03T11:49:04Z</time>
      </trkpt>
      <trkpt lat="44.15431" lon="5.04774">
        <ele>268.35</ele>
        <time>2017-12-03T11:49:06Z</time>
      </trkpt>
      <trkpt lat="44.15426" lon="5.04768">
        <ele>270.75</ele>
        <time>2017-12-03T11:49:15Z</time>
      </trkpt>
      <trkpt lat="44.15423" lon="5.04763">
        <ele>274.59</ele>
        <time>2017-12-03T11:49:20Z</time>
      </trkpt>
      <trkpt lat="44.15419" lon="5.04759">
        <ele>269.31</ele>
        <time>2017-12-03T11:49:29Z</time>
      </trkpt>
      <trkpt lat="44.15419" lon="5.04759">
        <ele>277.48</ele>
        <time>2017-12-03T11:49:30Z</time>
      </trkpt>
      <trkpt lat="44.15419" lon="5.04759">
        <ele>274.11</ele>
        <time>2017-12-03T11:49:34Z</time>
      </trkpt>
      <trkpt lat="44.15419" lon="5.04758">
        <ele>279.88</ele>
        <time>2017-12-03T11:49:41Z</time>
      </trkpt>
      <trkpt lat="44.15422" lon="5.04755">
        <ele>276.52</ele>
        <time>2017-12-03T11:49:52Z</time>
      </trkpt>
      <trkpt lat="44.15422" lon="5.04754">
        <ele>278.92</ele>
        <time>2017-12-03T11:49:57Z</time>
      </trkpt>
      <trkpt lat="44.15425" lon="5.04751">
        <ele>282.77</ele>
        <time>2017-12-03T11:50:03Z</time>
      </trkpt>
      <trkpt lat="44.15425" lon="5.0475">
        <ele>282.77</ele>
        <time>2017-12-03T11:50:04Z</time>
      </trkpt>
      <trkpt lat="44.15425" lon="5.04743">
        <ele>284.21</ele>
        <time>2017-12-03T11:50:16Z</time>
      </trkpt>
      <trkpt lat="44.1542" lon="5.04737">
        <ele>284.69</ele>
        <time>2017-12-03T11:50:27Z</time>
      </trkpt>
      <trkpt lat="44.15418" lon="5.04737">
        <ele>283.73</ele>
        <time>2017-12-03T11:50:29Z</time>
      </trkpt>
      <trkpt lat="44.15417" lon="5.04737">
        <ele>284.21</ele>
        <time>2017-12-03T11:50:31Z</time>
      </trkpt>
      <trkpt lat="44.15416" lon="5.04734">
        <ele>283.73</ele>
        <time>2017-12-03T11:50:35Z</time>
      </trkpt>
      <trkpt lat="44.15416" lon="5.04732">
        <ele>286.61</ele>
        <time>2017-12-03T11:50:38Z</time>
      </trkpt>
      <trkpt lat="44.15415" lon="5.04728">
        <ele>288.05</ele>
        <time>2017-12-03T11:50:41Z</time>
      </trkpt>
      <trkpt lat="44.15412" lon="5.04725">
        <ele>284.21</ele>
        <time>2017-12-03T11:50:51Z</time>
      </trkpt>
      <trkpt lat="44.15412" lon="5.04725">
        <ele>287.57</ele>
        <time>2017-12-03T11:50:55Z</time>
      </trkpt>
      <trkpt lat="44.15411" lon="5.04725">
        <ele>290.94</ele>
        <time>2017-12-03T11:50:57Z</time>
      </trkpt>
      <trkpt lat="44.1541" lon="5.04724">
        <ele>287.57</ele>
        <time>2017-12-03T11:51:05Z</time>
      </trkpt>
      <trkpt lat="44.1541" lon="5.04717">
        <ele>291.42</ele>
        <time>2017-12-03T11:51:12Z</time>
      </trkpt>
      <trkpt lat="44.1541" lon="5.04715">
        <ele>292.38</ele>
        <time>2017-12-03T11:51:16Z</time>
      </trkpt>
      <trkpt lat="44.15409" lon="5.04708">
        <ele>293.34</ele>
        <time>2017-12-03T11:51:27Z</time>
      </trkpt>
      <trkpt lat="44.1541" lon="5.04707">
        <ele>297.18</ele>
        <time>2017-12-03T11:51:33Z</time>
      </trkpt>
      <trkpt lat="44.1541" lon="5.04707">
        <ele>296.22</ele>
        <time>2017-12-03T11:51:36Z</time>
      </trkpt>
      <trkpt lat="44.1541" lon="5.04699">
        <ele>297.67</ele>
        <time>2017-12-03T11:51:46Z</time>
      </trkpt>
      <trkpt lat="44.15408" lon="5.04699">
        <ele>295.74</ele>
        <time>2017-12-03T11:52:00Z</time>
      </trkpt>
      <trkpt lat="44.15407" lon="5.04695">
        <ele>294.78</ele>
        <time>2017-12-03T11:52:13Z</time>
      </trkpt>
      <trkpt lat="44.15406" lon="5.0469">
        <ele>296.7</ele>
        <time>2017-12-03T11:52:17Z</time>
      </trkpt>
      <trkpt lat="44.15406" lon="5.04689">
        <ele>301.03</ele>
        <time>2017-12-03T11:52:28Z</time>
      </trkpt>
      <trkpt lat="44.15406" lon="5.04689">
        <ele>297.18</ele>
        <time>2017-12-03T11:52:29Z</time>
      </trkpt>
      <trkpt lat="44.15404" lon="5.04689">
        <ele>289.01</ele>
        <time>2017-12-03T11:52:42Z</time>
      </trkpt>
      <trkpt lat="44.15404" lon="5.04689">
        <ele>312.57</ele>
        <time>2017-12-03T11:52:43Z</time>
      </trkpt>
      <trkpt lat="44.15404" lon="5.04689">
        <ele>292.38</ele>
        <time>2017-12-03T11:52:44Z</time>
      </trkpt>
      <trkpt lat="44.15404" lon="5.04689">
        <ele>296.7</ele>
        <time>2017-12-03T11:52:45Z</time>
      </trkpt>
      <trkpt lat="44.15404" lon="5.04689">
        <ele>291.9</ele>
        <time>2017-12-03T11:52:46Z</time>
      </trkpt>
      <trkpt lat="44.15404" lon="5.04689">
        <ele>300.55</ele>
        <time>2017-12-03T11:52:47Z</time>
      </trkpt>
      <trkpt lat="44.15404" lon="5.04689">
        <ele>306.32</ele>
        <time>2017-12-03T11:52:48Z</time>
      </trkpt>
      <trkpt lat="44.15404" lon="5.04689">
        <ele>303.43</ele>
        <time>2017-12-03T11:52:49Z</time>
      </trkpt>
      <trkpt lat="44.15404" lon="5.04689">
        <ele>298.15</ele>
        <time>2017-12-03T11:52:50Z</time>
      </trkpt>
      <trkpt lat="44.15404" lon="5.04689">
        <ele>300.07</ele>
        <time>2017-12-03T11:52:51Z</time>
      </trkpt>
      <trkpt lat="44.15404" lon="5.0469">
        <ele>297.18</ele>
        <time>2017-12-03T11:53:01Z</time>
      </trkpt>
      <trkpt lat="44.15402" lon="5.04684">
        <ele>298.63</ele>
        <time>2017-12-03T11:53:18Z</time>
      </trkpt>
      <trkpt lat="44.15402" lon="5.04684">
        <ele>298.15</ele>
        <time>2017-12-03T11:53:19Z</time>
      </trkpt>
      <trkpt lat="44.15401" lon="5.04682">
        <ele>298.15</ele>
        <time>2017-12-03T11:53:23Z</time>
      </trkpt>
      <trkpt lat="44.15398" lon="5.04681">
        <ele>295.74</ele>
        <time>2017-12-03T11:53:38Z</time>
      </trkpt>
      <trkpt lat="44.15395" lon="5.04677">
        <ele>296.7</ele>
        <time>2017-12-03T11:53:51Z</time>
      </trkpt>
      <trkpt lat="44.15395" lon="5.04676">
        <ele>298.63</ele>
        <time>2017-12-03T11:54:06Z</time>
      </trkpt>
      <trkpt lat="44.15398" lon="5.04679">
        <ele>300.55</ele>
        <time>2017-12-03T11:54:19Z</time>
      </trkpt>
      <trkpt lat="44.15399" lon="5.04678">
        <ele>301.51</ele>
        <time>2017-12-03T11:54:32Z</time>
      </trkpt>
      <trkpt lat="44.15399" lon="5.04679">
        <ele>298.15</ele>
        <time>2017-12-03T11:54:43Z</time>
      </trkpt>
      <trkpt lat="44.15399" lon="5.04679">
        <ele>298.15</ele>
        <time>2017-12-03T11:54:44Z</time>
      </trkpt>
      <trkpt lat="44.15399" lon="5.04681">
        <ele>302.47</ele>
        <time>2017-12-03T11:54:50Z</time>
      </trkpt>
      <trkpt lat="44.15399" lon="5.04681">
        <ele>301.99</ele>
        <time>2017-12-03T11:54:51Z</time>
      </trkpt>
      <trkpt lat="44.15403" lon="5.04683">
        <ele>298.63</ele>
        <time>2017-12-03T11:54:58Z</time>
      </trkpt>
      <trkpt lat="44.15402" lon="5.0468">
        <ele>302.95</ele>
        <time>2017-12-03T11:55:04Z</time>
      </trkpt>
      <trkpt lat="44.15403" lon="5.04675">
        <ele>298.63</ele>
        <time>2017-12-03T11:55:16Z</time>
      </trkpt>
      <trkpt lat="44.15403" lon="5.04675">
        <ele>303.91</ele>
        <time>2017-12-03T11:55:17Z</time>
      </trkpt>
      <trkpt lat="44.15402" lon="5.04667">
        <ele>302.47</ele>
        <time>2017-12-03T11:55:28Z</time>
      </trkpt>
      <trkpt lat="44.15404" lon="5.0466">
        <ele>304.39</ele>
        <time>2017-12-03T11:55:34Z</time>
      </trkpt>
      <trkpt lat="44.15406" lon="5.04658">
        <ele>304.39</ele>
        <time>2017-12-03T11:55:37Z</time>
      </trkpt>
      <trkpt lat="44.15406" lon="5.04658">
        <ele>303.91</ele>
        <time>2017-12-03T11:55:39Z</time>
      </trkpt>
      <trkpt lat="44.15404" lon="5.04656">
        <ele>305.36</ele>
        <time>2017-12-03T11:55:44Z</time>
      </trkpt>
      <trkpt lat="44.15397" lon="5.04657">
        <ele>307.76</ele>
        <time>2017-12-03T11:55:51Z</time>
      </trkpt>
      <trkpt lat="44.15394" lon="5.04658">
        <ele>309.2</ele>
        <time>2017-12-03T11:55:53Z</time>
      </trkpt>
      <trkpt lat="44.15394" lon="5.04659">
        <ele>307.76</ele>
        <time>2017-12-03T11:56:07Z</time>
      </trkpt>
      <trkpt lat="44.15394" lon="5.0466">
        <ele>304.39</ele>
        <time>2017-12-03T11:56:10Z</time>
      </trkpt>
      <trkpt lat="44.15394" lon="5.0466">
        <ele>307.76</ele>
        <time>2017-12-03T11:56:11Z</time>
      </trkpt>
      <trkpt lat="44.15394" lon="5.0466">
        <ele>307.76</ele>
        <time>2017-12-03T11:56:12Z</time>
      </trkpt>
      <trkpt lat="44.15395" lon="5.04659">
        <ele>304.39</ele>
        <time>2017-12-03T11:56:16Z</time>
      </trkpt>
      <trkpt lat="44.15394" lon="5.0466">
        <ele>307.76</ele>
        <time>2017-12-03T11:56:26Z</time>
      </trkpt>
      <trkpt lat="44.15394" lon="5.04657">
        <ele>310.16</ele>
        <time>2017-12-03T11:56:31Z</time>
      </trkpt>
      <trkpt lat="44.15392" lon="5.04654">
        <ele>309.68</ele>
        <time>2017-12-03T11:56:44Z</time>
      </trkpt>
      <trkpt lat="44.15392" lon="5.04652">
        <ele>312.57</ele>
        <time>2017-12-03T11:56:52Z</time>
      </trkpt>
      <trkpt lat="44.15393" lon="5.04649">
        <ele>314.97</ele>
        <time>2017-12-03T11:56:55Z</time>
      </trkpt>
      <trkpt lat="44.15392" lon="5.04647">
        <ele>316.41</ele>
        <time>2017-12-03T11:57:00Z</time>
      </trkpt>
      <trkpt lat="44.15393" lon="5.04646">
        <ele>316.41</ele>
        <time>2017-12-03T11:57:03Z</time>
      </trkpt>
      <trkpt lat="44.15393" lon="5.04645">
        <ele>317.37</ele>
        <time>2017-12-03T11:57:05Z</time>
      </trkpt>
      <trkpt lat="44.15393" lon="5.04642">
        <ele>316.89</ele>
        <time>2017-12-03T11:57:19Z</time>
      </trkpt>
      <trkpt lat="44.15393" lon="5.04642">
        <ele>317.85</ele>
        <time>2017-12-03T11:57:21Z</time>
      </trkpt>
      <trkpt lat="44.15393" lon="5.04641">
        <ele>314.49</ele>
        <time>2017-12-03T11:57:32Z</time>
      </trkpt>
      <trkpt lat="44.15393" lon="5.04641">
        <ele>314.49</ele>
        <time>2017-12-03T11:57:33Z</time>
      </trkpt>
      <trkpt lat="44.15393" lon="5.04642">
        <ele>314.97</ele>
        <time>2017-12-03T11:57:47Z</time>
      </trkpt>
      <trkpt lat="44.15392" lon="5.04639">
        <ele>315.45</ele>
        <time>2017-12-03T11:57:56Z</time>
      </trkpt>
      <trkpt lat="44.15388" lon="5.04631">
        <ele>314.97</ele>
        <time>2017-12-03T11:58:06Z</time>
      </trkpt>
      <trkpt lat="44.15384" lon="5.04628">
        <ele>315.45</ele>
        <time>2017-12-03T11:58:17Z</time>
      </trkpt>
      <trkpt lat="44.15383" lon="5.04626">
        <ele>314.01</ele>
        <time>2017-12-03T11:58:31Z</time>
      </trkpt>
      <trkpt lat="44.15381" lon="5.04622">
        <ele>314.01</ele>
        <time>2017-12-03T11:58:37Z</time>
      </trkpt>
      <trkpt lat="44.1538" lon="5.04617">
        <ele>317.37</ele>
        <time>2017-12-03T11:58:46Z</time>
      </trkpt>
      <trkpt lat="44.1538" lon="5.04615">
        <ele>318.81</ele>
        <time>2017-12-03T11:58:56Z</time>
      </trkpt>
      <trkpt lat="44.15383" lon="5.04613">
        <ele>322.18</ele>
        <time>2017-12-03T11:59:06Z</time>
      </trkpt>
      <trkpt lat="44.15382" lon="5.04612">
        <ele>322.18</ele>
        <time>2017-12-03T11:59:26Z</time>
      </trkpt>
      <trkpt lat="44.15383" lon="5.0461">
        <ele>321.22</ele>
        <time>2017-12-03T11:59:41Z</time>
      </trkpt>
      <trkpt lat="44.15383" lon="5.04609">
        <ele>318.81</ele>
        <time>2017-12-03T11:59:51Z</time>
      </trkpt>
      <trkpt lat="44.15383" lon="5.04609">
        <ele>324.1</ele>
        <time>2017-12-03T11:59:52Z</time>
      </trkpt>
      <trkpt lat="44.15383" lon="5.04609">
        <ele>324.1</ele>
        <time>2017-12-03T11:59:53Z</time>
      </trkpt>
      <trkpt lat="44.15384" lon="5.04609">
        <ele>323.62</ele>
        <time>2017-12-03T11:59:56Z</time>
      </trkpt>
      <trkpt lat="44.15384" lon="5.04604">
        <ele>326.02</ele>
        <time>2017-12-03T12:00:02Z</time>
      </trkpt>
      <trkpt lat="44.15386" lon="5.046">
        <ele>327.47</ele>
        <time>2017-12-03T12:00:13Z</time>
      </trkpt>
      <trkpt lat="44.15386" lon="5.04599">
        <ele>331.31</ele>
        <time>2017-12-03T12:00:16Z</time>
      </trkpt>
      <trkpt lat="44.15386" lon="5.04599">
        <ele>330.83</ele>
        <time>2017-12-03T12:00:17Z</time>
      </trkpt>
      <trkpt lat="44.15386" lon="5.04598">
        <ele>330.83</ele>
        <time>2017-12-03T12:00:34Z</time>
      </trkpt>
      <trkpt lat="44.15386" lon="5.04596">
        <ele>328.43</ele>
        <time>2017-12-03T12:00:46Z</time>
      </trkpt>
      <trkpt lat="44.15387" lon="5.04595">
        <ele>334.2</ele>
        <time>2017-12-03T12:00:52Z</time>
      </trkpt>
      <trkpt lat="44.15387" lon="5.04595">
        <ele>334.2</ele>
        <time>2017-12-03T12:00:53Z</time>
      </trkpt>
      <trkpt lat="44.15386" lon="5.04593">
        <ele>329.87</ele>
        <time>2017-12-03T12:00:58Z</time>
      </trkpt>
      <trkpt lat="44.15386" lon="5.04593">
        <ele>333.23</ele>
        <time>2017-12-03T12:01:00Z</time>
      </trkpt>
      <trkpt lat="44.15386" lon="5.04593">
        <ele>332.27</ele>
        <time>2017-12-03T12:01:01Z</time>
      </trkpt>
      <trkpt lat="44.15386" lon="5.04593">
        <ele>333.23</ele>
        <time>2017-12-03T12:01:04Z</time>
      </trkpt>
      <trkpt lat="44.15387" lon="5.04592">
        <ele>331.79</ele>
        <time>2017-12-03T12:01:07Z</time>
      </trkpt>
      <trkpt lat="44.15385" lon="5.04587">
        <ele>333.71</ele>
        <time>2017-12-03T12:01:18Z</time>
      </trkpt>
      <trkpt lat="44.15384" lon="5.04585">
        <ele>332.27</ele>
        <time>2017-12-03T12:01:23Z</time>
      </trkpt>
      <trkpt lat="44.15382" lon="5.04583">
        <ele>335.64</ele>
        <time>2017-12-03T12:01:33Z</time>
      </trkpt>
      <trkpt lat="44.15379" lon="5.04579">
        <ele>339</ele>
        <time>2017-12-03T12:01:42Z</time>
      </trkpt>
      <trkpt lat="44.15378" lon="5.0458">
        <ele>339.96</ele>
        <time>2017-12-03T12:01:56Z</time>
      </trkpt>
      <trkpt lat="44.15379" lon="5.0458">
        <ele>339.96</ele>
        <time>2017-12-03T12:02:00Z</time>
      </trkpt>
      <trkpt lat="44.15378" lon="5.04579">
        <ele>340.92</ele>
        <time>2017-12-03T12:02:15Z</time>
      </trkpt>
      <trkpt lat="44.15379" lon="5.04574">
        <ele>341.41</ele>
        <time>2017-12-03T12:02:28Z</time>
      </trkpt>
      <trkpt lat="44.15378" lon="5.04574">
        <ele>343.81</ele>
        <time>2017-12-03T12:02:32Z</time>
      </trkpt>
      <trkpt lat="44.15378" lon="5.04574">
        <ele>344.29</ele>
        <time>2017-12-03T12:02:37Z</time>
      </trkpt>
      <trkpt lat="44.15378" lon="5.04573">
        <ele>344.29</ele>
        <time>2017-12-03T12:02:52Z</time>
      </trkpt>
      <trkpt lat="44.15378" lon="5.04569">
        <ele>345.25</ele>
        <time>2017-12-03T12:03:08Z</time>
      </trkpt>
      <trkpt lat="44.15379" lon="5.04568">
        <ele>349.1</ele>
        <time>2017-12-03T12:03:12Z</time>
      </trkpt>
      <trkpt lat="44.15379" lon="5.04568">
        <ele>349.1</ele>
        <time>2017-12-03T12:03:13Z</time>
      </trkpt>
      <trkpt lat="44.15379" lon="5.04568">
        <ele>345.25</ele>
        <time>2017-12-03T12:03:26Z</time>
      </trkpt>
      <trkpt lat="44.15381" lon="5.04565">
        <ele>346.21</ele>
        <time>2017-12-03T12:03:39Z</time>
      </trkpt>
      <trkpt lat="44.15381" lon="5.04565">
        <ele>347.65</ele>
        <time>2017-12-03T12:03:43Z</time>
      </trkpt>
      <trkpt lat="44.15381" lon="5.04563">
        <ele>349.1</ele>
        <time>2017-12-03T12:03:46Z</time>
      </trkpt>
      <trkpt lat="44.15381" lon="5.04558">
        <ele>351.5</ele>
        <time>2017-12-03T12:03:58Z</time>
      </trkpt>
      <trkpt lat="44.15382" lon="5.04555">
        <ele>352.94</ele>
        <time>2017-12-03T12:04:16Z</time>
      </trkpt>
      <trkpt lat="44.15382" lon="5.04549">
        <ele>355.34</ele>
        <time>2017-12-03T12:04:27Z</time>
      </trkpt>
      <trkpt lat="44.15383" lon="5.04547">
        <ele>355.34</ele>
        <time>2017-12-03T12:04:33Z</time>
      </trkpt>
      <trkpt lat="44.15384" lon="5.04542">
        <ele>356.79</ele>
        <time>2017-12-03T12:04:43Z</time>
      </trkpt>
      <trkpt lat="44.15385" lon="5.0454">
        <ele>360.15</ele>
        <time>2017-12-03T12:04:49Z</time>
      </trkpt>
      <trkpt lat="44.15389" lon="5.0454">
        <ele>362.07</ele>
        <time>2017-12-03T12:04:59Z</time>
      </trkpt>
      <trkpt lat="44.15391" lon="5.04536">
        <ele>364.96</ele>
        <time>2017-12-03T12:05:06Z</time>
      </trkpt>
      <trkpt lat="44.15392" lon="5.04532">
        <ele>366.4</ele>
        <time>2017-12-03T12:05:18Z</time>
      </trkpt>
      <trkpt lat="44.1539" lon="5.0453">
        <ele>368.32</ele>
        <time>2017-12-03T12:05:33Z</time>
      </trkpt>
      <trkpt lat="44.1539" lon="5.04527">
        <ele>369.28</ele>
        <time>2017-12-03T12:05:41Z</time>
      </trkpt>
      <trkpt lat="44.15392" lon="5.04521">
        <ele>371.21</ele>
        <time>2017-12-03T12:05:52Z</time>
      </trkpt>
      <trkpt lat="44.15394" lon="5.04518">
        <ele>373.61</ele>
        <time>2017-12-03T12:06:01Z</time>
      </trkpt>
      <trkpt lat="44.15393" lon="5.04513">
        <ele>376.01</ele>
        <time>2017-12-03T12:06:09Z</time>
      </trkpt>
      <trkpt lat="44.15391" lon="5.04509">
        <ele>376.01</ele>
        <time>2017-12-03T12:06:14Z</time>
      </trkpt>
      <trkpt lat="44.1539" lon="5.04503">
        <ele>376.97</ele>
        <time>2017-12-03T12:06:19Z</time>
      </trkpt>
      <trkpt lat="44.15389" lon="5.04499">
        <ele>378.9</ele>
        <time>2017-12-03T12:06:26Z</time>
      </trkpt>
      <trkpt lat="44.15387" lon="5.04497">
        <ele>378.42</ele>
        <time>2017-12-03T12:06:30Z</time>
      </trkpt>
      <trkpt lat="44.15386" lon="5.04495">
        <ele>378.9</ele>
        <time>2017-12-03T12:06:32Z</time>
      </trkpt>
      <trkpt lat="44.15384" lon="5.04493">
        <ele>381.3</ele>
        <time>2017-12-03T12:06:43Z</time>
      </trkpt>
      <trkpt lat="44.15384" lon="5.04493">
        <ele>380.82</ele>
        <time>2017-12-03T12:07:07Z</time>
      </trkpt>
      <trkpt lat="44.15383" lon="5.04493">
        <ele>381.3</ele>
        <time>2017-12-03T12:07:21Z</time>
      </trkpt>
      <trkpt lat="44.15384" lon="5.04492">
        <ele>381.78</ele>
        <time>2017-12-03T12:07:24Z</time>
      </trkpt>
      <trkpt lat="44.15386" lon="5.0449">
        <ele>382.74</ele>
        <time>2017-12-03T12:07:29Z</time>
      </trkpt>
      <trkpt lat="44.15387" lon="5.04486">
        <ele>384.18</ele>
        <time>2017-12-03T12:07:34Z</time>
      </trkpt>
      <trkpt lat="44.15387" lon="5.04482">
        <ele>385.63</ele>
        <time>2017-12-03T12:07:43Z</time>
      </trkpt>
      <trkpt lat="44.15387" lon="5.04474">
        <ele>387.55</ele>
        <time>2017-12-03T12:07:54Z</time>
      </trkpt>
      <trkpt lat="44.15388" lon="5.04467">
        <ele>389.47</ele>
        <time>2017-12-03T12:08:03Z</time>
      </trkpt>
      <trkpt lat="44.15387" lon="5.04464">
        <ele>391.39</ele>
        <time>2017-12-03T12:08:08Z</time>
      </trkpt>
      <trkpt lat="44.15388" lon="5.04466">
        <ele>390.43</ele>
        <time>2017-12-03T12:08:20Z</time>
      </trkpt>
      <trkpt lat="44.1539" lon="5.04467">
        <ele>390.43</ele>
        <time>2017-12-03T12:08:29Z</time>
      </trkpt>
      <trkpt lat="44.1539" lon="5.04467">
        <ele>392.84</ele>
        <time>2017-12-03T12:08:35Z</time>
      </trkpt>
      <trkpt lat="44.15392" lon="5.04465">
        <ele>393.8</ele>
        <time>2017-12-03T12:08:48Z</time>
      </trkpt>
      <trkpt lat="44.15391" lon="5.04464">
        <ele>392.84</ele>
        <time>2017-12-03T12:09:21Z</time>
      </trkpt>
      <trkpt lat="44.15391" lon="5.04464">
        <ele>392.36</ele>
        <time>2017-12-03T12:09:50Z</time>
      </trkpt>
      <trkpt lat="44.15391" lon="5.04464">
        <ele>392.84</ele>
        <time>2017-12-03T12:10:18Z</time>
      </trkpt>
      <trkpt lat="44.15391" lon="5.04464">
        <ele>392.84</ele>
        <time>2017-12-03T12:10:41Z</time>
      </trkpt>
      <trkpt lat="44.15394" lon="5.04462">
        <ele>394.28</ele>
        <time>2017-12-03T12:11:01Z</time>
      </trkpt>
      <trkpt lat="44.15395" lon="5.04462">
        <ele>394.28</ele>
        <time>2017-12-03T12:11:03Z</time>
      </trkpt>
      <trkpt lat="44.15396" lon="5.04459">
        <ele>395.72</ele>
        <time>2017-12-03T12:11:14Z</time>
      </trkpt>
      <trkpt lat="44.15397" lon="5.04452">
        <ele>398.12</ele>
        <time>2017-12-03T12:11:25Z</time>
      </trkpt>
      <trkpt lat="44.15397" lon="5.04446">
        <ele>398.12</ele>
        <time>2017-12-03T12:11:30Z</time>
      </trkpt>
      <trkpt lat="44.15389" lon="5.04435">
        <ele>401.01</ele>
        <time>2017-12-03T12:11:42Z</time>
      </trkpt>
      <trkpt lat="44.15388" lon="5.04433">
        <ele>402.45</ele>
        <time>2017-12-03T12:11:51Z</time>
      </trkpt>
      <trkpt lat="44.15387" lon="5.04431">
        <ele>401.97</ele>
        <time>2017-12-03T12:11:59Z</time>
      </trkpt>
      <trkpt lat="44.15388" lon="5.04429">
        <ele>403.41</ele>
        <time>2017-12-03T12:12:01Z</time>
      </trkpt>
      <trkpt lat="44.15388" lon="5.04423">
        <ele>403.89</ele>
        <time>2017-12-03T12:12:12Z</time>
      </trkpt>
      <trkpt lat="44.15386" lon="5.04421">
        <ele>404.37</ele>
        <time>2017-12-03T12:12:15Z</time>
      </trkpt>
      <trkpt lat="44.15383" lon="5.0442">
        <ele>404.37</ele>
        <time>2017-12-03T12:12:17Z</time>
      </trkpt>
      <trkpt lat="44.15378" lon="5.04418">
        <ele>404.37</ele>
        <time>2017-12-03T12:12:22Z</time>
      </trkpt>
      <trkpt lat="44.15374" lon="5.04412">
        <ele>405.81</ele>
        <time>2017-12-03T12:12:32Z</time>
      </trkpt>
      <trkpt lat="44.15373" lon="5.04409">
        <ele>407.26</ele>
        <time>2017-12-03T12:12:36Z</time>
      </trkpt>
      <trkpt lat="44.15365" lon="5.04404">
        <ele>409.18</ele>
        <time>2017-12-03T12:12:47Z</time>
      </trkpt>
      <trkpt lat="44.15364" lon="5.04404">
        <ele>411.58</ele>
        <time>2017-12-03T12:12:58Z</time>
      </trkpt>
      <trkpt lat="44.15362" lon="5.04397">
        <ele>413.5</ele>
        <time>2017-12-03T12:13:10Z</time>
      </trkpt>
      <trkpt lat="44.15361" lon="5.04398">
        <ele>412.54</ele>
        <time>2017-12-03T12:13:16Z</time>
      </trkpt>
      <trkpt lat="44.15363" lon="5.044">
        <ele>413.5</ele>
        <time>2017-12-03T12:13:20Z</time>
      </trkpt>
      <trkpt lat="44.15365" lon="5.044">
        <ele>413.5</ele>
        <time>2017-12-03T12:13:22Z</time>
      </trkpt>
      <trkpt lat="44.15366" lon="5.04397">
        <ele>414.95</ele>
        <time>2017-12-03T12:13:35Z</time>
      </trkpt>
      <trkpt lat="44.15365" lon="5.04395">
        <ele>417.83</ele>
        <time>2017-12-03T12:13:44Z</time>
      </trkpt>
      <trkpt lat="44.15365" lon="5.04392">
        <ele>418.31</ele>
        <time>2017-12-03T12:13:47Z</time>
      </trkpt>
      <trkpt lat="44.15366" lon="5.04386">
        <ele>419.27</ele>
        <time>2017-12-03T12:13:51Z</time>
      </trkpt>
      <trkpt lat="44.15366" lon="5.0438">
        <ele>420.71</ele>
        <time>2017-12-03T12:13:56Z</time>
      </trkpt>
      <trkpt lat="44.15364" lon="5.04374">
        <ele>422.16</ele>
        <time>2017-12-03T12:14:04Z</time>
      </trkpt>
      <trkpt lat="44.1536" lon="5.04368">
        <ele>424.56</ele>
        <time>2017-12-03T12:14:14Z</time>
      </trkpt>
      <trkpt lat="44.1536" lon="5.04365">
        <ele>424.56</ele>
        <time>2017-12-03T12:14:16Z</time>
      </trkpt>
      <trkpt lat="44.15357" lon="5.04363">
        <ele>425.04</ele>
        <time>2017-12-03T12:14:29Z</time>
      </trkpt>
      <trkpt lat="44.15357" lon="5.04362">
        <ele>424.08</ele>
        <time>2017-12-03T12:14:44Z</time>
      </trkpt>
      <trkpt lat="44.15357" lon="5.0436">
        <ele>423.6</ele>
        <time>2017-12-03T12:14:46Z</time>
      </trkpt>
      <trkpt lat="44.15353" lon="5.04352">
        <ele>421.68</ele>
        <time>2017-12-03T12:14:59Z</time>
      </trkpt>
      <trkpt lat="44.15353" lon="5.04352">
        <ele>421.68</ele>
        <time>2017-12-03T12:15:03Z</time>
      </trkpt>
      <trkpt lat="44.1535" lon="5.04349">
        <ele>421.19</ele>
        <time>2017-12-03T12:15:06Z</time>
      </trkpt>
      <trkpt lat="44.15347" lon="5.04346">
        <ele>420.71</ele>
        <time>2017-12-03T12:15:18Z</time>
      </trkpt>
      <trkpt lat="44.15347" lon="5.04345">
        <ele>421.19</ele>
        <time>2017-12-03T12:15:36Z</time>
      </trkpt>
      <trkpt lat="44.15343" lon="5.04344">
        <ele>419.75</ele>
        <time>2017-12-03T12:15:59Z</time>
      </trkpt>
      <trkpt lat="44.15343" lon="5.04344">
        <ele>419.75</ele>
        <time>2017-12-03T12:16:18Z</time>
      </trkpt>
      <trkpt lat="44.15343" lon="5.04344">
        <ele>418.79</ele>
        <time>2017-12-03T12:16:54Z</time>
      </trkpt>
      <trkpt lat="44.15343" lon="5.04344">
        <ele>419.27</ele>
        <time>2017-12-03T12:17:24Z</time>
      </trkpt>
      <trkpt lat="44.15343" lon="5.04344">
        <ele>417.35</ele>
        <time>2017-12-03T12:17:35Z</time>
      </trkpt>
      <trkpt lat="44.15343" lon="5.04344">
        <ele>415.43</ele>
        <time>2017-12-03T12:17:49Z</time>
      </trkpt>
      <trkpt lat="44.15343" lon="5.04344">
        <ele>414.95</ele>
        <time>2017-12-03T12:17:52Z</time>
      </trkpt>
      <trkpt lat="44.15341" lon="5.0434">
        <ele>414.47</ele>
        <time>2017-12-03T12:17:55Z</time>
      </trkpt>
      <trkpt lat="44.15341" lon="5.04325">
        <ele>413.98</ele>
        <time>2017-12-03T12:18:05Z</time>
      </trkpt>
      <trkpt lat="44.1534" lon="5.04319">
        <ele>415.91</ele>
        <time>2017-12-03T12:18:16Z</time>
      </trkpt>
      <trkpt lat="44.1534" lon="5.04319">
        <ele>415.91</ele>
        <time>2017-12-03T12:18:19Z</time>
      </trkpt>
      <trkpt lat="44.15335" lon="5.04316">
        <ele>415.43</ele>
        <time>2017-12-03T12:18:24Z</time>
      </trkpt>
      <trkpt lat="44.15327" lon="5.043">
        <ele>413.5</ele>
        <time>2017-12-03T12:18:37Z</time>
      </trkpt>
      <trkpt lat="44.15319" lon="5.04292">
        <ele>411.1</ele>
        <time>2017-12-03T12:18:48Z</time>
      </trkpt>
      <trkpt lat="44.15314" lon="5.04279">
        <ele>408.22</ele>
        <time>2017-12-03T12:19:02Z</time>
      </trkpt>
      <trkpt lat="44.15314" lon="5.04273">
        <ele>407.26</ele>
        <time>2017-12-03T12:19:07Z</time>
      </trkpt>
      <trkpt lat="44.1531" lon="5.04264">
        <ele>406.29</ele>
        <time>2017-12-03T12:19:16Z</time>
      </trkpt>
      <trkpt lat="44.15304" lon="5.04249">
        <ele>405.33</ele>
        <time>2017-12-03T12:19:27Z</time>
      </trkpt>
      <trkpt lat="44.15304" lon="5.04238">
        <ele>403.89</ele>
        <time>2017-12-03T12:19:40Z</time>
      </trkpt>
      <trkpt lat="44.15304" lon="5.04237">
        <ele>405.81</ele>
        <time>2017-12-03T12:19:41Z</time>
      </trkpt>
      <trkpt lat="44.15301" lon="5.04228">
        <ele>405.33</ele>
        <time>2017-12-03T12:19:53Z</time>
      </trkpt>
      <trkpt lat="44.15299" lon="5.04219">
        <ele>406.29</ele>
        <time>2017-12-03T12:20:03Z</time>
      </trkpt>
      <trkpt lat="44.15297" lon="5.04216">
        <ele>407.74</ele>
        <time>2017-12-03T12:20:10Z</time>
      </trkpt>
      <trkpt lat="44.15298" lon="5.04214">
        <ele>408.7</ele>
        <time>2017-12-03T12:20:16Z</time>
      </trkpt>
      <trkpt lat="44.15294" lon="5.04207">
        <ele>408.22</ele>
        <time>2017-12-03T12:20:23Z</time>
      </trkpt>
      <trkpt lat="44.1529" lon="5.04199">
        <ele>407.26</ele>
        <time>2017-12-03T12:20:29Z</time>
      </trkpt>
      <trkpt lat="44.15288" lon="5.04193">
        <ele>407.26</ele>
        <time>2017-12-03T12:20:33Z</time>
      </trkpt>
      <trkpt lat="44.15289" lon="5.04188">
        <ele>406.77</ele>
        <time>2017-12-03T12:20:37Z</time>
      </trkpt>
      <trkpt lat="44.15284" lon="5.04182">
        <ele>405.81</ele>
        <time>2017-12-03T12:20:44Z</time>
      </trkpt>
      <trkpt lat="44.15282" lon="5.04173">
        <ele>406.77</ele>
        <time>2017-12-03T12:20:53Z</time>
      </trkpt>
      <trkpt lat="44.15283" lon="5.04166">
        <ele>407.74</ele>
        <time>2017-12-03T12:21:04Z</time>
      </trkpt>
      <trkpt lat="44.15285" lon="5.04162">
        <ele>411.1</ele>
        <time>2017-12-03T12:21:14Z</time>
      </trkpt>
      <trkpt lat="44.15284" lon="5.04159">
        <ele>412.06</ele>
        <time>2017-12-03T12:21:17Z</time>
      </trkpt>
      <trkpt lat="44.15284" lon="5.04148">
        <ele>413.5</ele>
        <time>2017-12-03T12:21:27Z</time>
      </trkpt>
      <trkpt lat="44.15282" lon="5.04142">
        <ele>413.98</ele>
        <time>2017-12-03T12:21:31Z</time>
      </trkpt>
      <trkpt lat="44.15278" lon="5.04136">
        <ele>414.47</ele>
        <time>2017-12-03T12:21:41Z</time>
      </trkpt>
      <trkpt lat="44.15276" lon="5.04133">
        <ele>413.98</ele>
        <time>2017-12-03T12:21:44Z</time>
      </trkpt>
      <trkpt lat="44.15273" lon="5.04125">
        <ele>413.98</ele>
        <time>2017-12-03T12:21:50Z</time>
      </trkpt>
      <trkpt lat="44.15269" lon="5.04114">
        <ele>413.02</ele>
        <time>2017-12-03T12:21:58Z</time>
      </trkpt>
      <trkpt lat="44.15267" lon="5.0411">
        <ele>412.06</ele>
        <time>2017-12-03T12:22:11Z</time>
      </trkpt>
      <trkpt lat="44.15267" lon="5.04108">
        <ele>412.06</ele>
        <time>2017-12-03T12:22:33Z</time>
      </trkpt>
      <trkpt lat="44.15267" lon="5.04107">
        <ele>412.06</ele>
        <time>2017-12-03T12:22:34Z</time>
      </trkpt>
      <trkpt lat="44.15267" lon="5.04099">
        <ele>412.54</ele>
        <time>2017-12-03T12:22:47Z</time>
      </trkpt>
      <trkpt lat="44.15265" lon="5.04096">
        <ele>413.5</ele>
        <time>2017-12-03T12:23:00Z</time>
      </trkpt>
      <trkpt lat="44.15263" lon="5.04081">
        <ele>413.98</ele>
        <time>2017-12-03T12:23:10Z</time>
      </trkpt>
      <trkpt lat="44.15259" lon="5.04068">
        <ele>413.02</ele>
        <time>2017-12-03T12:23:20Z</time>
      </trkpt>
      <trkpt lat="44.15258" lon="5.04066">
        <ele>412.54</ele>
        <time>2017-12-03T12:23:22Z</time>
      </trkpt>
      <trkpt lat="44.15256" lon="5.04056">
        <ele>412.06</ele>
        <time>2017-12-03T12:23:34Z</time>
      </trkpt>
      <trkpt lat="44.15257" lon="5.04054">
        <ele>412.06</ele>
        <time>2017-12-03T12:23:50Z</time>
      </trkpt>
      <trkpt lat="44.15257" lon="5.04054">
        <ele>412.06</ele>
        <time>2017-12-03T12:24:05Z</time>
      </trkpt>
      <trkpt lat="44.15255" lon="5.04044">
        <ele>410.62</ele>
        <time>2017-12-03T12:24:14Z</time>
      </trkpt>
      <trkpt lat="44.15254" lon="5.04036">
        <ele>409.66</ele>
        <time>2017-12-03T12:24:19Z</time>
      </trkpt>
      <trkpt lat="44.15252" lon="5.04026">
        <ele>411.1</ele>
        <time>2017-12-03T12:24:29Z</time>
      </trkpt>
      <trkpt lat="44.15249" lon="5.04017">
        <ele>411.1</ele>
        <time>2017-12-03T12:24:38Z</time>
      </trkpt>
      <trkpt lat="44.15249" lon="5.04017">
        <ele>410.62</ele>
        <time>2017-12-03T12:24:56Z</time>
      </trkpt>
      <trkpt lat="44.15249" lon="5.04017">
        <ele>410.14</ele>
        <time>2017-12-03T12:25:21Z</time>
      </trkpt>
      <trkpt lat="44.15249" lon="5.04017">
        <ele>410.14</ele>
        <time>2017-12-03T12:25:43Z</time>
      </trkpt>
      <trkpt lat="44.15248" lon="5.04014">
        <ele>410.62</ele>
        <time>2017-12-03T12:26:01Z</time>
      </trkpt>
      <trkpt lat="44.15247" lon="5.04011">
        <ele>410.62</ele>
        <time>2017-12-03T12:26:24Z</time>
      </trkpt>
      <trkpt lat="44.15244" lon="5.04006">
        <ele>410.14</ele>
        <time>2017-12-03T12:26:36Z</time>
      </trkpt>
      <trkpt lat="44.15244" lon="5.03996">
        <ele>412.54</ele>
        <time>2017-12-03T12:26:48Z</time>
      </trkpt>
      <trkpt lat="44.15244" lon="5.03993">
        <ele>411.1</ele>
        <time>2017-12-03T12:26:56Z</time>
      </trkpt>
      <trkpt lat="44.15243" lon="5.03988">
        <ele>409.66</ele>
        <time>2017-12-03T12:27:01Z</time>
      </trkpt>
      <trkpt lat="44.1524" lon="5.03976">
        <ele>407.74</ele>
        <time>2017-12-03T12:27:10Z</time>
      </trkpt>
      <trkpt lat="44.15237" lon="5.03968">
        <ele>407.74</ele>
        <time>2017-12-03T12:27:21Z</time>
      </trkpt>
      <trkpt lat="44.15236" lon="5.03965">
        <ele>407.74</ele>
        <time>2017-12-03T12:27:23Z</time>
      </trkpt>
      <trkpt lat="44.15229" lon="5.03957">
        <ele>406.77</ele>
        <time>2017-12-03T12:27:29Z</time>
      </trkpt>
      <trkpt lat="44.15228" lon="5.03952">
        <ele>407.74</ele>
        <time>2017-12-03T12:27:33Z</time>
      </trkpt>
      <trkpt lat="44.15228" lon="5.03946">
        <ele>408.7</ele>
        <time>2017-12-03T12:27:39Z</time>
      </trkpt>
      <trkpt lat="44.15228" lon="5.03941">
        <ele>408.7</ele>
        <time>2017-12-03T12:27:43Z</time>
      </trkpt>
      <trkpt lat="44.15226" lon="5.03933">
        <ele>409.18</ele>
        <time>2017-12-03T12:27:49Z</time>
      </trkpt>
      <trkpt lat="44.15223" lon="5.03921">
        <ele>408.7</ele>
        <time>2017-12-03T12:28:01Z</time>
      </trkpt>
      <trkpt lat="44.15222" lon="5.03922">
        <ele>408.7</ele>
        <time>2017-12-03T12:28:21Z</time>
      </trkpt>
      <trkpt lat="44.1522" lon="5.03911">
        <ele>407.26</ele>
        <time>2017-12-03T12:28:37Z</time>
      </trkpt>
      <trkpt lat="44.15221" lon="5.03908">
        <ele>407.74</ele>
        <time>2017-12-03T12:28:45Z</time>
      </trkpt>
      <trkpt lat="44.15222" lon="5.03907">
        <ele>411.58</ele>
        <time>2017-12-03T12:28:51Z</time>
      </trkpt>
      <trkpt lat="44.15222" lon="5.03905">
        <ele>411.58</ele>
        <time>2017-12-03T12:29:02Z</time>
      </trkpt>
      <trkpt lat="44.15218" lon="5.03901">
        <ele>410.14</ele>
        <time>2017-12-03T12:29:13Z</time>
      </trkpt>
      <trkpt lat="44.15215" lon="5.03901">
        <ele>407.74</ele>
        <time>2017-12-03T12:29:25Z</time>
      </trkpt>
      <trkpt lat="44.15214" lon="5.039">
        <ele>403.41</ele>
        <time>2017-12-03T12:29:37Z</time>
      </trkpt>
      <trkpt lat="44.15214" lon="5.039">
        <ele>406.77</ele>
        <time>2017-12-03T12:29:38Z</time>
      </trkpt>
      <trkpt lat="44.15213" lon="5.03899">
        <ele>403.41</ele>
        <time>2017-12-03T12:29:52Z</time>
      </trkpt>
      <trkpt lat="44.1521" lon="5.03891">
        <ele>402.93</ele>
        <time>2017-12-03T12:30:04Z</time>
      </trkpt>
      <trkpt lat="44.15208" lon="5.03891">
        <ele>400.05</ele>
        <time>2017-12-03T12:30:16Z</time>
      </trkpt>
      <trkpt lat="44.15202" lon="5.03893">
        <ele>396.2</ele>
        <time>2017-12-03T12:30:28Z</time>
      </trkpt>
      <trkpt lat="44.15201" lon="5.03892">
        <ele>394.76</ele>
        <time>2017-12-03T12:30:34Z</time>
      </trkpt>
      <trkpt lat="44.15198" lon="5.03891">
        <ele>392.84</ele>
        <time>2017-12-03T12:30:48Z</time>
      </trkpt>
      <trkpt lat="44.15197" lon="5.03888">
        <ele>393.32</ele>
        <time>2017-12-03T12:31:11Z</time>
      </trkpt>
      <trkpt lat="44.15195" lon="5.03886">
        <ele>389.95</ele>
        <time>2017-12-03T12:31:22Z</time>
      </trkpt>
      <trkpt lat="44.15193" lon="5.03888">
        <ele>389.47</ele>
        <time>2017-12-03T12:31:31Z</time>
      </trkpt>
      <trkpt lat="44.15192" lon="5.03887">
        <ele>389.47</ele>
        <time>2017-12-03T12:31:44Z</time>
      </trkpt>
      <trkpt lat="44.15191" lon="5.03885">
        <ele>386.59</ele>
        <time>2017-12-03T12:31:58Z</time>
      </trkpt>
      <trkpt lat="44.1519" lon="5.03884">
        <ele>386.11</ele>
        <time>2017-12-03T12:32:07Z</time>
      </trkpt>
      <trkpt lat="44.15189" lon="5.0388">
        <ele>383.7</ele>
        <time>2017-12-03T12:32:21Z</time>
      </trkpt>
      <trkpt lat="44.15189" lon="5.03873">
        <ele>382.26</ele>
        <time>2017-12-03T12:32:35Z</time>
      </trkpt>
      <trkpt lat="44.15181" lon="5.0387">
        <ele>378.9</ele>
        <time>2017-12-03T12:32:46Z</time>
      </trkpt>
      <trkpt lat="44.15181" lon="5.03869">
        <ele>377.94</ele>
        <time>2017-12-03T12:32:47Z</time>
      </trkpt>
      <trkpt lat="44.15181" lon="5.03866">
        <ele>379.38</ele>
        <time>2017-12-03T12:32:50Z</time>
      </trkpt>
      <trkpt lat="44.15178" lon="5.0386">
        <ele>379.38</ele>
        <time>2017-12-03T12:33:01Z</time>
      </trkpt>
      <trkpt lat="44.15174" lon="5.03857">
        <ele>378.42</ele>
        <time>2017-12-03T12:33:14Z</time>
      </trkpt>
      <trkpt lat="44.15171" lon="5.03854">
        <ele>375.05</ele>
        <time>2017-12-03T12:33:20Z</time>
      </trkpt>
      <trkpt lat="44.15171" lon="5.03854">
        <ele>378.42</ele>
        <time>2017-12-03T12:33:21Z</time>
      </trkpt>
      <trkpt lat="44.15171" lon="5.03853">
        <ele>375.05</ele>
        <time>2017-12-03T12:33:22Z</time>
      </trkpt>
      <trkpt lat="44.15171" lon="5.03853">
        <ele>377.94</ele>
        <time>2017-12-03T12:33:25Z</time>
      </trkpt>
      <trkpt lat="44.15169" lon="5.0385">
        <ele>374.57</ele>
        <time>2017-12-03T12:33:28Z</time>
      </trkpt>
      <trkpt lat="44.15168" lon="5.03844">
        <ele>375.05</ele>
        <time>2017-12-03T12:33:41Z</time>
      </trkpt>
      <trkpt lat="44.15165" lon="5.0384">
        <ele>376.49</ele>
        <time>2017-12-03T12:33:51Z</time>
      </trkpt>
      <trkpt lat="44.15161" lon="5.03835">
        <ele>376.97</ele>
        <time>2017-12-03T12:33:58Z</time>
      </trkpt>
      <trkpt lat="44.15159" lon="5.03829">
        <ele>377.94</ele>
        <time>2017-12-03T12:34:02Z</time>
      </trkpt>
      <trkpt lat="44.15158" lon="5.03823">
        <ele>378.9</ele>
        <time>2017-12-03T12:34:06Z</time>
      </trkpt>
      <trkpt lat="44.15151" lon="5.03816">
        <ele>376.49</ele>
        <time>2017-12-03T12:34:18Z</time>
      </trkpt>
      <trkpt lat="44.15146" lon="5.03815">
        <ele>375.05</ele>
        <time>2017-12-03T12:34:29Z</time>
      </trkpt>
      <trkpt lat="44.15145" lon="5.03816">
        <ele>374.57</ele>
        <time>2017-12-03T12:34:49Z</time>
      </trkpt>
      <trkpt lat="44.15144" lon="5.03814">
        <ele>374.57</ele>
        <time>2017-12-03T12:35:00Z</time>
      </trkpt>
      <trkpt lat="44.15144" lon="5.03811">
        <ele>375.53</ele>
        <time>2017-12-03T12:35:05Z</time>
      </trkpt>
      <trkpt lat="44.15143" lon="5.03807">
        <ele>375.53</ele>
        <time>2017-12-03T12:35:09Z</time>
      </trkpt>
      <trkpt lat="44.15141" lon="5.03798">
        <ele>374.57</ele>
        <time>2017-12-03T12:35:24Z</time>
      </trkpt>
      <trkpt lat="44.15137" lon="5.03786">
        <ele>374.09</ele>
        <time>2017-12-03T12:35:32Z</time>
      </trkpt>
      <trkpt lat="44.15136" lon="5.03784">
        <ele>374.09</ele>
        <time>2017-12-03T12:35:35Z</time>
      </trkpt>
      <trkpt lat="44.15137" lon="5.03782">
        <ele>375.05</ele>
        <time>2017-12-03T12:35:38Z</time>
      </trkpt>
      <trkpt lat="44.15133" lon="5.03773">
        <ele>376.49</ele>
        <time>2017-12-03T12:35:48Z</time>
      </trkpt>
      <trkpt lat="44.15131" lon="5.03762">
        <ele>377.45</ele>
        <time>2017-12-03T12:36:00Z</time>
      </trkpt>
      <trkpt lat="44.15127" lon="5.0375">
        <ele>378.9</ele>
        <time>2017-12-03T12:36:10Z</time>
      </trkpt>
      <trkpt lat="44.15126" lon="5.03748">
        <ele>378.9</ele>
        <time>2017-12-03T12:36:12Z</time>
      </trkpt>
      <trkpt lat="44.15126" lon="5.03746">
        <ele>379.38</ele>
        <time>2017-12-03T12:36:14Z</time>
      </trkpt>
      <trkpt lat="44.15126" lon="5.0374">
        <ele>380.34</ele>
        <time>2017-12-03T12:36:31Z</time>
      </trkpt>
      <trkpt lat="44.15125" lon="5.0374">
        <ele>380.34</ele>
        <time>2017-12-03T12:37:00Z</time>
      </trkpt>
      <trkpt lat="44.15125" lon="5.0374">
        <ele>380.34</ele>
        <time>2017-12-03T12:37:33Z</time>
      </trkpt>
      <trkpt lat="44.15125" lon="5.0374">
        <ele>380.34</ele>
        <time>2017-12-03T12:37:57Z</time>
      </trkpt>
      <trkpt lat="44.15123" lon="5.03738">
        <ele>380.34</ele>
        <time>2017-12-03T12:38:09Z</time>
      </trkpt>
      <trkpt lat="44.1512" lon="5.03728">
        <ele>379.38</ele>
        <time>2017-12-03T12:38:21Z</time>
      </trkpt>
      <trkpt lat="44.15118" lon="5.03727">
        <ele>378.9</ele>
        <time>2017-12-03T12:38:51Z</time>
      </trkpt>
      <trkpt lat="44.15118" lon="5.03726">
        <ele>379.38</ele>
        <time>2017-12-03T12:38:54Z</time>
      </trkpt>
      <trkpt lat="44.15118" lon="5.03722">
        <ele>377.94</ele>
        <time>2017-12-03T12:38:58Z</time>
      </trkpt>
      <trkpt lat="44.15119" lon="5.03714">
        <ele>378.42</ele>
        <time>2017-12-03T12:39:04Z</time>
      </trkpt>
      <trkpt lat="44.15117" lon="5.03707">
        <ele>377.45</ele>
        <time>2017-12-03T12:39:11Z</time>
      </trkpt>
      <trkpt lat="44.15114" lon="5.037">
        <ele>376.49</ele>
        <time>2017-12-03T12:39:15Z</time>
      </trkpt>
      <trkpt lat="44.15113" lon="5.03695">
        <ele>376.49</ele>
        <time>2017-12-03T12:39:20Z</time>
      </trkpt>
      <trkpt lat="44.15109" lon="5.03685">
        <ele>377.94</ele>
        <time>2017-12-03T12:39:32Z</time>
      </trkpt>
      <trkpt lat="44.15107" lon="5.03677">
        <ele>376.49</ele>
        <time>2017-12-03T12:39:40Z</time>
      </trkpt>
      <trkpt lat="44.15106" lon="5.0367">
        <ele>376.01</ele>
        <time>2017-12-03T12:39:46Z</time>
      </trkpt>
      <trkpt lat="44.15104" lon="5.03661">
        <ele>375.05</ele>
        <time>2017-12-03T12:39:51Z</time>
      </trkpt>
      <trkpt lat="44.15104" lon="5.03656">
        <ele>374.57</ele>
        <time>2017-12-03T12:39:55Z</time>
      </trkpt>
      <trkpt lat="44.15103" lon="5.03653">
        <ele>374.57</ele>
        <time>2017-12-03T12:39:57Z</time>
      </trkpt>
      <trkpt lat="44.15102" lon="5.03644">
        <ele>375.05</ele>
        <time>2017-12-03T12:40:02Z</time>
      </trkpt>
      <trkpt lat="44.151" lon="5.03637">
        <ele>375.05</ele>
        <time>2017-12-03T12:40:07Z</time>
      </trkpt>
      <trkpt lat="44.15096" lon="5.03623">
        <ele>376.01</ele>
        <time>2017-12-03T12:40:19Z</time>
      </trkpt>
      <trkpt lat="44.15096" lon="5.03623">
        <ele>375.53</ele>
        <time>2017-12-03T12:40:23Z</time>
      </trkpt>
      <trkpt lat="44.15096" lon="5.03621">
        <ele>376.01</ele>
        <time>2017-12-03T12:40:26Z</time>
      </trkpt>
      <trkpt lat="44.15095" lon="5.03618">
        <ele>376.01</ele>
        <time>2017-12-03T12:40:39Z</time>
      </trkpt>
      <trkpt lat="44.15095" lon="5.03618">
        <ele>375.53</ele>
        <time>2017-12-03T12:40:57Z</time>
      </trkpt>
      <trkpt lat="44.15095" lon="5.03618">
        <ele>376.01</ele>
        <time>2017-12-03T12:41:30Z</time>
      </trkpt>
      <trkpt lat="44.15093" lon="5.03618">
        <ele>375.53</ele>
        <time>2017-12-03T12:41:44Z</time>
      </trkpt>
      <trkpt lat="44.15093" lon="5.03618">
        <ele>376.97</ele>
        <time>2017-12-03T12:42:09Z</time>
      </trkpt>
      <trkpt lat="44.15092" lon="5.03617">
        <ele>376.49</ele>
        <time>2017-12-03T12:42:21Z</time>
      </trkpt>
      <trkpt lat="44.15092" lon="5.03617">
        <ele>375.53</ele>
        <time>2017-12-03T12:42:48Z</time>
      </trkpt>
      <trkpt lat="44.15092" lon="5.03617">
        <ele>376.49</ele>
        <time>2017-12-03T12:43:11Z</time>
      </trkpt>
      <trkpt lat="44.15092" lon="5.03618">
        <ele>376.97</ele>
        <time>2017-12-03T12:43:21Z</time>
      </trkpt>
      <trkpt lat="44.15092" lon="5.03618">
        <ele>376.01</ele>
        <time>2017-12-03T12:43:37Z</time>
      </trkpt>
      <trkpt lat="44.15092" lon="5.03618">
        <ele>375.53</ele>
        <time>2017-12-03T12:44:09Z</time>
      </trkpt>
      <trkpt lat="44.15091" lon="5.03613">
        <ele>376.01</ele>
        <time>2017-12-03T12:44:38Z</time>
      </trkpt>
      <trkpt lat="44.1509" lon="5.03601">
        <ele>376.97</ele>
        <time>2017-12-03T12:44:49Z</time>
      </trkpt>
      <trkpt lat="44.15085" lon="5.0359">
        <ele>376.01</ele>
        <time>2017-12-03T12:44:55Z</time>
      </trkpt>
      <trkpt lat="44.15079" lon="5.03569">
        <ele>377.94</ele>
        <time>2017-12-03T12:45:07Z</time>
      </trkpt>
      <trkpt lat="44.15075" lon="5.03561">
        <ele>376.01</ele>
        <time>2017-12-03T12:45:17Z</time>
      </trkpt>
      <trkpt lat="44.15071" lon="5.03553">
        <ele>375.05</ele>
        <time>2017-12-03T12:45:26Z</time>
      </trkpt>
      <trkpt lat="44.1507" lon="5.0355">
        <ele>374.57</ele>
        <time>2017-12-03T12:45:28Z</time>
      </trkpt>
      <trkpt lat="44.15068" lon="5.03543">
        <ele>372.17</ele>
        <time>2017-12-03T12:45:34Z</time>
      </trkpt>
      <trkpt lat="44.15066" lon="5.03534">
        <ele>369.76</ele>
        <time>2017-12-03T12:45:44Z</time>
      </trkpt>
      <trkpt lat="44.15064" lon="5.03526">
        <ele>366.4</ele>
        <time>2017-12-03T12:45:55Z</time>
      </trkpt>
      <trkpt lat="44.15063" lon="5.03518">
        <ele>364.96</ele>
        <time>2017-12-03T12:46:01Z</time>
      </trkpt>
      <trkpt lat="44.15063" lon="5.03503">
        <ele>364</ele>
        <time>2017-12-03T12:46:11Z</time>
      </trkpt>
      <trkpt lat="44.15063" lon="5.03495">
        <ele>362.55</ele>
        <time>2017-12-03T12:46:22Z</time>
      </trkpt>
      <trkpt lat="44.15061" lon="5.03491">
        <ele>362.07</ele>
        <time>2017-12-03T12:46:28Z</time>
      </trkpt>
      <trkpt lat="44.15061" lon="5.03488">
        <ele>362.07</ele>
        <time>2017-12-03T12:46:33Z</time>
      </trkpt>
      <trkpt lat="44.1506" lon="5.03489">
        <ele>362.55</ele>
        <time>2017-12-03T12:46:36Z</time>
      </trkpt>
      <trkpt lat="44.15063" lon="5.0349">
        <ele>364.48</ele>
        <time>2017-12-03T12:46:41Z</time>
      </trkpt>
      <trkpt lat="44.15063" lon="5.03488">
        <ele>364.96</ele>
        <time>2017-12-03T12:46:45Z</time>
      </trkpt>
      <trkpt lat="44.15065" lon="5.03478">
        <ele>366.88</ele>
        <time>2017-12-03T12:46:55Z</time>
      </trkpt>
      <trkpt lat="44.15065" lon="5.03476">
        <ele>367.84</ele>
        <time>2017-12-03T12:46:59Z</time>
      </trkpt>
      <trkpt lat="44.15065" lon="5.03473">
        <ele>367.84</ele>
        <time>2017-12-03T12:47:03Z</time>
      </trkpt>
      <trkpt lat="44.15065" lon="5.03465">
        <ele>368.8</ele>
        <time>2017-12-03T12:47:12Z</time>
      </trkpt>
      <trkpt lat="44.15064" lon="5.03461">
        <ele>369.28</ele>
        <time>2017-12-03T12:47:22Z</time>
      </trkpt>
      <trkpt lat="44.15062" lon="5.03454">
        <ele>368.32</ele>
        <time>2017-12-03T12:47:33Z</time>
      </trkpt>
      <trkpt lat="44.15062" lon="5.03453">
        <ele>372.17</ele>
        <time>2017-12-03T12:47:34Z</time>
      </trkpt>
      <trkpt lat="44.15062" lon="5.03452">
        <ele>371.69</ele>
        <time>2017-12-03T12:47:35Z</time>
      </trkpt>
      <trkpt lat="44.15061" lon="5.03443">
        <ele>370.73</ele>
        <time>2017-12-03T12:47:44Z</time>
      </trkpt>
      <trkpt lat="44.15061" lon="5.03443">
        <ele>372.17</ele>
        <time>2017-12-03T12:47:47Z</time>
      </trkpt>
      <trkpt lat="44.15061" lon="5.03437">
        <ele>372.65</ele>
        <time>2017-12-03T12:47:53Z</time>
      </trkpt>
      <trkpt lat="44.15057" lon="5.03433">
        <ele>374.09</ele>
        <time>2017-12-03T12:47:59Z</time>
      </trkpt>
      <trkpt lat="44.15057" lon="5.03425">
        <ele>374.57</ele>
        <time>2017-12-03T12:48:07Z</time>
      </trkpt>
      <trkpt lat="44.15057" lon="5.03421">
        <ele>375.05</ele>
        <time>2017-12-03T12:48:15Z</time>
      </trkpt>
      <trkpt lat="44.15058" lon="5.03419">
        <ele>376.49</ele>
        <time>2017-12-03T12:48:18Z</time>
      </trkpt>
      <trkpt lat="44.15057" lon="5.03417">
        <ele>377.45</ele>
        <time>2017-12-03T12:48:36Z</time>
      </trkpt>
      <trkpt lat="44.15057" lon="5.03416">
        <ele>377.94</ele>
        <time>2017-12-03T12:48:51Z</time>
      </trkpt>
      <trkpt lat="44.15057" lon="5.03416">
        <ele>376.97</ele>
        <time>2017-12-03T12:48:52Z</time>
      </trkpt>
      <trkpt lat="44.15058" lon="5.03405">
        <ele>380.34</ele>
        <time>2017-12-03T12:49:03Z</time>
      </trkpt>
      <trkpt lat="44.15058" lon="5.03399">
        <ele>378.42</ele>
        <time>2017-12-03T12:49:15Z</time>
      </trkpt>
      <trkpt lat="44.15058" lon="5.03399">
        <ele>375.53</ele>
        <time>2017-12-03T12:49:22Z</time>
      </trkpt>
      <trkpt lat="44.15059" lon="5.03387">
        <ele>375.05</ele>
        <time>2017-12-03T12:49:30Z</time>
      </trkpt>
      <trkpt lat="44.15059" lon="5.03378">
        <ele>378.42</ele>
        <time>2017-12-03T12:49:39Z</time>
      </trkpt>
      <trkpt lat="44.15062" lon="5.03372">
        <ele>379.86</ele>
        <time>2017-12-03T12:49:49Z</time>
      </trkpt>
      <trkpt lat="44.15063" lon="5.0336">
        <ele>382.26</ele>
        <time>2017-12-03T12:49:57Z</time>
      </trkpt>
      <trkpt lat="44.15064" lon="5.03353">
        <ele>384.18</ele>
        <time>2017-12-03T12:50:06Z</time>
      </trkpt>
      <trkpt lat="44.15064" lon="5.03353">
        <ele>384.18</ele>
        <time>2017-12-03T12:50:08Z</time>
      </trkpt>
      <trkpt lat="44.15063" lon="5.03345">
        <ele>383.22</ele>
        <time>2017-12-03T12:50:13Z</time>
      </trkpt>
      <trkpt lat="44.15064" lon="5.03336">
        <ele>386.11</ele>
        <time>2017-12-03T12:50:24Z</time>
      </trkpt>
      <trkpt lat="44.15064" lon="5.03336">
        <ele>386.11</ele>
        <time>2017-12-03T12:50:25Z</time>
      </trkpt>
      <trkpt lat="44.15064" lon="5.03336">
        <ele>386.11</ele>
        <time>2017-12-03T12:50:27Z</time>
      </trkpt>
      <trkpt lat="44.1506" lon="5.0332">
        <ele>383.7</ele>
        <time>2017-12-03T12:50:38Z</time>
      </trkpt>
      <trkpt lat="44.1506" lon="5.0332">
        <ele>382.74</ele>
        <time>2017-12-03T12:50:59Z</time>
      </trkpt>
      <trkpt lat="44.15058" lon="5.03315">
        <ele>381.78</ele>
        <time>2017-12-03T12:51:07Z</time>
      </trkpt>
      <trkpt lat="44.15055" lon="5.03304">
        <ele>385.15</ele>
        <time>2017-12-03T12:51:13Z</time>
      </trkpt>
      <trkpt lat="44.15055" lon="5.03303">
        <ele>385.63</ele>
        <time>2017-12-03T12:51:14Z</time>
      </trkpt>
      <trkpt lat="44.15056" lon="5.03297">
        <ele>386.59</ele>
        <time>2017-12-03T12:51:22Z</time>
      </trkpt>
      <trkpt lat="44.15056" lon="5.03288">
        <ele>387.55</ele>
        <time>2017-12-03T12:51:31Z</time>
      </trkpt>
      <trkpt lat="44.15053" lon="5.03279">
        <ele>386.59</ele>
        <time>2017-12-03T12:51:39Z</time>
      </trkpt>
      <trkpt lat="44.15049" lon="5.03257">
        <ele>387.55</ele>
        <time>2017-12-03T12:51:48Z</time>
      </trkpt>
      <trkpt lat="44.15046" lon="5.03239">
        <ele>388.99</ele>
        <time>2017-12-03T12:52:00Z</time>
      </trkpt>
      <trkpt lat="44.15046" lon="5.03237">
        <ele>388.03</ele>
        <time>2017-12-03T12:52:04Z</time>
      </trkpt>
      <trkpt lat="44.15044" lon="5.03233">
        <ele>387.07</ele>
        <time>2017-12-03T12:52:06Z</time>
      </trkpt>
      <trkpt lat="44.15043" lon="5.03231">
        <ele>386.59</ele>
        <time>2017-12-03T12:52:08Z</time>
      </trkpt>
      <trkpt lat="44.15042" lon="5.03229">
        <ele>386.59</ele>
        <time>2017-12-03T12:52:09Z</time>
      </trkpt>
      <trkpt lat="44.1504" lon="5.0322">
        <ele>387.55</ele>
        <time>2017-12-03T12:52:15Z</time>
      </trkpt>
      <trkpt lat="44.15037" lon="5.03204">
        <ele>385.63</ele>
        <time>2017-12-03T12:52:23Z</time>
      </trkpt>
      <trkpt lat="44.15039" lon="5.03199">
        <ele>388.03</ele>
        <time>2017-12-03T12:52:28Z</time>
      </trkpt>
      <trkpt lat="44.15037" lon="5.03195">
        <ele>387.55</ele>
        <time>2017-12-03T12:52:32Z</time>
      </trkpt>
      <trkpt lat="44.15033" lon="5.03191">
        <ele>385.15</ele>
        <time>2017-12-03T12:52:41Z</time>
      </trkpt>
      <trkpt lat="44.15032" lon="5.0319">
        <ele>384.66</ele>
        <time>2017-12-03T12:52:42Z</time>
      </trkpt>
      <trkpt lat="44.1503" lon="5.03189">
        <ele>383.7</ele>
        <time>2017-12-03T12:52:45Z</time>
      </trkpt>
      <trkpt lat="44.15029" lon="5.03184">
        <ele>383.7</ele>
        <time>2017-12-03T12:52:50Z</time>
      </trkpt>
      <trkpt lat="44.15026" lon="5.03183">
        <ele>383.7</ele>
        <time>2017-12-03T12:53:00Z</time>
      </trkpt>
      <trkpt lat="44.15025" lon="5.03177">
        <ele>384.66</ele>
        <time>2017-12-03T12:53:10Z</time>
      </trkpt>
      <trkpt lat="44.15026" lon="5.03181">
        <ele>384.66</ele>
        <time>2017-12-03T12:53:24Z</time>
      </trkpt>
      <trkpt lat="44.15027" lon="5.0318">
        <ele>387.55</ele>
        <time>2017-12-03T12:53:55Z</time>
      </trkpt>
      <trkpt lat="44.15024" lon="5.03173">
        <ele>384.18</ele>
        <time>2017-12-03T12:54:00Z</time>
      </trkpt>
      <trkpt lat="44.15023" lon="5.03173">
        <ele>383.22</ele>
        <time>2017-12-03T12:54:08Z</time>
      </trkpt>
      <trkpt lat="44.15022" lon="5.03171">
        <ele>382.26</ele>
        <time>2017-12-03T12:54:10Z</time>
      </trkpt>
      <trkpt lat="44.1502" lon="5.0317">
        <ele>382.26</ele>
        <time>2017-12-03T12:54:12Z</time>
      </trkpt>
      <trkpt lat="44.15018" lon="5.03168">
        <ele>382.26</ele>
        <time>2017-12-03T12:54:14Z</time>
      </trkpt>
      <trkpt lat="44.15017" lon="5.0316">
        <ele>384.18</ele>
        <time>2017-12-03T12:54:18Z</time>
      </trkpt>
      <trkpt lat="44.15011" lon="5.03152">
        <ele>383.22</ele>
        <time>2017-12-03T12:54:28Z</time>
      </trkpt>
      <trkpt lat="44.15009" lon="5.0315">
        <ele>381.3</ele>
        <time>2017-12-03T12:54:43Z</time>
      </trkpt>
      <trkpt lat="44.15009" lon="5.03149">
        <ele>382.26</ele>
        <time>2017-12-03T12:54:52Z</time>
      </trkpt>
      <trkpt lat="44.15002" lon="5.03137">
        <ele>382.74</ele>
        <time>2017-12-03T12:55:01Z</time>
      </trkpt>
      <trkpt lat="44.15003" lon="5.03136">
        <ele>384.66</ele>
        <time>2017-12-03T12:55:10Z</time>
      </trkpt>
      <trkpt lat="44.15003" lon="5.03134">
        <ele>388.03</ele>
        <time>2017-12-03T12:55:14Z</time>
      </trkpt>
      <trkpt lat="44.15003" lon="5.03134">
        <ele>388.03</ele>
        <time>2017-12-03T12:55:15Z</time>
      </trkpt>
      <trkpt lat="44.15006" lon="5.03132">
        <ele>388.99</ele>
        <time>2017-12-03T12:55:23Z</time>
      </trkpt>
      <trkpt lat="44.15009" lon="5.03131">
        <ele>389.95</ele>
        <time>2017-12-03T12:55:32Z</time>
      </trkpt>
      <trkpt lat="44.15011" lon="5.03129">
        <ele>394.28</ele>
        <time>2017-12-03T12:55:40Z</time>
      </trkpt>
      <trkpt lat="44.15012" lon="5.03128">
        <ele>394.28</ele>
        <time>2017-12-03T12:55:41Z</time>
      </trkpt>
      <trkpt lat="44.15013" lon="5.03125">
        <ele>396.68</ele>
        <time>2017-12-03T12:55:46Z</time>
      </trkpt>
      <trkpt lat="44.15017" lon="5.03112">
        <ele>400.05</ele>
        <time>2017-12-03T12:55:57Z</time>
      </trkpt>
      <trkpt lat="44.15016" lon="5.03112">
        <ele>400.53</ele>
        <time>2017-12-03T12:55:59Z</time>
      </trkpt>
      <trkpt lat="44.15011" lon="5.03106">
        <ele>399.08</ele>
        <time>2017-12-03T12:56:05Z</time>
      </trkpt>
      <trkpt lat="44.15013" lon="5.03095">
        <ele>401.49</ele>
        <time>2017-12-03T12:56:13Z</time>
      </trkpt>
      <trkpt lat="44.15013" lon="5.03094">
        <ele>401.01</ele>
        <time>2017-12-03T12:56:14Z</time>
      </trkpt>
      <trkpt lat="44.15012" lon="5.03084">
        <ele>403.41</ele>
        <time>2017-12-03T12:56:27Z</time>
      </trkpt>
      <trkpt lat="44.15011" lon="5.03081">
        <ele>404.85</ele>
        <time>2017-12-03T12:56:29Z</time>
      </trkpt>
      <trkpt lat="44.15011" lon="5.03075">
        <ele>405.81</ele>
        <time>2017-12-03T12:56:40Z</time>
      </trkpt>
      <trkpt lat="44.15012" lon="5.03075">
        <ele>407.74</ele>
        <time>2017-12-03T12:56:45Z</time>
      </trkpt>
      <trkpt lat="44.15014" lon="5.03079">
        <ele>409.66</ele>
        <time>2017-12-03T12:56:52Z</time>
      </trkpt>
      <trkpt lat="44.15017" lon="5.03072">
        <ele>413.5</ele>
        <time>2017-12-03T12:57:02Z</time>
      </trkpt>
      <trkpt lat="44.15017" lon="5.03072">
        <ele>413.98</ele>
        <time>2017-12-03T12:57:04Z</time>
      </trkpt>
      <trkpt lat="44.15019" lon="5.03069">
        <ele>416.39</ele>
        <time>2017-12-03T12:57:07Z</time>
      </trkpt>
      <trkpt lat="44.15024" lon="5.03061">
        <ele>417.83</ele>
        <time>2017-12-03T12:57:17Z</time>
      </trkpt>
      <trkpt lat="44.15024" lon="5.03062">
        <ele>416.39</ele>
        <time>2017-12-03T12:57:19Z</time>
      </trkpt>
      <trkpt lat="44.15026" lon="5.03063">
        <ele>417.83</ele>
        <time>2017-12-03T12:57:23Z</time>
      </trkpt>
      <trkpt lat="44.15029" lon="5.03062">
        <ele>419.27</ele>
        <time>2017-12-03T12:57:26Z</time>
      </trkpt>
      <trkpt lat="44.1503" lon="5.03062">
        <ele>420.71</ele>
        <time>2017-12-03T12:57:29Z</time>
      </trkpt>
      <trkpt lat="44.1503" lon="5.03061">
        <ele>419.27</ele>
        <time>2017-12-03T12:57:44Z</time>
      </trkpt>
      <trkpt lat="44.1503" lon="5.03061">
        <ele>419.75</ele>
        <time>2017-12-03T12:58:01Z</time>
      </trkpt>
      <trkpt lat="44.1503" lon="5.03062">
        <ele>422.16</ele>
        <time>2017-12-03T12:58:18Z</time>
      </trkpt>
      <trkpt lat="44.1503" lon="5.03062">
        <ele>422.16</ele>
        <time>2017-12-03T12:58:39Z</time>
      </trkpt>
      <trkpt lat="44.1503" lon="5.03061">
        <ele>420.71</ele>
        <time>2017-12-03T12:58:58Z</time>
      </trkpt>
      <trkpt lat="44.1503" lon="5.03061">
        <ele>420.71</ele>
        <time>2017-12-03T12:59:19Z</time>
      </trkpt>
      <trkpt lat="44.15031" lon="5.03058">
        <ele>420.23</ele>
        <time>2017-12-03T12:59:22Z</time>
      </trkpt>
      <trkpt lat="44.15033" lon="5.03052">
        <ele>421.68</ele>
        <time>2017-12-03T12:59:32Z</time>
      </trkpt>
      <trkpt lat="44.15035" lon="5.03051">
        <ele>422.64</ele>
        <time>2017-12-03T12:59:39Z</time>
      </trkpt>
      <trkpt lat="44.1504" lon="5.03048">
        <ele>423.12</ele>
        <time>2017-12-03T12:59:48Z</time>
      </trkpt>
      <trkpt lat="44.15045" lon="5.03049">
        <ele>425.04</ele>
        <time>2017-12-03T12:59:59Z</time>
      </trkpt>
      <trkpt lat="44.15042" lon="5.03047">
        <ele>423.6</ele>
        <time>2017-12-03T13:00:08Z</time>
      </trkpt>
      <trkpt lat="44.1504" lon="5.0304">
        <ele>419.75</ele>
        <time>2017-12-03T13:00:15Z</time>
      </trkpt>
      <trkpt lat="44.15036" lon="5.03034">
        <ele>418.31</ele>
        <time>2017-12-03T13:00:26Z</time>
      </trkpt>
      <trkpt lat="44.15034" lon="5.03029">
        <ele>418.31</ele>
        <time>2017-12-03T13:00:29Z</time>
      </trkpt>
      <trkpt lat="44.15029" lon="5.03018">
        <ele>416.39</ele>
        <time>2017-12-03T13:00:36Z</time>
      </trkpt>
      <trkpt lat="44.15025" lon="5.03005">
        <ele>414.47</ele>
        <time>2017-12-03T13:00:45Z</time>
      </trkpt>
      <trkpt lat="44.1502" lon="5.02994">
        <ele>415.43</ele>
        <time>2017-12-03T13:00:54Z</time>
      </trkpt>
      <trkpt lat="44.15018" lon="5.02993">
        <ele>414.95</ele>
        <time>2017-12-03T13:00:58Z</time>
      </trkpt>
      <trkpt lat="44.15017" lon="5.02992">
        <ele>415.43</ele>
        <time>2017-12-03T13:01:02Z</time>
      </trkpt>
      <trkpt lat="44.15017" lon="5.02989">
        <ele>417.35</ele>
        <time>2017-12-03T13:01:06Z</time>
      </trkpt>
      <trkpt lat="44.15018" lon="5.02983">
        <ele>419.27</ele>
        <time>2017-12-03T13:01:13Z</time>
      </trkpt>
      <trkpt lat="44.15019" lon="5.02978">
        <ele>420.23</ele>
        <time>2017-12-03T13:01:16Z</time>
      </trkpt>
      <trkpt lat="44.1502" lon="5.02977">
        <ele>420.71</ele>
        <time>2017-12-03T13:01:18Z</time>
      </trkpt>
      <trkpt lat="44.1502" lon="5.02975">
        <ele>421.68</ele>
        <time>2017-12-03T13:01:20Z</time>
      </trkpt>
      <trkpt lat="44.15016" lon="5.02964">
        <ele>424.08</ele>
        <time>2017-12-03T13:01:32Z</time>
      </trkpt>
      <trkpt lat="44.15014" lon="5.0296">
        <ele>424.08</ele>
        <time>2017-12-03T13:01:43Z</time>
      </trkpt>
      <trkpt lat="44.15014" lon="5.02961">
        <ele>422.16</ele>
        <time>2017-12-03T13:01:55Z</time>
      </trkpt>
      <trkpt lat="44.15014" lon="5.02961">
        <ele>424.56</ele>
        <time>2017-12-03T13:02:10Z</time>
      </trkpt>
      <trkpt lat="44.15014" lon="5.02961">
        <ele>421.19</ele>
        <time>2017-12-03T13:02:20Z</time>
      </trkpt>
      <trkpt lat="44.15015" lon="5.02955">
        <ele>422.16</ele>
        <time>2017-12-03T13:02:40Z</time>
      </trkpt>
      <trkpt lat="44.15016" lon="5.02946">
        <ele>424.56</ele>
        <time>2017-12-03T13:02:46Z</time>
      </trkpt>
      <trkpt lat="44.15017" lon="5.0294">
        <ele>426</ele>
        <time>2017-12-03T13:02:50Z</time>
      </trkpt>
      <trkpt lat="44.15017" lon="5.02935">
        <ele>425.52</ele>
        <time>2017-12-03T13:02:54Z</time>
      </trkpt>
      <trkpt lat="44.15016" lon="5.02923">
        <ele>426</ele>
        <time>2017-12-03T13:03:04Z</time>
      </trkpt>
      <trkpt lat="44.15018" lon="5.02912">
        <ele>425.04</ele>
        <time>2017-12-03T13:03:15Z</time>
      </trkpt>
      <trkpt lat="44.15017" lon="5.02909">
        <ele>426.48</ele>
        <time>2017-12-03T13:03:22Z</time>
      </trkpt>
      <trkpt lat="44.15017" lon="5.02897">
        <ele>427.92</ele>
        <time>2017-12-03T13:03:30Z</time>
      </trkpt>
      <trkpt lat="44.15019" lon="5.02891">
        <ele>427.92</ele>
        <time>2017-12-03T13:03:35Z</time>
      </trkpt>
      <trkpt lat="44.15022" lon="5.02885">
        <ele>427.92</ele>
        <time>2017-12-03T13:03:40Z</time>
      </trkpt>
      <trkpt lat="44.15023" lon="5.0288">
        <ele>429.37</ele>
        <time>2017-12-03T13:03:43Z</time>
      </trkpt>
      <trkpt lat="44.15025" lon="5.02873">
        <ele>430.33</ele>
        <time>2017-12-03T13:03:49Z</time>
      </trkpt>
      <trkpt lat="44.15026" lon="5.02866">
        <ele>431.29</ele>
        <time>2017-12-03T13:03:55Z</time>
      </trkpt>
      <trkpt lat="44.15026" lon="5.02853">
        <ele>432.25</ele>
        <time>2017-12-03T13:04:06Z</time>
      </trkpt>
      <trkpt lat="44.15026" lon="5.02852">
        <ele>430.33</ele>
        <time>2017-12-03T13:04:12Z</time>
      </trkpt>
      <trkpt lat="44.15027" lon="5.02843">
        <ele>431.29</ele>
        <time>2017-12-03T13:04:18Z</time>
      </trkpt>
      <trkpt lat="44.1503" lon="5.02826">
        <ele>432.25</ele>
        <time>2017-12-03T13:04:28Z</time>
      </trkpt>
      <trkpt lat="44.15033" lon="5.02808">
        <ele>433.21</ele>
        <time>2017-12-03T13:04:39Z</time>
      </trkpt>
      <trkpt lat="44.15034" lon="5.02805">
        <ele>434.17</ele>
        <time>2017-12-03T13:04:41Z</time>
      </trkpt>
      <trkpt lat="44.15035" lon="5.02795">
        <ele>434.65</ele>
        <time>2017-12-03T13:04:49Z</time>
      </trkpt>
      <trkpt lat="44.15036" lon="5.02787">
        <ele>435.13</ele>
        <time>2017-12-03T13:04:57Z</time>
      </trkpt>
      <trkpt lat="44.15035" lon="5.02788">
        <ele>437.54</ele>
        <time>2017-12-03T13:05:10Z</time>
      </trkpt>
      <trkpt lat="44.15034" lon="5.02788">
        <ele>437.06</ele>
        <time>2017-12-03T13:05:44Z</time>
      </trkpt>
      <trkpt lat="44.15034" lon="5.02787">
        <ele>437.06</ele>
        <time>2017-12-03T13:05:45Z</time>
      </trkpt>
      <trkpt lat="44.15036" lon="5.0278">
        <ele>435.61</ele>
        <time>2017-12-03T13:05:51Z</time>
      </trkpt>
      <trkpt lat="44.15033" lon="5.02771">
        <ele>436.58</ele>
        <time>2017-12-03T13:06:00Z</time>
      </trkpt>
      <trkpt lat="44.15032" lon="5.02767">
        <ele>438.02</ele>
        <time>2017-12-03T13:06:03Z</time>
      </trkpt>
      <trkpt lat="44.1503" lon="5.02764">
        <ele>440.9</ele>
        <time>2017-12-03T13:06:09Z</time>
      </trkpt>
      <trkpt lat="44.1503" lon="5.02758">
        <ele>441.38</ele>
        <time>2017-12-03T13:06:14Z</time>
      </trkpt>
      <trkpt lat="44.1503" lon="5.02752">
        <ele>443.31</ele>
        <time>2017-12-03T13:06:21Z</time>
      </trkpt>
      <trkpt lat="44.1503" lon="5.02738">
        <ele>446.19</ele>
        <time>2017-12-03T13:06:32Z</time>
      </trkpt>
      <trkpt lat="44.15029" lon="5.02731">
        <ele>448.11</ele>
        <time>2017-12-03T13:06:38Z</time>
      </trkpt>
      <trkpt lat="44.1503" lon="5.0272">
        <ele>448.59</ele>
        <time>2017-12-03T13:06:46Z</time>
      </trkpt>
      <trkpt lat="44.1503" lon="5.02717">
        <ele>449.07</ele>
        <time>2017-12-03T13:06:47Z</time>
      </trkpt>
      <trkpt lat="44.15032" lon="5.02712">
        <ele>449.07</ele>
        <time>2017-12-03T13:06:51Z</time>
      </trkpt>
      <trkpt lat="44.15035" lon="5.02705">
        <ele>448.59</ele>
        <time>2017-12-03T13:06:56Z</time>
      </trkpt>
      <trkpt lat="44.15038" lon="5.02692">
        <ele>449.07</ele>
        <time>2017-12-03T13:07:04Z</time>
      </trkpt>
      <trkpt lat="44.15039" lon="5.02684">
        <ele>449.07</ele>
        <time>2017-12-03T13:07:08Z</time>
      </trkpt>
      <trkpt lat="44.1504" lon="5.02677">
        <ele>449.07</ele>
        <time>2017-12-03T13:07:12Z</time>
      </trkpt>
      <trkpt lat="44.15041" lon="5.0267">
        <ele>449.07</ele>
        <time>2017-12-03T13:07:16Z</time>
      </trkpt>
      <trkpt lat="44.15044" lon="5.02659">
        <ele>448.59</ele>
        <time>2017-12-03T13:07:22Z</time>
      </trkpt>
      <trkpt lat="44.15045" lon="5.02656">
        <ele>449.07</ele>
        <time>2017-12-03T13:07:25Z</time>
      </trkpt>
      <trkpt lat="44.1505" lon="5.02637">
        <ele>451</ele>
        <time>2017-12-03T13:07:40Z</time>
      </trkpt>
      <trkpt lat="44.15052" lon="5.02626">
        <ele>451.48</ele>
        <time>2017-12-03T13:07:47Z</time>
      </trkpt>
      <trkpt lat="44.15054" lon="5.02617">
        <ele>451.48</ele>
        <time>2017-12-03T13:07:52Z</time>
      </trkpt>
      <trkpt lat="44.15057" lon="5.02609">
        <ele>453.88</ele>
        <time>2017-12-03T13:07:59Z</time>
      </trkpt>
      <trkpt lat="44.15057" lon="5.02608">
        <ele>453.88</ele>
        <time>2017-12-03T13:08:00Z</time>
      </trkpt>
      <trkpt lat="44.15058" lon="5.02605">
        <ele>453.4</ele>
        <time>2017-12-03T13:08:02Z</time>
      </trkpt>
      <trkpt lat="44.1506" lon="5.02596">
        <ele>453.88</ele>
        <time>2017-12-03T13:08:08Z</time>
      </trkpt>
      <trkpt lat="44.15061" lon="5.02589">
        <ele>457.24</ele>
        <time>2017-12-03T13:08:13Z</time>
      </trkpt>
      <trkpt lat="44.15066" lon="5.02575">
        <ele>458.21</ele>
        <time>2017-12-03T13:08:23Z</time>
      </trkpt>
      <trkpt lat="44.15068" lon="5.02563">
        <ele>459.65</ele>
        <time>2017-12-03T13:08:31Z</time>
      </trkpt>
      <trkpt lat="44.15069" lon="5.02555">
        <ele>457.72</ele>
        <time>2017-12-03T13:08:35Z</time>
      </trkpt>
      <trkpt lat="44.15069" lon="5.0255">
        <ele>458.69</ele>
        <time>2017-12-03T13:08:38Z</time>
      </trkpt>
      <trkpt lat="44.15072" lon="5.02539">
        <ele>457.24</ele>
        <time>2017-12-03T13:08:45Z</time>
      </trkpt>
      <trkpt lat="44.15078" lon="5.02518">
        <ele>454.84</ele>
        <time>2017-12-03T13:08:56Z</time>
      </trkpt>
      <trkpt lat="44.15082" lon="5.02502">
        <ele>451.96</ele>
        <time>2017-12-03T13:09:07Z</time>
      </trkpt>
      <trkpt lat="44.15084" lon="5.02498">
        <ele>451.96</ele>
        <time>2017-12-03T13:09:11Z</time>
      </trkpt>
      <trkpt lat="44.15086" lon="5.02487">
        <ele>453.4</ele>
        <time>2017-12-03T13:09:17Z</time>
      </trkpt>
      <trkpt lat="44.15087" lon="5.02482">
        <ele>453.88</ele>
        <time>2017-12-03T13:09:20Z</time>
      </trkpt>
      <trkpt lat="44.15088" lon="5.02476">
        <ele>454.84</ele>
        <time>2017-12-03T13:09:24Z</time>
      </trkpt>
      <trkpt lat="44.15088" lon="5.02471">
        <ele>452.92</ele>
        <time>2017-12-03T13:09:28Z</time>
      </trkpt>
      <trkpt lat="44.15089" lon="5.02456">
        <ele>453.4</ele>
        <time>2017-12-03T13:09:38Z</time>
      </trkpt>
      <trkpt lat="44.1509" lon="5.0245">
        <ele>454.36</ele>
        <time>2017-12-03T13:09:42Z</time>
      </trkpt>
      <trkpt lat="44.1509" lon="5.02446">
        <ele>454.84</ele>
        <time>2017-12-03T13:09:44Z</time>
      </trkpt>
      <trkpt lat="44.15091" lon="5.02443">
        <ele>454.84</ele>
        <time>2017-12-03T13:09:46Z</time>
      </trkpt>
      <trkpt lat="44.15095" lon="5.02433">
        <ele>455.32</ele>
        <time>2017-12-03T13:09:53Z</time>
      </trkpt>
      <trkpt lat="44.15097" lon="5.02423">
        <ele>454.84</ele>
        <time>2017-12-03T13:09:58Z</time>
      </trkpt>
      <trkpt lat="44.151" lon="5.02418">
        <ele>455.32</ele>
        <time>2017-12-03T13:10:03Z</time>
      </trkpt>
      <trkpt lat="44.15103" lon="5.02411">
        <ele>455.32</ele>
        <time>2017-12-03T13:10:07Z</time>
      </trkpt>
      <trkpt lat="44.15105" lon="5.02401">
        <ele>455.8</ele>
        <time>2017-12-03T13:10:14Z</time>
      </trkpt>
      <trkpt lat="44.15108" lon="5.02388">
        <ele>456.28</ele>
        <time>2017-12-03T13:10:23Z</time>
      </trkpt>
      <trkpt lat="44.1511" lon="5.02377">
        <ele>456.28</ele>
        <time>2017-12-03T13:10:28Z</time>
      </trkpt>
      <trkpt lat="44.15111" lon="5.02373">
        <ele>456.28</ele>
        <time>2017-12-03T13:10:31Z</time>
      </trkpt>
      <trkpt lat="44.15114" lon="5.02362">
        <ele>456.28</ele>
        <time>2017-12-03T13:10:39Z</time>
      </trkpt>
      <trkpt lat="44.15118" lon="5.02346">
        <ele>456.28</ele>
        <time>2017-12-03T13:10:49Z</time>
      </trkpt>
      <trkpt lat="44.15121" lon="5.02336">
        <ele>455.8</ele>
        <time>2017-12-03T13:10:54Z</time>
      </trkpt>
      <trkpt lat="44.15124" lon="5.02323">
        <ele>455.8</ele>
        <time>2017-12-03T13:11:02Z</time>
      </trkpt>
      <trkpt lat="44.15128" lon="5.0231">
        <ele>455.8</ele>
        <time>2017-12-03T13:11:10Z</time>
      </trkpt>
      <trkpt lat="44.15132" lon="5.02299">
        <ele>455.8</ele>
        <time>2017-12-03T13:11:16Z</time>
      </trkpt>
      <trkpt lat="44.15133" lon="5.02293">
        <ele>455.8</ele>
        <time>2017-12-03T13:11:20Z</time>
      </trkpt>
      <trkpt lat="44.15139" lon="5.02274">
        <ele>455.8</ele>
        <time>2017-12-03T13:11:32Z</time>
      </trkpt>
      <trkpt lat="44.15141" lon="5.02271">
        <ele>456.28</ele>
        <time>2017-12-03T13:11:35Z</time>
      </trkpt>
      <trkpt lat="44.15144" lon="5.02261">
        <ele>455.8</ele>
        <time>2017-12-03T13:11:44Z</time>
      </trkpt>
      <trkpt lat="44.15147" lon="5.02256">
        <ele>456.28</ele>
        <time>2017-12-03T13:11:48Z</time>
      </trkpt>
      <trkpt lat="44.1515" lon="5.0225">
        <ele>456.28</ele>
        <time>2017-12-03T13:11:52Z</time>
      </trkpt>
      <trkpt lat="44.15156" lon="5.02239">
        <ele>456.28</ele>
        <time>2017-12-03T13:12:01Z</time>
      </trkpt>
      <trkpt lat="44.15158" lon="5.02236">
        <ele>456.28</ele>
        <time>2017-12-03T13:12:04Z</time>
      </trkpt>
      <trkpt lat="44.15163" lon="5.02224">
        <ele>456.76</ele>
        <time>2017-12-03T13:12:13Z</time>
      </trkpt>
      <trkpt lat="44.15171" lon="5.02203">
        <ele>456.76</ele>
        <time>2017-12-03T13:12:25Z</time>
      </trkpt>
      <trkpt lat="44.15177" lon="5.02191">
        <ele>456.76</ele>
        <time>2017-12-03T13:12:31Z</time>
      </trkpt>
      <trkpt lat="44.15188" lon="5.02172">
        <ele>456.28</ele>
        <time>2017-12-03T13:12:43Z</time>
      </trkpt>
      <trkpt lat="44.15194" lon="5.02162">
        <ele>456.76</ele>
        <time>2017-12-03T13:12:51Z</time>
      </trkpt>
      <trkpt lat="44.152" lon="5.02151">
        <ele>456.28</ele>
        <time>2017-12-03T13:13:00Z</time>
      </trkpt>
      <trkpt lat="44.15204" lon="5.02142">
        <ele>456.76</ele>
        <time>2017-12-03T13:13:05Z</time>
      </trkpt>
      <trkpt lat="44.15206" lon="5.02135">
        <ele>456.76</ele>
        <time>2017-12-03T13:13:08Z</time>
      </trkpt>
      <trkpt lat="44.15205" lon="5.02114">
        <ele>458.69</ele>
        <time>2017-12-03T13:13:21Z</time>
      </trkpt>
      <trkpt lat="44.15207" lon="5.02096">
        <ele>459.17</ele>
        <time>2017-12-03T13:13:32Z</time>
      </trkpt>
      <trkpt lat="44.15207" lon="5.02077">
        <ele>459.17</ele>
        <time>2017-12-03T13:13:44Z</time>
      </trkpt>
      <trkpt lat="44.15207" lon="5.02075">
        <ele>459.17</ele>
        <time>2017-12-03T13:13:45Z</time>
      </trkpt>
      <trkpt lat="44.15207" lon="5.02072">
        <ele>459.17</ele>
        <time>2017-12-03T13:13:47Z</time>
      </trkpt>
      <trkpt lat="44.15207" lon="5.02066">
        <ele>458.69</ele>
        <time>2017-12-03T13:13:50Z</time>
      </trkpt>
      <trkpt lat="44.15209" lon="5.02057">
        <ele>458.21</ele>
        <time>2017-12-03T13:13:55Z</time>
      </trkpt>
      <trkpt lat="44.15211" lon="5.02046">
        <ele>454.36</ele>
        <time>2017-12-03T13:14:07Z</time>
      </trkpt>
      <trkpt lat="44.15212" lon="5.02042">
        <ele>451.96</ele>
        <time>2017-12-03T13:14:17Z</time>
      </trkpt>
      <trkpt lat="44.15211" lon="5.02033">
        <ele>449.55</ele>
        <time>2017-12-03T13:14:28Z</time>
      </trkpt>
      <trkpt lat="44.15211" lon="5.02026">
        <ele>448.11</ele>
        <time>2017-12-03T13:14:34Z</time>
      </trkpt>
      <trkpt lat="44.15208" lon="5.0201">
        <ele>446.19</ele>
        <time>2017-12-03T13:14:46Z</time>
      </trkpt>
      <trkpt lat="44.15213" lon="5.02008">
        <ele>442.82</ele>
        <time>2017-12-03T13:14:57Z</time>
      </trkpt>
      <trkpt lat="44.15216" lon="5.0201">
        <ele>441.86</ele>
        <time>2017-12-03T13:15:00Z</time>
      </trkpt>
      <trkpt lat="44.15221" lon="5.02009">
        <ele>441.86</ele>
        <time>2017-12-03T13:15:12Z</time>
      </trkpt>
      <trkpt lat="44.15224" lon="5.02008">
        <ele>443.79</ele>
        <time>2017-12-03T13:15:14Z</time>
      </trkpt>
      <trkpt lat="44.15226" lon="5.02006">
        <ele>441.86</ele>
        <time>2017-12-03T13:15:15Z</time>
      </trkpt>
      <trkpt lat="44.15234" lon="5.02">
        <ele>440.9</ele>
        <time>2017-12-03T13:15:21Z</time>
      </trkpt>
      <trkpt lat="44.1525" lon="5.01998">
        <ele>439.94</ele>
        <time>2017-12-03T13:15:33Z</time>
      </trkpt>
      <trkpt lat="44.15257" lon="5.01996">
        <ele>440.42</ele>
        <time>2017-12-03T13:15:43Z</time>
      </trkpt>
      <trkpt lat="44.15259" lon="5.01996">
        <ele>440.9</ele>
        <time>2017-12-03T13:15:45Z</time>
      </trkpt>
      <trkpt lat="44.1527" lon="5.01991">
        <ele>441.38</ele>
        <time>2017-12-03T13:15:54Z</time>
      </trkpt>
      <trkpt lat="44.15279" lon="5.01983">
        <ele>442.82</ele>
        <time>2017-12-03T13:16:03Z</time>
      </trkpt>
      <trkpt lat="44.15281" lon="5.01979">
        <ele>442.34</ele>
        <time>2017-12-03T13:16:06Z</time>
      </trkpt>
      <trkpt lat="44.15286" lon="5.01967">
        <ele>442.34</ele>
        <time>2017-12-03T13:16:18Z</time>
      </trkpt>
      <trkpt lat="44.15288" lon="5.01966">
        <ele>435.61</ele>
        <time>2017-12-03T13:16:22Z</time>
      </trkpt>
      <trkpt lat="44.15288" lon="5.01966">
        <ele>452.44</ele>
        <time>2017-12-03T13:16:23Z</time>
      </trkpt>
      <trkpt lat="44.15288" lon="5.01966">
        <ele>443.31</ele>
        <time>2017-12-03T13:16:24Z</time>
      </trkpt>
      <trkpt lat="44.15289" lon="5.01961">
        <ele>436.1</ele>
        <time>2017-12-03T13:16:28Z</time>
      </trkpt>
      <trkpt lat="44.15289" lon="5.0196">
        <ele>446.67</ele>
        <time>2017-12-03T13:16:29Z</time>
      </trkpt>
      <trkpt lat="44.1529" lon="5.01959">
        <ele>440.9</ele>
        <time>2017-12-03T13:16:30Z</time>
      </trkpt>
      <trkpt lat="44.15292" lon="5.01955">
        <ele>444.27</ele>
        <time>2017-12-03T13:16:34Z</time>
      </trkpt>
      <trkpt lat="44.15292" lon="5.01954">
        <ele>442.34</ele>
        <time>2017-12-03T13:16:35Z</time>
      </trkpt>
      <trkpt lat="44.15293" lon="5.01951">
        <ele>442.82</ele>
        <time>2017-12-03T13:16:46Z</time>
      </trkpt>
      <trkpt lat="44.15293" lon="5.0195">
        <ele>442.34</ele>
        <time>2017-12-03T13:16:49Z</time>
      </trkpt>
      <trkpt lat="44.15295" lon="5.01944">
        <ele>442.82</ele>
        <time>2017-12-03T13:16:58Z</time>
      </trkpt>
      <trkpt lat="44.15297" lon="5.01941">
        <ele>442.82</ele>
        <time>2017-12-03T13:17:03Z</time>
      </trkpt>
      <trkpt lat="44.15301" lon="5.01939">
        <ele>442.82</ele>
        <time>2017-12-03T13:17:08Z</time>
      </trkpt>
      <trkpt lat="44.15305" lon="5.0194">
        <ele>446.19</ele>
        <time>2017-12-03T13:17:19Z</time>
      </trkpt>
      <trkpt lat="44.15306" lon="5.0194">
        <ele>447.63</ele>
        <time>2017-12-03T13:17:23Z</time>
      </trkpt>
      <trkpt lat="44.15309" lon="5.0195">
        <ele>448.59</ele>
        <time>2017-12-03T13:17:35Z</time>
      </trkpt>
      <trkpt lat="44.15313" lon="5.01949">
        <ele>451.96</ele>
        <time>2017-12-03T13:17:44Z</time>
      </trkpt>
      <trkpt lat="44.15317" lon="5.0195">
        <ele>453.4</ele>
        <time>2017-12-03T13:17:55Z</time>
      </trkpt>
      <trkpt lat="44.15321" lon="5.01949">
        <ele>455.8</ele>
        <time>2017-12-03T13:18:07Z</time>
      </trkpt>
      <trkpt lat="44.15324" lon="5.01948">
        <ele>457.72</ele>
        <time>2017-12-03T13:18:19Z</time>
      </trkpt>
      <trkpt lat="44.15326" lon="5.01948">
        <ele>459.65</ele>
        <time>2017-12-03T13:18:33Z</time>
      </trkpt>
      <trkpt lat="44.15332" lon="5.01947">
        <ele>460.61</ele>
        <time>2017-12-03T13:18:42Z</time>
      </trkpt>
      <trkpt lat="44.15336" lon="5.01945">
        <ele>463.49</ele>
        <time>2017-12-03T13:18:52Z</time>
      </trkpt>
      <trkpt lat="44.15339" lon="5.01942">
        <ele>464.93</ele>
        <time>2017-12-03T13:19:04Z</time>
      </trkpt>
      <trkpt lat="44.15344" lon="5.01935">
        <ele>468.78</ele>
        <time>2017-12-03T13:19:16Z</time>
      </trkpt>
      <trkpt lat="44.15346" lon="5.01933">
        <ele>469.26</ele>
        <time>2017-12-03T13:19:28Z</time>
      </trkpt>
      <trkpt lat="44.15347" lon="5.01933">
        <ele>470.22</ele>
        <time>2017-12-03T13:19:41Z</time>
      </trkpt>
      <trkpt lat="44.15352" lon="5.01931">
        <ele>472.63</ele>
        <time>2017-12-03T13:19:57Z</time>
      </trkpt>
      <trkpt lat="44.15353" lon="5.0193">
        <ele>475.51</ele>
        <time>2017-12-03T13:20:06Z</time>
      </trkpt>
      <trkpt lat="44.15354" lon="5.01931">
        <ele>476.95</ele>
        <time>2017-12-03T13:20:15Z</time>
      </trkpt>
      <trkpt lat="44.15358" lon="5.01931">
        <ele>478.87</ele>
        <time>2017-12-03T13:20:25Z</time>
      </trkpt>
      <trkpt lat="44.15361" lon="5.01933">
        <ele>481.28</ele>
        <time>2017-12-03T13:20:36Z</time>
      </trkpt>
      <trkpt lat="44.15362" lon="5.01936">
        <ele>481.76</ele>
        <time>2017-12-03T13:20:39Z</time>
      </trkpt>
      <trkpt lat="44.15365" lon="5.01943">
        <ele>484.64</ele>
        <time>2017-12-03T13:20:52Z</time>
      </trkpt>
      <trkpt lat="44.1537" lon="5.01942">
        <ele>487.05</ele>
        <time>2017-12-03T13:21:03Z</time>
      </trkpt>
      <trkpt lat="44.1537" lon="5.01942">
        <ele>487.05</ele>
        <time>2017-12-03T13:21:04Z</time>
      </trkpt>
      <trkpt lat="44.15373" lon="5.01937">
        <ele>489.93</ele>
        <time>2017-12-03T13:21:17Z</time>
      </trkpt>
      <trkpt lat="44.15376" lon="5.01933">
        <ele>491.85</ele>
        <time>2017-12-03T13:21:28Z</time>
      </trkpt>
      <trkpt lat="44.15376" lon="5.01931">
        <ele>492.33</ele>
        <time>2017-12-03T13:21:31Z</time>
      </trkpt>
      <trkpt lat="44.15381" lon="5.01924">
        <ele>494.74</ele>
        <time>2017-12-03T13:21:43Z</time>
      </trkpt>
      <trkpt lat="44.15381" lon="5.01924">
        <ele>495.22</ele>
        <time>2017-12-03T13:21:46Z</time>
      </trkpt>
      <trkpt lat="44.15383" lon="5.01926">
        <ele>497.14</ele>
        <time>2017-12-03T13:21:54Z</time>
      </trkpt>
      <trkpt lat="44.15388" lon="5.01928">
        <ele>500.5</ele>
        <time>2017-12-03T13:22:07Z</time>
      </trkpt>
      <trkpt lat="44.15389" lon="5.0193">
        <ele>503.87</ele>
        <time>2017-12-03T13:22:19Z</time>
      </trkpt>
      <trkpt lat="44.1539" lon="5.01937">
        <ele>505.79</ele>
        <time>2017-12-03T13:22:28Z</time>
      </trkpt>
      <trkpt lat="44.15391" lon="5.01938">
        <ele>507.23</ele>
        <time>2017-12-03T13:22:40Z</time>
      </trkpt>
      <trkpt lat="44.15391" lon="5.01938">
        <ele>510.12</ele>
        <time>2017-12-03T13:22:53Z</time>
      </trkpt>
      <trkpt lat="44.15392" lon="5.01941">
        <ele>512.04</ele>
        <time>2017-12-03T13:23:05Z</time>
      </trkpt>
      <trkpt lat="44.15393" lon="5.01943">
        <ele>513.48</ele>
        <time>2017-12-03T13:23:08Z</time>
      </trkpt>
      <trkpt lat="44.15398" lon="5.01949">
        <ele>513.48</ele>
        <time>2017-12-03T13:23:11Z</time>
      </trkpt>
      <trkpt lat="44.15404" lon="5.01952">
        <ele>515.88</ele>
        <time>2017-12-03T13:23:24Z</time>
      </trkpt>
      <trkpt lat="44.15404" lon="5.01952">
        <ele>517.33</ele>
        <time>2017-12-03T13:23:27Z</time>
      </trkpt>
      <trkpt lat="44.15404" lon="5.01952">
        <ele>517.33</ele>
        <time>2017-12-03T13:23:48Z</time>
      </trkpt>
      <trkpt lat="44.15404" lon="5.01952">
        <ele>518.29</ele>
        <time>2017-12-03T13:24:09Z</time>
      </trkpt>
      <trkpt lat="44.15404" lon="5.01952">
        <ele>518.29</ele>
        <time>2017-12-03T13:24:27Z</time>
      </trkpt>
      <trkpt lat="44.15407" lon="5.01953">
        <ele>518.77</ele>
        <time>2017-12-03T13:24:53Z</time>
      </trkpt>
      <trkpt lat="44.15415" lon="5.01963">
        <ele>519.73</ele>
        <time>2017-12-03T13:25:06Z</time>
      </trkpt>
      <trkpt lat="44.15415" lon="5.01964">
        <ele>519.73</ele>
        <time>2017-12-03T13:25:07Z</time>
      </trkpt>
      <trkpt lat="44.15419" lon="5.01974">
        <ele>522.13</ele>
        <time>2017-12-03T13:25:17Z</time>
      </trkpt>
      <trkpt lat="44.1542" lon="5.01977">
        <ele>525.5</ele>
        <time>2017-12-03T13:25:23Z</time>
      </trkpt>
      <trkpt lat="44.1542" lon="5.01978">
        <ele>524.54</ele>
        <time>2017-12-03T13:25:24Z</time>
      </trkpt>
      <trkpt lat="44.15423" lon="5.01985">
        <ele>525.5</ele>
        <time>2017-12-03T13:25:29Z</time>
      </trkpt>
      <trkpt lat="44.15425" lon="5.01989">
        <ele>528.38</ele>
        <time>2017-12-03T13:25:39Z</time>
      </trkpt>
      <trkpt lat="44.15426" lon="5.01992">
        <ele>528.38</ele>
        <time>2017-12-03T13:25:41Z</time>
      </trkpt>
      <trkpt lat="44.15429" lon="5.02001">
        <ele>529.82</ele>
        <time>2017-12-03T13:25:51Z</time>
      </trkpt>
      <trkpt lat="44.1543" lon="5.02006">
        <ele>532.23</ele>
        <time>2017-12-03T13:26:02Z</time>
      </trkpt>
      <trkpt lat="44.1543" lon="5.02006">
        <ele>536.55</ele>
        <time>2017-12-03T13:26:15Z</time>
      </trkpt>
      <trkpt lat="44.15433" lon="5.02013">
        <ele>535.59</ele>
        <time>2017-12-03T13:26:26Z</time>
      </trkpt>
      <trkpt lat="44.15433" lon="5.02013">
        <ele>538.48</ele>
        <time>2017-12-03T13:26:30Z</time>
      </trkpt>
      <trkpt lat="44.15435" lon="5.02016">
        <ele>540.4</ele>
        <time>2017-12-03T13:26:40Z</time>
      </trkpt>
      <trkpt lat="44.15435" lon="5.02016">
        <ele>542.8</ele>
        <time>2017-12-03T13:26:51Z</time>
      </trkpt>
      <trkpt lat="44.15439" lon="5.02018">
        <ele>545.2</ele>
        <time>2017-12-03T13:27:02Z</time>
      </trkpt>
      <trkpt lat="44.15441" lon="5.02017">
        <ele>546.17</ele>
        <time>2017-12-03T13:27:11Z</time>
      </trkpt>
      <trkpt lat="44.15453" lon="5.02015">
        <ele>548.09</ele>
        <time>2017-12-03T13:27:22Z</time>
      </trkpt>
      <trkpt lat="44.15453" lon="5.02016">
        <ele>550.49</ele>
        <time>2017-12-03T13:27:39Z</time>
      </trkpt>
      <trkpt lat="44.15453" lon="5.02016">
        <ele>546.17</ele>
        <time>2017-12-03T13:27:41Z</time>
      </trkpt>
      <trkpt lat="44.15453" lon="5.02016">
        <ele>550.49</ele>
        <time>2017-12-03T13:27:42Z</time>
      </trkpt>
      <trkpt lat="44.15453" lon="5.02016">
        <ele>553.86</ele>
        <time>2017-12-03T13:27:46Z</time>
      </trkpt>
      <trkpt lat="44.15454" lon="5.02016">
        <ele>550.49</ele>
        <time>2017-12-03T13:27:50Z</time>
      </trkpt>
      <trkpt lat="44.15458" lon="5.02014">
        <ele>554.82</ele>
        <time>2017-12-03T13:27:56Z</time>
      </trkpt>
      <trkpt lat="44.15458" lon="5.02014">
        <ele>552.9</ele>
        <time>2017-12-03T13:27:57Z</time>
      </trkpt>
      <trkpt lat="44.15461" lon="5.02015">
        <ele>553.86</ele>
        <time>2017-12-03T13:28:13Z</time>
      </trkpt>
      <trkpt lat="44.15462" lon="5.02011">
        <ele>550.01</ele>
        <time>2017-12-03T13:28:22Z</time>
      </trkpt>
      <trkpt lat="44.15462" lon="5.02011">
        <ele>553.38</ele>
        <time>2017-12-03T13:28:23Z</time>
      </trkpt>
      <trkpt lat="44.15463" lon="5.02011">
        <ele>553.38</ele>
        <time>2017-12-03T13:28:24Z</time>
      </trkpt>
      <trkpt lat="44.15464" lon="5.02011">
        <ele>550.01</ele>
        <time>2017-12-03T13:28:29Z</time>
      </trkpt>
      <trkpt lat="44.15464" lon="5.02012">
        <ele>556.74</ele>
        <time>2017-12-03T13:28:30Z</time>
      </trkpt>
      <trkpt lat="44.15464" lon="5.02012">
        <ele>555.78</ele>
        <time>2017-12-03T13:28:31Z</time>
      </trkpt>
      <trkpt lat="44.15463" lon="5.0201">
        <ele>556.74</ele>
        <time>2017-12-03T13:28:41Z</time>
      </trkpt>
      <trkpt lat="44.15462" lon="5.02011">
        <ele>558.18</ele>
        <time>2017-12-03T13:28:50Z</time>
      </trkpt>
      <trkpt lat="44.15461" lon="5.02011">
        <ele>558.66</ele>
        <time>2017-12-03T13:28:59Z</time>
      </trkpt>
      <trkpt lat="44.1546" lon="5.02011">
        <ele>558.66</ele>
        <time>2017-12-03T13:29:10Z</time>
      </trkpt>
      <trkpt lat="44.1546" lon="5.02009">
        <ele>558.18</ele>
        <time>2017-12-03T13:29:24Z</time>
      </trkpt>
      <trkpt lat="44.1546" lon="5.02009">
        <ele>558.18</ele>
        <time>2017-12-03T13:29:56Z</time>
      </trkpt>
      <trkpt lat="44.1546" lon="5.02008">
        <ele>558.18</ele>
        <time>2017-12-03T13:30:14Z</time>
      </trkpt>
      <trkpt lat="44.15464" lon="5.02012">
        <ele>561.55</ele>
        <time>2017-12-03T13:30:24Z</time>
      </trkpt>
      <trkpt lat="44.15466" lon="5.02014">
        <ele>562.03</ele>
        <time>2017-12-03T13:30:29Z</time>
      </trkpt>
      <trkpt lat="44.1547" lon="5.02012">
        <ele>562.51</ele>
        <time>2017-12-03T13:30:33Z</time>
      </trkpt>
      <trkpt lat="44.15472" lon="5.02004">
        <ele>562.99</ele>
        <time>2017-12-03T13:30:40Z</time>
      </trkpt>
      <trkpt lat="44.15473" lon="5.01999">
        <ele>564.43</ele>
        <time>2017-12-03T13:30:52Z</time>
      </trkpt>
      <trkpt lat="44.15474" lon="5.01999">
        <ele>563.47</ele>
        <time>2017-12-03T13:31:02Z</time>
      </trkpt>
      <trkpt lat="44.15477" lon="5.01992">
        <ele>560.59</ele>
        <time>2017-12-03T13:31:09Z</time>
      </trkpt>
      <trkpt lat="44.15477" lon="5.01992">
        <ele>560.59</ele>
        <time>2017-12-03T13:31:10Z</time>
      </trkpt>
      <trkpt lat="44.15477" lon="5.01992">
        <ele>561.55</ele>
        <time>2017-12-03T13:31:34Z</time>
      </trkpt>
      <trkpt lat="44.15476" lon="5.01994">
        <ele>562.03</ele>
        <time>2017-12-03T13:31:57Z</time>
      </trkpt>
      <trkpt lat="44.15476" lon="5.01993">
        <ele>562.03</ele>
        <time>2017-12-03T13:31:58Z</time>
      </trkpt>
      <trkpt lat="44.15477" lon="5.01992">
        <ele>560.11</ele>
        <time>2017-12-03T13:32:00Z</time>
      </trkpt>
      <trkpt lat="44.15479" lon="5.01983">
        <ele>559.14</ele>
        <time>2017-12-03T13:32:09Z</time>
      </trkpt>
      <trkpt lat="44.15479" lon="5.01982">
        <ele>559.62</ele>
        <time>2017-12-03T13:32:10Z</time>
      </trkpt>
      <trkpt lat="44.15479" lon="5.01978">
        <ele>558.18</ele>
        <time>2017-12-03T13:32:13Z</time>
      </trkpt>
      <trkpt lat="44.15478" lon="5.01978">
        <ele>558.18</ele>
        <time>2017-12-03T13:32:14Z</time>
      </trkpt>
      <trkpt lat="44.15479" lon="5.01974">
        <ele>558.18</ele>
        <time>2017-12-03T13:32:18Z</time>
      </trkpt>
      <trkpt lat="44.15479" lon="5.01968">
        <ele>559.14</ele>
        <time>2017-12-03T13:32:23Z</time>
      </trkpt>
      <trkpt lat="44.1548" lon="5.01963">
        <ele>558.66</ele>
        <time>2017-12-03T13:32:26Z</time>
      </trkpt>
      <trkpt lat="44.15481" lon="5.01956">
        <ele>559.62</ele>
        <time>2017-12-03T13:32:30Z</time>
      </trkpt>
      <trkpt lat="44.15481" lon="5.01953">
        <ele>558.66</ele>
        <time>2017-12-03T13:32:34Z</time>
      </trkpt>
      <trkpt lat="44.15483" lon="5.01947">
        <ele>557.22</ele>
        <time>2017-12-03T13:32:39Z</time>
      </trkpt>
      <trkpt lat="44.15483" lon="5.01946">
        <ele>556.74</ele>
        <time>2017-12-03T13:32:40Z</time>
      </trkpt>
      <trkpt lat="44.15481" lon="5.01937">
        <ele>560.59</ele>
        <time>2017-12-03T13:32:46Z</time>
      </trkpt>
      <trkpt lat="44.15481" lon="5.01935">
        <ele>560.59</ele>
        <time>2017-12-03T13:32:47Z</time>
      </trkpt>
      <trkpt lat="44.15483" lon="5.01931">
        <ele>561.07</ele>
        <time>2017-12-03T13:32:51Z</time>
      </trkpt>
      <trkpt lat="44.15486" lon="5.01925">
        <ele>558.18</ele>
        <time>2017-12-03T13:32:56Z</time>
      </trkpt>
      <trkpt lat="44.15486" lon="5.01921">
        <ele>555.3</ele>
        <time>2017-12-03T13:32:59Z</time>
      </trkpt>
      <trkpt lat="44.15487" lon="5.0191">
        <ele>553.86</ele>
        <time>2017-12-03T13:33:10Z</time>
      </trkpt>
      <trkpt lat="44.15488" lon="5.01908">
        <ele>553.86</ele>
        <time>2017-12-03T13:33:13Z</time>
      </trkpt>
      <trkpt lat="44.15489" lon="5.019">
        <ele>552.9</ele>
        <time>2017-12-03T13:33:18Z</time>
      </trkpt>
      <trkpt lat="44.15488" lon="5.01894">
        <ele>551.45</ele>
        <time>2017-12-03T13:33:24Z</time>
      </trkpt>
      <trkpt lat="44.15488" lon="5.0189">
        <ele>550.01</ele>
        <time>2017-12-03T13:33:29Z</time>
      </trkpt>
      <trkpt lat="44.15485" lon="5.01878">
        <ele>547.13</ele>
        <time>2017-12-03T13:33:39Z</time>
      </trkpt>
      <trkpt lat="44.15482" lon="5.01874">
        <ele>548.57</ele>
        <time>2017-12-03T13:33:42Z</time>
      </trkpt>
      <trkpt lat="44.15479" lon="5.01866">
        <ele>548.57</ele>
        <time>2017-12-03T13:33:48Z</time>
      </trkpt>
      <trkpt lat="44.15474" lon="5.01858">
        <ele>550.49</ele>
        <time>2017-12-03T13:33:55Z</time>
      </trkpt>
      <trkpt lat="44.15472" lon="5.0185">
        <ele>552.9</ele>
        <time>2017-12-03T13:34:00Z</time>
      </trkpt>
      <trkpt lat="44.15467" lon="5.01845">
        <ele>557.22</ele>
        <time>2017-12-03T13:34:06Z</time>
      </trkpt>
      <trkpt lat="44.15465" lon="5.01845">
        <ele>557.22</ele>
        <time>2017-12-03T13:34:11Z</time>
      </trkpt>
      <trkpt lat="44.15463" lon="5.0184">
        <ele>554.34</ele>
        <time>2017-12-03T13:34:19Z</time>
      </trkpt>
      <trkpt lat="44.15466" lon="5.01832">
        <ele>556.26</ele>
        <time>2017-12-03T13:34:27Z</time>
      </trkpt>
      <trkpt lat="44.15467" lon="5.0183">
        <ele>555.3</ele>
        <time>2017-12-03T13:34:29Z</time>
      </trkpt>
      <trkpt lat="44.15466" lon="5.01819">
        <ele>556.74</ele>
        <time>2017-12-03T13:34:36Z</time>
      </trkpt>
      <trkpt lat="44.15465" lon="5.01806">
        <ele>557.7</ele>
        <time>2017-12-03T13:34:43Z</time>
      </trkpt>
      <trkpt lat="44.15464" lon="5.018">
        <ele>557.7</ele>
        <time>2017-12-03T13:34:47Z</time>
      </trkpt>
      <trkpt lat="44.15464" lon="5.01797">
        <ele>558.66</ele>
        <time>2017-12-03T13:34:49Z</time>
      </trkpt>
      <trkpt lat="44.15464" lon="5.01791">
        <ele>558.66</ele>
        <time>2017-12-03T13:34:53Z</time>
      </trkpt>
      <trkpt lat="44.15464" lon="5.01786">
        <ele>557.22</ele>
        <time>2017-12-03T13:34:56Z</time>
      </trkpt>
      <trkpt lat="44.15464" lon="5.01784">
        <ele>557.7</ele>
        <time>2017-12-03T13:34:57Z</time>
      </trkpt>
      <trkpt lat="44.15464" lon="5.01779">
        <ele>557.22</ele>
        <time>2017-12-03T13:35:00Z</time>
      </trkpt>
      <trkpt lat="44.15465" lon="5.01771">
        <ele>555.78</ele>
        <time>2017-12-03T13:35:08Z</time>
      </trkpt>
      <trkpt lat="44.15465" lon="5.01764">
        <ele>554.34</ele>
        <time>2017-12-03T13:35:13Z</time>
      </trkpt>
      <trkpt lat="44.15468" lon="5.01758">
        <ele>552.41</ele>
        <time>2017-12-03T13:35:19Z</time>
      </trkpt>
      <trkpt lat="44.1547" lon="5.01754">
        <ele>551.93</ele>
        <time>2017-12-03T13:35:28Z</time>
      </trkpt>
      <trkpt lat="44.15471" lon="5.01746">
        <ele>550.97</ele>
        <time>2017-12-03T13:35:34Z</time>
      </trkpt>
      <trkpt lat="44.15466" lon="5.01741">
        <ele>551.93</ele>
        <time>2017-12-03T13:35:40Z</time>
      </trkpt>
      <trkpt lat="44.15468" lon="5.01726">
        <ele>552.41</ele>
        <time>2017-12-03T13:35:52Z</time>
      </trkpt>
      <trkpt lat="44.15469" lon="5.01718">
        <ele>550.97</ele>
        <time>2017-12-03T13:35:58Z</time>
      </trkpt>
      <trkpt lat="44.15472" lon="5.01708">
        <ele>550.01</ele>
        <time>2017-12-03T13:36:05Z</time>
      </trkpt>
      <trkpt lat="44.15474" lon="5.017">
        <ele>548.57</ele>
        <time>2017-12-03T13:36:10Z</time>
      </trkpt>
      <trkpt lat="44.15474" lon="5.01693">
        <ele>547.61</ele>
        <time>2017-12-03T13:36:14Z</time>
      </trkpt>
      <trkpt lat="44.15476" lon="5.01684">
        <ele>546.65</ele>
        <time>2017-12-03T13:36:19Z</time>
      </trkpt>
      <trkpt lat="44.15476" lon="5.01678">
        <ele>546.65</ele>
        <time>2017-12-03T13:36:24Z</time>
      </trkpt>
      <trkpt lat="44.15474" lon="5.01661">
        <ele>546.17</ele>
        <time>2017-12-03T13:36:36Z</time>
      </trkpt>
      <trkpt lat="44.15477" lon="5.01651">
        <ele>545.2</ele>
        <time>2017-12-03T13:36:41Z</time>
      </trkpt>
      <trkpt lat="44.15476" lon="5.01639">
        <ele>542.32</ele>
        <time>2017-12-03T13:36:49Z</time>
      </trkpt>
      <trkpt lat="44.15477" lon="5.01631">
        <ele>538.96</ele>
        <time>2017-12-03T13:36:53Z</time>
      </trkpt>
      <trkpt lat="44.15477" lon="5.01624">
        <ele>537.99</ele>
        <time>2017-12-03T13:36:57Z</time>
      </trkpt>
      <trkpt lat="44.15477" lon="5.01621">
        <ele>537.99</ele>
        <time>2017-12-03T13:36:58Z</time>
      </trkpt>
      <trkpt lat="44.15475" lon="5.01594">
        <ele>536.07</ele>
        <time>2017-12-03T13:37:12Z</time>
      </trkpt>
      <trkpt lat="44.15474" lon="5.01588">
        <ele>535.59</ele>
        <time>2017-12-03T13:37:15Z</time>
      </trkpt>
      <trkpt lat="44.15474" lon="5.01582">
        <ele>534.15</ele>
        <time>2017-12-03T13:37:18Z</time>
      </trkpt>
      <trkpt lat="44.15473" lon="5.01577">
        <ele>533.19</ele>
        <time>2017-12-03T13:37:21Z</time>
      </trkpt>
      <trkpt lat="44.15473" lon="5.01573">
        <ele>531.75</ele>
        <time>2017-12-03T13:37:24Z</time>
      </trkpt>
      <trkpt lat="44.15473" lon="5.01571">
        <ele>531.27</ele>
        <time>2017-12-03T13:37:25Z</time>
      </trkpt>
      <trkpt lat="44.15471" lon="5.01562">
        <ele>528.38</ele>
        <time>2017-12-03T13:37:33Z</time>
      </trkpt>
      <trkpt lat="44.15471" lon="5.01558">
        <ele>528.38</ele>
        <time>2017-12-03T13:37:35Z</time>
      </trkpt>
      <trkpt lat="44.1547" lon="5.01549">
        <ele>528.86</ele>
        <time>2017-12-03T13:37:40Z</time>
      </trkpt>
      <trkpt lat="44.15467" lon="5.01537">
        <ele>527.42</ele>
        <time>2017-12-03T13:37:46Z</time>
      </trkpt>
      <trkpt lat="44.15465" lon="5.01533">
        <ele>528.38</ele>
        <time>2017-12-03T13:37:48Z</time>
      </trkpt>
      <trkpt lat="44.15466" lon="5.0152">
        <ele>528.38</ele>
        <time>2017-12-03T13:37:56Z</time>
      </trkpt>
      <trkpt lat="44.1547" lon="5.01509">
        <ele>528.38</ele>
        <time>2017-12-03T13:38:04Z</time>
      </trkpt>
      <trkpt lat="44.15471" lon="5.01507">
        <ele>527.42</ele>
        <time>2017-12-03T13:38:07Z</time>
      </trkpt>
      <trkpt lat="44.15474" lon="5.01499">
        <ele>525.5</ele>
        <time>2017-12-03T13:38:12Z</time>
      </trkpt>
      <trkpt lat="44.15476" lon="5.01496">
        <ele>524.54</ele>
        <time>2017-12-03T13:38:14Z</time>
      </trkpt>
      <trkpt lat="44.15477" lon="5.01489">
        <ele>523.09</ele>
        <time>2017-12-03T13:38:17Z</time>
      </trkpt>
      <trkpt lat="44.15477" lon="5.01485">
        <ele>523.09</ele>
        <time>2017-12-03T13:38:19Z</time>
      </trkpt>
      <trkpt lat="44.1548" lon="5.01479">
        <ele>519.25</ele>
        <time>2017-12-03T13:38:26Z</time>
      </trkpt>
      <trkpt lat="44.15482" lon="5.0147">
        <ele>518.29</ele>
        <time>2017-12-03T13:38:34Z</time>
      </trkpt>
      <trkpt lat="44.15483" lon="5.01466">
        <ele>517.81</ele>
        <time>2017-12-03T13:38:37Z</time>
      </trkpt>
      <trkpt lat="44.15491" lon="5.01453">
        <ele>513.96</ele>
        <time>2017-12-03T13:38:49Z</time>
      </trkpt>
      <trkpt lat="44.15492" lon="5.01452">
        <ele>513</ele>
        <time>2017-12-03T13:38:51Z</time>
      </trkpt>
      <trkpt lat="44.15493" lon="5.01451">
        <ele>513</ele>
        <time>2017-12-03T13:38:52Z</time>
      </trkpt>
      <trkpt lat="44.15496" lon="5.0145">
        <ele>510.12</ele>
        <time>2017-12-03T13:38:56Z</time>
      </trkpt>
      <trkpt lat="44.15496" lon="5.01449">
        <ele>509.64</ele>
        <time>2017-12-03T13:38:57Z</time>
      </trkpt>
      <trkpt lat="44.15496" lon="5.01447">
        <ele>510.6</ele>
        <time>2017-12-03T13:38:58Z</time>
      </trkpt>
      <trkpt lat="44.15501" lon="5.01437">
        <ele>507.71</ele>
        <time>2017-12-03T13:39:06Z</time>
      </trkpt>
      <trkpt lat="44.15505" lon="5.0143">
        <ele>506.27</ele>
        <time>2017-12-03T13:39:13Z</time>
      </trkpt>
      <trkpt lat="44.15506" lon="5.01429">
        <ele>507.23</ele>
        <time>2017-12-03T13:39:15Z</time>
      </trkpt>
      <trkpt lat="44.15509" lon="5.01424">
        <ele>504.35</ele>
        <time>2017-12-03T13:39:19Z</time>
      </trkpt>
      <trkpt lat="44.15511" lon="5.01421">
        <ele>500.98</ele>
        <time>2017-12-03T13:39:24Z</time>
      </trkpt>
      <trkpt lat="44.15512" lon="5.0142">
        <ele>501.46</ele>
        <time>2017-12-03T13:39:25Z</time>
      </trkpt>
      <trkpt lat="44.15514" lon="5.0142">
        <ele>500.98</ele>
        <time>2017-12-03T13:39:28Z</time>
      </trkpt>
      <trkpt lat="44.15516" lon="5.01417">
        <ele>500.02</ele>
        <time>2017-12-03T13:39:31Z</time>
      </trkpt>
      <trkpt lat="44.15516" lon="5.01417">
        <ele>503.39</ele>
        <time>2017-12-03T13:39:43Z</time>
      </trkpt>
      <trkpt lat="44.15516" lon="5.01417">
        <ele>503.39</ele>
        <time>2017-12-03T13:39:57Z</time>
      </trkpt>
      <trkpt lat="44.15516" lon="5.01417">
        <ele>500.98</ele>
        <time>2017-12-03T13:40:03Z</time>
      </trkpt>
      <trkpt lat="44.15516" lon="5.01417">
        <ele>501.95</ele>
        <time>2017-12-03T13:40:17Z</time>
      </trkpt>
      <trkpt lat="44.15516" lon="5.01417">
        <ele>501.46</ele>
        <time>2017-12-03T13:40:18Z</time>
      </trkpt>
      <trkpt lat="44.15517" lon="5.01416">
        <ele>501.46</ele>
        <time>2017-12-03T13:40:19Z</time>
      </trkpt>
      <trkpt lat="44.1552" lon="5.01413">
        <ele>499.06</ele>
        <time>2017-12-03T13:40:24Z</time>
      </trkpt>
      <trkpt lat="44.15521" lon="5.01412">
        <ele>500.02</ele>
        <time>2017-12-03T13:40:26Z</time>
      </trkpt>
      <trkpt lat="44.15526" lon="5.01404">
        <ele>497.62</ele>
        <time>2017-12-03T13:40:32Z</time>
      </trkpt>
      <trkpt lat="44.15527" lon="5.01401">
        <ele>497.14</ele>
        <time>2017-12-03T13:40:34Z</time>
      </trkpt>
      <trkpt lat="44.1553" lon="5.01392">
        <ele>495.22</ele>
        <time>2017-12-03T13:40:43Z</time>
      </trkpt>
      <trkpt lat="44.15536" lon="5.01381">
        <ele>490.41</ele>
        <time>2017-12-03T13:40:52Z</time>
      </trkpt>
      <trkpt lat="44.15536" lon="5.0138">
        <ele>489.45</ele>
        <time>2017-12-03T13:40:53Z</time>
      </trkpt>
      <trkpt lat="44.15538" lon="5.01377">
        <ele>488.49</ele>
        <time>2017-12-03T13:40:55Z</time>
      </trkpt>
      <trkpt lat="44.15542" lon="5.01369">
        <ele>488.49</ele>
        <time>2017-12-03T13:41:00Z</time>
      </trkpt>
      <trkpt lat="44.15545" lon="5.01345">
        <ele>485.6</ele>
        <time>2017-12-03T13:41:13Z</time>
      </trkpt>
      <trkpt lat="44.15545" lon="5.01342">
        <ele>485.6</ele>
        <time>2017-12-03T13:41:15Z</time>
      </trkpt>
      <trkpt lat="44.15544" lon="5.0134">
        <ele>485.6</ele>
        <time>2017-12-03T13:41:19Z</time>
      </trkpt>
      <trkpt lat="44.15542" lon="5.01333">
        <ele>486.08</ele>
        <time>2017-12-03T13:41:35Z</time>
      </trkpt>
      <trkpt lat="44.15543" lon="5.01331">
        <ele>483.68</ele>
        <time>2017-12-03T13:41:47Z</time>
      </trkpt>
      <trkpt lat="44.15548" lon="5.01324">
        <ele>481.28</ele>
        <time>2017-12-03T13:41:56Z</time>
      </trkpt>
      <trkpt lat="44.15549" lon="5.01318">
        <ele>479.35</ele>
        <time>2017-12-03T13:42:01Z</time>
      </trkpt>
      <trkpt lat="44.15555" lon="5.01307">
        <ele>476.47</ele>
        <time>2017-12-03T13:42:14Z</time>
      </trkpt>
      <trkpt lat="44.15557" lon="5.01305">
        <ele>475.03</ele>
        <time>2017-12-03T13:42:17Z</time>
      </trkpt>
      <trkpt lat="44.15559" lon="5.01305">
        <ele>474.07</ele>
        <time>2017-12-03T13:42:19Z</time>
      </trkpt>
      <trkpt lat="44.15565" lon="5.01304">
        <ele>472.63</ele>
        <time>2017-12-03T13:42:24Z</time>
      </trkpt>
      <trkpt lat="44.15571" lon="5.013">
        <ele>469.74</ele>
        <time>2017-12-03T13:42:31Z</time>
      </trkpt>
      <trkpt lat="44.15575" lon="5.0129">
        <ele>466.38</ele>
        <time>2017-12-03T13:42:40Z</time>
      </trkpt>
      <trkpt lat="44.15577" lon="5.0129">
        <ele>465.9</ele>
        <time>2017-12-03T13:42:42Z</time>
      </trkpt>
      <trkpt lat="44.1558" lon="5.01285">
        <ele>463.97</ele>
        <time>2017-12-03T13:42:47Z</time>
      </trkpt>
      <trkpt lat="44.15581" lon="5.01281">
        <ele>464.93</ele>
        <time>2017-12-03T13:42:53Z</time>
      </trkpt>
      <trkpt lat="44.15585" lon="5.01277">
        <ele>462.05</ele>
        <time>2017-12-03T13:42:58Z</time>
      </trkpt>
      <trkpt lat="44.15586" lon="5.01276">
        <ele>461.57</ele>
        <time>2017-12-03T13:42:59Z</time>
      </trkpt>
      <trkpt lat="44.15589" lon="5.01271">
        <ele>459.65</ele>
        <time>2017-12-03T13:43:03Z</time>
      </trkpt>
      <trkpt lat="44.15594" lon="5.0126">
        <ele>457.72</ele>
        <time>2017-12-03T13:43:12Z</time>
      </trkpt>
      <trkpt lat="44.15595" lon="5.01259">
        <ele>457.72</ele>
        <time>2017-12-03T13:43:13Z</time>
      </trkpt>
      <trkpt lat="44.15601" lon="5.01248">
        <ele>457.24</ele>
        <time>2017-12-03T13:43:20Z</time>
      </trkpt>
      <trkpt lat="44.15606" lon="5.01241">
        <ele>455.32</ele>
        <time>2017-12-03T13:43:24Z</time>
      </trkpt>
      <trkpt lat="44.15611" lon="5.01234">
        <ele>453.88</ele>
        <time>2017-12-03T13:43:29Z</time>
      </trkpt>
      <trkpt lat="44.15612" lon="5.01233">
        <ele>453.88</ele>
        <time>2017-12-03T13:43:30Z</time>
      </trkpt>
      <trkpt lat="44.1562" lon="5.01227">
        <ele>450.52</ele>
        <time>2017-12-03T13:43:36Z</time>
      </trkpt>
      <trkpt lat="44.15621" lon="5.01227">
        <ele>450.03</ele>
        <time>2017-12-03T13:43:37Z</time>
      </trkpt>
      <trkpt lat="44.15626" lon="5.01221">
        <ele>453.4</ele>
        <time>2017-12-03T13:43:45Z</time>
      </trkpt>
      <trkpt lat="44.15626" lon="5.01221">
        <ele>449.55</ele>
        <time>2017-12-03T13:43:50Z</time>
      </trkpt>
      <trkpt lat="44.15626" lon="5.01221">
        <ele>451.96</ele>
        <time>2017-12-03T13:43:52Z</time>
      </trkpt>
      <trkpt lat="44.15629" lon="5.0122">
        <ele>455.32</ele>
        <time>2017-12-03T13:43:58Z</time>
      </trkpt>
      <trkpt lat="44.15631" lon="5.01219">
        <ele>451.96</ele>
        <time>2017-12-03T13:44:02Z</time>
      </trkpt>
      <trkpt lat="44.15632" lon="5.01218">
        <ele>448.11</ele>
        <time>2017-12-03T13:44:09Z</time>
      </trkpt>
      <trkpt lat="44.15633" lon="5.01217">
        <ele>447.15</ele>
        <time>2017-12-03T13:44:11Z</time>
      </trkpt>
      <trkpt lat="44.15635" lon="5.01216">
        <ele>441.86</ele>
        <time>2017-12-03T13:44:17Z</time>
      </trkpt>
      <trkpt lat="44.15638" lon="5.01214">
        <ele>445.23</ele>
        <time>2017-12-03T13:44:21Z</time>
      </trkpt>
      <trkpt lat="44.15639" lon="5.01212">
        <ele>441.86</ele>
        <time>2017-12-03T13:44:25Z</time>
      </trkpt>
      <trkpt lat="44.15642" lon="5.01211">
        <ele>440.9</ele>
        <time>2017-12-03T13:44:30Z</time>
      </trkpt>
      <trkpt lat="44.15648" lon="5.0121">
        <ele>439.46</ele>
        <time>2017-12-03T13:44:40Z</time>
      </trkpt>
      <trkpt lat="44.15654" lon="5.01202">
        <ele>440.42</ele>
        <time>2017-12-03T13:44:45Z</time>
      </trkpt>
      <trkpt lat="44.15658" lon="5.01197">
        <ele>438.02</ele>
        <time>2017-12-03T13:44:48Z</time>
      </trkpt>
      <trkpt lat="44.15665" lon="5.01187">
        <ele>435.13</ele>
        <time>2017-12-03T13:44:55Z</time>
      </trkpt>
      <trkpt lat="44.15668" lon="5.01184">
        <ele>437.54</ele>
        <time>2017-12-03T13:44:58Z</time>
      </trkpt>
      <trkpt lat="44.1567" lon="5.01181">
        <ele>434.17</ele>
        <time>2017-12-03T13:45:05Z</time>
      </trkpt>
      <trkpt lat="44.15672" lon="5.01179">
        <ele>432.73</ele>
        <time>2017-12-03T13:45:11Z</time>
      </trkpt>
      <trkpt lat="44.15686" lon="5.01165">
        <ele>429.37</ele>
        <time>2017-12-03T13:45:24Z</time>
      </trkpt>
      <trkpt lat="44.1569" lon="5.01163">
        <ele>428.89</ele>
        <time>2017-12-03T13:45:26Z</time>
      </trkpt>
      <trkpt lat="44.157" lon="5.01162">
        <ele>426</ele>
        <time>2017-12-03T13:45:32Z</time>
      </trkpt>
      <trkpt lat="44.15703" lon="5.01161">
        <ele>424.56</ele>
        <time>2017-12-03T13:45:35Z</time>
      </trkpt>
      <trkpt lat="44.15711" lon="5.01161">
        <ele>422.16</ele>
        <time>2017-12-03T13:45:45Z</time>
      </trkpt>
      <trkpt lat="44.15717" lon="5.01153">
        <ele>421.19</ele>
        <time>2017-12-03T13:45:53Z</time>
      </trkpt>
      <trkpt lat="44.15719" lon="5.0115">
        <ele>421.68</ele>
        <time>2017-12-03T13:45:55Z</time>
      </trkpt>
      <trkpt lat="44.15725" lon="5.01139">
        <ele>422.16</ele>
        <time>2017-12-03T13:46:03Z</time>
      </trkpt>
      <trkpt lat="44.15726" lon="5.01136">
        <ele>421.68</ele>
        <time>2017-12-03T13:46:05Z</time>
      </trkpt>
      <trkpt lat="44.15736" lon="5.01136">
        <ele>422.64</ele>
        <time>2017-12-03T13:46:17Z</time>
      </trkpt>
      <trkpt lat="44.15745" lon="5.01134">
        <ele>424.08</ele>
        <time>2017-12-03T13:46:29Z</time>
      </trkpt>
      <trkpt lat="44.1575" lon="5.01136">
        <ele>424.56</ele>
        <time>2017-12-03T13:46:37Z</time>
      </trkpt>
      <trkpt lat="44.15754" lon="5.01136">
        <ele>428.4</ele>
        <time>2017-12-03T13:46:48Z</time>
      </trkpt>
      <trkpt lat="44.15763" lon="5.01136">
        <ele>429.85</ele>
        <time>2017-12-03T13:47:01Z</time>
      </trkpt>
      <trkpt lat="44.15764" lon="5.01134">
        <ele>430.33</ele>
        <time>2017-12-03T13:47:03Z</time>
      </trkpt>
      <trkpt lat="44.15767" lon="5.01131">
        <ele>432.73</ele>
        <time>2017-12-03T13:47:09Z</time>
      </trkpt>
      <trkpt lat="44.15768" lon="5.01131">
        <ele>435.13</ele>
        <time>2017-12-03T13:47:15Z</time>
      </trkpt>
      <trkpt lat="44.15771" lon="5.0113">
        <ele>436.58</ele>
        <time>2017-12-03T13:47:18Z</time>
      </trkpt>
      <trkpt lat="44.15775" lon="5.01129">
        <ele>435.61</ele>
        <time>2017-12-03T13:47:31Z</time>
      </trkpt>
      <trkpt lat="44.15777" lon="5.01131">
        <ele>438.98</ele>
        <time>2017-12-03T13:47:36Z</time>
      </trkpt>
      <trkpt lat="44.15788" lon="5.01132">
        <ele>439.94</ele>
        <time>2017-12-03T13:47:45Z</time>
      </trkpt>
      <trkpt lat="44.15791" lon="5.01134">
        <ele>443.31</ele>
        <time>2017-12-03T13:47:54Z</time>
      </trkpt>
      <trkpt lat="44.15791" lon="5.01134">
        <ele>442.82</ele>
        <time>2017-12-03T13:47:55Z</time>
      </trkpt>
      <trkpt lat="44.15799" lon="5.01122">
        <ele>445.23</ele>
        <time>2017-12-03T13:48:05Z</time>
      </trkpt>
      <trkpt lat="44.158" lon="5.01119">
        <ele>447.15</ele>
        <time>2017-12-03T13:48:07Z</time>
      </trkpt>
      <trkpt lat="44.15801" lon="5.01114">
        <ele>447.63</ele>
        <time>2017-12-03T13:48:11Z</time>
      </trkpt>
      <trkpt lat="44.15804" lon="5.01104">
        <ele>450.03</ele>
        <time>2017-12-03T13:48:20Z</time>
      </trkpt>
      <trkpt lat="44.15805" lon="5.01096">
        <ele>451.48</ele>
        <time>2017-12-03T13:48:30Z</time>
      </trkpt>
      <trkpt lat="44.15808" lon="5.01085">
        <ele>452.92</ele>
        <time>2017-12-03T13:48:40Z</time>
      </trkpt>
      <trkpt lat="44.15811" lon="5.01082">
        <ele>454.84</ele>
        <time>2017-12-03T13:48:48Z</time>
      </trkpt>
      <trkpt lat="44.15812" lon="5.01084">
        <ele>458.69</ele>
        <time>2017-12-03T13:48:54Z</time>
      </trkpt>
      <trkpt lat="44.15815" lon="5.0109">
        <ele>461.09</ele>
        <time>2017-12-03T13:49:04Z</time>
      </trkpt>
      <trkpt lat="44.15815" lon="5.01089">
        <ele>462.05</ele>
        <time>2017-12-03T13:49:06Z</time>
      </trkpt>
      <trkpt lat="44.15815" lon="5.01085">
        <ele>461.09</ele>
        <time>2017-12-03T13:49:18Z</time>
      </trkpt>
      <trkpt lat="44.15816" lon="5.01085">
        <ele>462.53</ele>
        <time>2017-12-03T13:49:34Z</time>
      </trkpt>
      <trkpt lat="44.15822" lon="5.01086">
        <ele>460.61</ele>
        <time>2017-12-03T13:54:23Z</time>
      </trkpt>
      <trkpt lat="44.15821" lon="5.01085">
        <ele>460.61</ele>
        <time>2017-12-03T13:54:24Z</time>
      </trkpt>
      <trkpt lat="44.1582" lon="5.01087">
        <ele>461.57</ele>
        <time>2017-12-03T13:54:36Z</time>
      </trkpt>
      <trkpt lat="44.1582" lon="5.01086">
        <ele>461.57</ele>
        <time>2017-12-03T13:54:39Z</time>
      </trkpt>
      <trkpt lat="44.15816" lon="5.01083">
        <ele>462.05</ele>
        <time>2017-12-03T13:54:52Z</time>
      </trkpt>
      <trkpt lat="44.15811" lon="5.01079">
        <ele>460.13</ele>
        <time>2017-12-03T13:55:07Z</time>
      </trkpt>
      <trkpt lat="44.15808" lon="5.01084">
        <ele>459.17</ele>
        <time>2017-12-03T13:55:15Z</time>
      </trkpt>
      <trkpt lat="44.15806" lon="5.01089">
        <ele>459.17</ele>
        <time>2017-12-03T13:55:20Z</time>
      </trkpt>
      <trkpt lat="44.15805" lon="5.011">
        <ele>457.24</ele>
        <time>2017-12-03T13:55:32Z</time>
      </trkpt>
      <trkpt lat="44.15806" lon="5.011">
        <ele>456.76</ele>
        <time>2017-12-03T13:55:33Z</time>
      </trkpt>
      <trkpt lat="44.15807" lon="5.01104">
        <ele>455.32</ele>
        <time>2017-12-03T13:55:38Z</time>
      </trkpt>
      <trkpt lat="44.15801" lon="5.01118">
        <ele>453.88</ele>
        <time>2017-12-03T13:55:49Z</time>
      </trkpt>
      <trkpt lat="44.15792" lon="5.01124">
        <ele>451</ele>
        <time>2017-12-03T13:56:03Z</time>
      </trkpt>
      <trkpt lat="44.15787" lon="5.01123">
        <ele>449.07</ele>
        <time>2017-12-03T13:56:08Z</time>
      </trkpt>
      <trkpt lat="44.15774" lon="5.01124">
        <ele>445.71</ele>
        <time>2017-12-03T13:56:20Z</time>
      </trkpt>
      <trkpt lat="44.15769" lon="5.01123">
        <ele>444.27</ele>
        <time>2017-12-03T13:56:24Z</time>
      </trkpt>
      <trkpt lat="44.15767" lon="5.01122">
        <ele>443.31</ele>
        <time>2017-12-03T13:56:26Z</time>
      </trkpt>
      <trkpt lat="44.15757" lon="5.01121">
        <ele>440.42</ele>
        <time>2017-12-03T13:56:35Z</time>
      </trkpt>
      <trkpt lat="44.15747" lon="5.01118">
        <ele>437.54</ele>
        <time>2017-12-03T13:56:42Z</time>
      </trkpt>
      <trkpt lat="44.15743" lon="5.01118">
        <ele>436.58</ele>
        <time>2017-12-03T13:56:45Z</time>
      </trkpt>
      <trkpt lat="44.15735" lon="5.01119">
        <ele>434.17</ele>
        <time>2017-12-03T13:56:51Z</time>
      </trkpt>
      <trkpt lat="44.1572" lon="5.01117">
        <ele>431.77</ele>
        <time>2017-12-03T13:57:02Z</time>
      </trkpt>
      <trkpt lat="44.15716" lon="5.01105">
        <ele>430.33</ele>
        <time>2017-12-03T13:57:08Z</time>
      </trkpt>
      <trkpt lat="44.15717" lon="5.01099">
        <ele>428.89</ele>
        <time>2017-12-03T13:57:11Z</time>
      </trkpt>
      <trkpt lat="44.15722" lon="5.01077">
        <ele>426.48</ele>
        <time>2017-12-03T13:57:22Z</time>
      </trkpt>
      <trkpt lat="44.15727" lon="5.01068">
        <ele>424.56</ele>
        <time>2017-12-03T13:57:32Z</time>
      </trkpt>
      <trkpt lat="44.15729" lon="5.01062">
        <ele>422.64</ele>
        <time>2017-12-03T13:57:36Z</time>
      </trkpt>
      <trkpt lat="44.15729" lon="5.01062">
        <ele>421.68</ele>
        <time>2017-12-03T13:57:37Z</time>
      </trkpt>
      <trkpt lat="44.1573" lon="5.01052">
        <ele>420.23</ele>
        <time>2017-12-03T13:57:43Z</time>
      </trkpt>
      <trkpt lat="44.15728" lon="5.01044">
        <ele>419.75</ele>
        <time>2017-12-03T13:57:47Z</time>
      </trkpt>
      <trkpt lat="44.15727" lon="5.01027">
        <ele>417.35</ele>
        <time>2017-12-03T13:57:57Z</time>
      </trkpt>
      <trkpt lat="44.15727" lon="5.01023">
        <ele>416.39</ele>
        <time>2017-12-03T13:57:59Z</time>
      </trkpt>
      <trkpt lat="44.15727" lon="5.01018">
        <ele>415.91</ele>
        <time>2017-12-03T13:58:02Z</time>
      </trkpt>
      <trkpt lat="44.1573" lon="5.01007">
        <ele>413.5</ele>
        <time>2017-12-03T13:58:11Z</time>
      </trkpt>
      <trkpt lat="44.15731" lon="5.01004">
        <ele>412.54</ele>
        <time>2017-12-03T13:58:13Z</time>
      </trkpt>
      <trkpt lat="44.15732" lon="5.00996">
        <ele>411.1</ele>
        <time>2017-12-03T13:58:18Z</time>
      </trkpt>
      <trkpt lat="44.15733" lon="5.00993">
        <ele>410.62</ele>
        <time>2017-12-03T13:58:20Z</time>
      </trkpt>
      <trkpt lat="44.1574" lon="5.0098">
        <ele>407.74</ele>
        <time>2017-12-03T13:58:32Z</time>
      </trkpt>
      <trkpt lat="44.15742" lon="5.00974">
        <ele>406.29</ele>
        <time>2017-12-03T13:58:35Z</time>
      </trkpt>
      <trkpt lat="44.15744" lon="5.00973">
        <ele>404.37</ele>
        <time>2017-12-03T13:58:38Z</time>
      </trkpt>
      <trkpt lat="44.15754" lon="5.00967">
        <ele>402.93</ele>
        <time>2017-12-03T13:58:49Z</time>
      </trkpt>
      <trkpt lat="44.15762" lon="5.00955">
        <ele>400.05</ele>
        <time>2017-12-03T13:59:02Z</time>
      </trkpt>
      <trkpt lat="44.15771" lon="5.00948">
        <ele>398.12</ele>
        <time>2017-12-03T13:59:14Z</time>
      </trkpt>
      <trkpt lat="44.15774" lon="5.00945">
        <ele>395.72</ele>
        <time>2017-12-03T13:59:25Z</time>
      </trkpt>
      <trkpt lat="44.1578" lon="5.00937">
        <ele>393.32</ele>
        <time>2017-12-03T13:59:37Z</time>
      </trkpt>
      <trkpt lat="44.15784" lon="5.00928">
        <ele>390.43</ele>
        <time>2017-12-03T13:59:46Z</time>
      </trkpt>
      <trkpt lat="44.15788" lon="5.0091">
        <ele>388.51</ele>
        <time>2017-12-03T13:59:57Z</time>
      </trkpt>
      <trkpt lat="44.1579" lon="5.00907">
        <ele>386.59</ele>
        <time>2017-12-03T14:00:02Z</time>
      </trkpt>
      <trkpt lat="44.15795" lon="5.009">
        <ele>385.15</ele>
        <time>2017-12-03T14:00:09Z</time>
      </trkpt>
      <trkpt lat="44.15798" lon="5.00898">
        <ele>384.66</ele>
        <time>2017-12-03T14:00:13Z</time>
      </trkpt>
      <trkpt lat="44.15804" lon="5.00887">
        <ele>381.3</ele>
        <time>2017-12-03T14:00:25Z</time>
      </trkpt>
      <trkpt lat="44.15816" lon="5.00884">
        <ele>377.94</ele>
        <time>2017-12-03T14:00:37Z</time>
      </trkpt>
      <trkpt lat="44.15824" lon="5.00879">
        <ele>374.57</ele>
        <time>2017-12-03T14:00:47Z</time>
      </trkpt>
      <trkpt lat="44.15829" lon="5.00877">
        <ele>375.05</ele>
        <time>2017-12-03T14:00:52Z</time>
      </trkpt>
      <trkpt lat="44.15837" lon="5.00879">
        <ele>371.21</ele>
        <time>2017-12-03T14:00:58Z</time>
      </trkpt>
      <trkpt lat="44.15838" lon="5.00879">
        <ele>371.21</ele>
        <time>2017-12-03T14:00:59Z</time>
      </trkpt>
      <trkpt lat="44.15843" lon="5.0088">
        <ele>373.61</ele>
        <time>2017-12-03T14:01:02Z</time>
      </trkpt>
      <trkpt lat="44.15848" lon="5.00882">
        <ele>371.69</ele>
        <time>2017-12-03T14:01:05Z</time>
      </trkpt>
      <trkpt lat="44.15851" lon="5.00883">
        <ele>371.21</ele>
        <time>2017-12-03T14:01:07Z</time>
      </trkpt>
      <trkpt lat="44.15858" lon="5.00881">
        <ele>370.73</ele>
        <time>2017-12-03T14:01:11Z</time>
      </trkpt>
      <trkpt lat="44.15862" lon="5.00881">
        <ele>369.28</ele>
        <time>2017-12-03T14:01:14Z</time>
      </trkpt>
      <trkpt lat="44.15873" lon="5.00879">
        <ele>368.32</ele>
        <time>2017-12-03T14:01:23Z</time>
      </trkpt>
      <trkpt lat="44.15876" lon="5.00878">
        <ele>367.84</ele>
        <time>2017-12-03T14:01:25Z</time>
      </trkpt>
      <trkpt lat="44.15889" lon="5.00865">
        <ele>365.92</ele>
        <time>2017-12-03T14:01:36Z</time>
      </trkpt>
      <trkpt lat="44.15898" lon="5.00867">
        <ele>365.44</ele>
        <time>2017-12-03T14:01:41Z</time>
      </trkpt>
      <trkpt lat="44.15904" lon="5.00871">
        <ele>364.96</ele>
        <time>2017-12-03T14:01:47Z</time>
      </trkpt>
      <trkpt lat="44.15909" lon="5.00875">
        <ele>363.04</ele>
        <time>2017-12-03T14:01:53Z</time>
      </trkpt>
      <trkpt lat="44.15915" lon="5.00881">
        <ele>360.15</ele>
        <time>2017-12-03T14:01:58Z</time>
      </trkpt>
      <trkpt lat="44.15926" lon="5.009">
        <ele>357.27</ele>
        <time>2017-12-03T14:02:09Z</time>
      </trkpt>
      <trkpt lat="44.15934" lon="5.0092">
        <ele>356.79</ele>
        <time>2017-12-03T14:02:20Z</time>
      </trkpt>
      <trkpt lat="44.1594" lon="5.0093">
        <ele>355.34</ele>
        <time>2017-12-03T14:02:31Z</time>
      </trkpt>
      <trkpt lat="44.15945" lon="5.00927">
        <ele>353.42</ele>
        <time>2017-12-03T14:02:35Z</time>
      </trkpt>
      <trkpt lat="44.15942" lon="5.00914">
        <ele>352.94</ele>
        <time>2017-12-03T14:02:41Z</time>
      </trkpt>
      <trkpt lat="44.15939" lon="5.00906">
        <ele>352.94</ele>
        <time>2017-12-03T14:02:47Z</time>
      </trkpt>
      <trkpt lat="44.15936" lon="5.00896">
        <ele>353.42</ele>
        <time>2017-12-03T14:02:55Z</time>
      </trkpt>
      <trkpt lat="44.15933" lon="5.00889">
        <ele>352.94</ele>
        <time>2017-12-03T14:02:59Z</time>
      </trkpt>
      <trkpt lat="44.1593" lon="5.00878">
        <ele>351.98</ele>
        <time>2017-12-03T14:03:05Z</time>
      </trkpt>
      <trkpt lat="44.15922" lon="5.00847">
        <ele>351.98</ele>
        <time>2017-12-03T14:03:18Z</time>
      </trkpt>
      <trkpt lat="44.1592" lon="5.0083">
        <ele>351.98</ele>
        <time>2017-12-03T14:03:26Z</time>
      </trkpt>
      <trkpt lat="44.15924" lon="5.00819">
        <ele>351.98</ele>
        <time>2017-12-03T14:03:34Z</time>
      </trkpt>
      <trkpt lat="44.15927" lon="5.00802">
        <ele>351.02</ele>
        <time>2017-12-03T14:03:45Z</time>
      </trkpt>
      <trkpt lat="44.15931" lon="5.00793">
        <ele>348.13</ele>
        <time>2017-12-03T14:03:52Z</time>
      </trkpt>
      <trkpt lat="44.15932" lon="5.00785">
        <ele>346.21</ele>
        <time>2017-12-03T14:03:58Z</time>
      </trkpt>
      <trkpt lat="44.15932" lon="5.00773">
        <ele>344.77</ele>
        <time>2017-12-03T14:04:03Z</time>
      </trkpt>
      <trkpt lat="44.15932" lon="5.00753">
        <ele>341.89</ele>
        <time>2017-12-03T14:04:12Z</time>
      </trkpt>
      <trkpt lat="44.15934" lon="5.00738">
        <ele>339.96</ele>
        <time>2017-12-03T14:04:21Z</time>
      </trkpt>
      <trkpt lat="44.15934" lon="5.00736">
        <ele>339</ele>
        <time>2017-12-03T14:04:23Z</time>
      </trkpt>
      <trkpt lat="44.15934" lon="5.00726">
        <ele>338.52</ele>
        <time>2017-12-03T14:04:29Z</time>
      </trkpt>
      <trkpt lat="44.15935" lon="5.00722">
        <ele>337.56</ele>
        <time>2017-12-03T14:04:31Z</time>
      </trkpt>
      <trkpt lat="44.15935" lon="5.00707">
        <ele>336.6</ele>
        <time>2017-12-03T14:04:38Z</time>
      </trkpt>
      <trkpt lat="44.15936" lon="5.00701">
        <ele>335.64</ele>
        <time>2017-12-03T14:04:41Z</time>
      </trkpt>
      <trkpt lat="44.15939" lon="5.0069">
        <ele>335.16</ele>
        <time>2017-12-03T14:04:46Z</time>
      </trkpt>
      <trkpt lat="44.15942" lon="5.00678">
        <ele>333.71</ele>
        <time>2017-12-03T14:04:51Z</time>
      </trkpt>
      <trkpt lat="44.15945" lon="5.00661">
        <ele>330.83</ele>
        <time>2017-12-03T14:04:58Z</time>
      </trkpt>
      <trkpt lat="44.15942" lon="5.00635">
        <ele>327.95</ele>
        <time>2017-12-03T14:05:09Z</time>
      </trkpt>
      <trkpt lat="44.15941" lon="5.0062">
        <ele>327.47</ele>
        <time>2017-12-03T14:05:15Z</time>
      </trkpt>
      <trkpt lat="44.15942" lon="5.00608">
        <ele>324.58</ele>
        <time>2017-12-03T14:05:23Z</time>
      </trkpt>
      <trkpt lat="44.15943" lon="5.00602">
        <ele>324.1</ele>
        <time>2017-12-03T14:05:26Z</time>
      </trkpt>
      <trkpt lat="44.15945" lon="5.00587">
        <ele>321.7</ele>
        <time>2017-12-03T14:05:35Z</time>
      </trkpt>
      <trkpt lat="44.15945" lon="5.00573">
        <ele>318.33</ele>
        <time>2017-12-03T14:05:43Z</time>
      </trkpt>
      <trkpt lat="44.15944" lon="5.00553">
        <ele>314.97</ele>
        <time>2017-12-03T14:05:55Z</time>
      </trkpt>
      <trkpt lat="44.15944" lon="5.00549">
        <ele>314.49</ele>
        <time>2017-12-03T14:05:57Z</time>
      </trkpt>
      <trkpt lat="44.15944" lon="5.00545">
        <ele>314.01</ele>
        <time>2017-12-03T14:05:59Z</time>
      </trkpt>
      <trkpt lat="44.15944" lon="5.00539">
        <ele>312.57</ele>
        <time>2017-12-03T14:06:02Z</time>
      </trkpt>
      <trkpt lat="44.15943" lon="5.00518">
        <ele>309.2</ele>
        <time>2017-12-03T14:06:13Z</time>
      </trkpt>
      <trkpt lat="44.15942" lon="5.00507">
        <ele>307.28</ele>
        <time>2017-12-03T14:06:21Z</time>
      </trkpt>
      <trkpt lat="44.15942" lon="5.00499">
        <ele>306.32</ele>
        <time>2017-12-03T14:06:25Z</time>
      </trkpt>
      <trkpt lat="44.15942" lon="5.00495">
        <ele>304.88</ele>
        <time>2017-12-03T14:06:28Z</time>
      </trkpt>
      <trkpt lat="44.15941" lon="5.00485">
        <ele>303.91</ele>
        <time>2017-12-03T14:06:31Z</time>
      </trkpt>
      <trkpt lat="44.1594" lon="5.0047">
        <ele>302.95</ele>
        <time>2017-12-03T14:06:36Z</time>
      </trkpt>
      <trkpt lat="44.15944" lon="5.00447">
        <ele>298.63</ele>
        <time>2017-12-03T14:06:46Z</time>
      </trkpt>
      <trkpt lat="44.15954" lon="5.0043">
        <ele>295.26</ele>
        <time>2017-12-03T14:06:57Z</time>
      </trkpt>
      <trkpt lat="44.15956" lon="5.00425">
        <ele>294.78</ele>
        <time>2017-12-03T14:07:01Z</time>
      </trkpt>
      <trkpt lat="44.15972" lon="5.00399">
        <ele>292.38</ele>
        <time>2017-12-03T14:07:15Z</time>
      </trkpt>
      <trkpt lat="44.15974" lon="5.00394">
        <ele>290.46</ele>
        <time>2017-12-03T14:07:18Z</time>
      </trkpt>
      <trkpt lat="44.15977" lon="5.00382">
        <ele>287.57</ele>
        <time>2017-12-03T14:07:28Z</time>
      </trkpt>
      <trkpt lat="44.15984" lon="5.00367">
        <ele>285.65</ele>
        <time>2017-12-03T14:07:39Z</time>
      </trkpt>
      <trkpt lat="44.15994" lon="5.00357">
        <ele>282.28</ele>
        <time>2017-12-03T14:07:46Z</time>
      </trkpt>
      <trkpt lat="44.15999" lon="5.00354">
        <ele>280.84</ele>
        <time>2017-12-03T14:07:49Z</time>
      </trkpt>
      <trkpt lat="44.16004" lon="5.00349">
        <ele>281.8</ele>
        <time>2017-12-03T14:07:52Z</time>
      </trkpt>
      <trkpt lat="44.16013" lon="5.00342">
        <ele>280.36</ele>
        <time>2017-12-03T14:07:58Z</time>
      </trkpt>
      <trkpt lat="44.16017" lon="5.00338">
        <ele>278.92</ele>
        <time>2017-12-03T14:08:02Z</time>
      </trkpt>
      <trkpt lat="44.16021" lon="5.00331">
        <ele>278.92</ele>
        <time>2017-12-03T14:08:06Z</time>
      </trkpt>
      <trkpt lat="44.16023" lon="5.00328">
        <ele>277.96</ele>
        <time>2017-12-03T14:08:08Z</time>
      </trkpt>
      <trkpt lat="44.16028" lon="5.00318">
        <ele>276.52</ele>
        <time>2017-12-03T14:08:13Z</time>
      </trkpt>
      <trkpt lat="44.1603" lon="5.00315">
        <ele>276.52</ele>
        <time>2017-12-03T14:08:15Z</time>
      </trkpt>
      <trkpt lat="44.16045" lon="5.00319">
        <ele>273.15</ele>
        <time>2017-12-03T14:08:25Z</time>
      </trkpt>
      <trkpt lat="44.16047" lon="5.00322">
        <ele>268.35</ele>
        <time>2017-12-03T14:08:30Z</time>
      </trkpt>
      <trkpt lat="44.1605" lon="5.00323">
        <ele>270.27</ele>
        <time>2017-12-03T14:08:34Z</time>
      </trkpt>
      <trkpt lat="44.1606" lon="5.0033">
        <ele>269.79</ele>
        <time>2017-12-03T14:08:41Z</time>
      </trkpt>
      <trkpt lat="44.16062" lon="5.00335">
        <ele>268.35</ele>
        <time>2017-12-03T14:08:44Z</time>
      </trkpt>
      <trkpt lat="44.16066" lon="5.00338">
        <ele>268.35</ele>
        <time>2017-12-03T14:08:47Z</time>
      </trkpt>
      <trkpt lat="44.16068" lon="5.00342">
        <ele>266.9</ele>
        <time>2017-12-03T14:08:49Z</time>
      </trkpt>
      <trkpt lat="44.16078" lon="5.00353">
        <ele>265.94</ele>
        <time>2017-12-03T14:08:57Z</time>
      </trkpt>
      <trkpt lat="44.16086" lon="5.00362">
        <ele>266.42</ele>
        <time>2017-12-03T14:09:03Z</time>
      </trkpt>
      <trkpt lat="44.16091" lon="5.00368">
        <ele>264.5</ele>
        <time>2017-12-03T14:09:09Z</time>
      </trkpt>
      <trkpt lat="44.16101" lon="5.00383">
        <ele>261.62</ele>
        <time>2017-12-03T14:09:23Z</time>
      </trkpt>
      <trkpt lat="44.16103" lon="5.00383">
        <ele>260.65</ele>
        <time>2017-12-03T14:09:25Z</time>
      </trkpt>
      <trkpt lat="44.16104" lon="5.00382">
        <ele>260.17</ele>
        <time>2017-12-03T14:09:27Z</time>
      </trkpt>
      <trkpt lat="44.16111" lon="5.00384">
        <ele>259.69</ele>
        <time>2017-12-03T14:09:31Z</time>
      </trkpt>
      <trkpt lat="44.16114" lon="5.00384">
        <ele>259.21</ele>
        <time>2017-12-03T14:09:33Z</time>
      </trkpt>
      <trkpt lat="44.1613" lon="5.00394">
        <ele>256.81</ele>
        <time>2017-12-03T14:09:43Z</time>
      </trkpt>
      <trkpt lat="44.16135" lon="5.00399">
        <ele>255.85</ele>
        <time>2017-12-03T14:09:47Z</time>
      </trkpt>
      <trkpt lat="44.16136" lon="5.00401">
        <ele>255.37</ele>
        <time>2017-12-03T14:09:48Z</time>
      </trkpt>
      <trkpt lat="44.16138" lon="5.00403">
        <ele>255.37</ele>
        <time>2017-12-03T14:09:50Z</time>
      </trkpt>
      <trkpt lat="44.16146" lon="5.00411">
        <ele>253.44</ele>
        <time>2017-12-03T14:09:56Z</time>
      </trkpt>
      <trkpt lat="44.16147" lon="5.00412">
        <ele>252.96</ele>
        <time>2017-12-03T14:09:57Z</time>
      </trkpt>
      <trkpt lat="44.16163" lon="5.0042">
        <ele>251.04</ele>
        <time>2017-12-03T14:10:08Z</time>
      </trkpt>
      <trkpt lat="44.16165" lon="5.00425">
        <ele>249.12</ele>
        <time>2017-12-03T14:10:12Z</time>
      </trkpt>
      <trkpt lat="44.16167" lon="5.00428">
        <ele>248.64</ele>
        <time>2017-12-03T14:10:15Z</time>
      </trkpt>
      <trkpt lat="44.16169" lon="5.0043">
        <ele>249.6</ele>
        <time>2017-12-03T14:10:17Z</time>
      </trkpt>
      <trkpt lat="44.16173" lon="5.00433">
        <ele>247.2</ele>
        <time>2017-12-03T14:10:20Z</time>
      </trkpt>
      <trkpt lat="44.16174" lon="5.00434">
        <ele>246.23</ele>
        <time>2017-12-03T14:10:21Z</time>
      </trkpt>
      <trkpt lat="44.16182" lon="5.00439">
        <ele>244.31</ele>
        <time>2017-12-03T14:10:27Z</time>
      </trkpt>
      <trkpt lat="44.16185" lon="5.00452">
        <ele>242.87</ele>
        <time>2017-12-03T14:10:31Z</time>
      </trkpt>
      <trkpt lat="44.16188" lon="5.00458">
        <ele>243.35</ele>
        <time>2017-12-03T14:10:34Z</time>
      </trkpt>
      <trkpt lat="44.16194" lon="5.00466">
        <ele>242.87</ele>
        <time>2017-12-03T14:10:38Z</time>
      </trkpt>
      <trkpt lat="44.16206" lon="5.00482">
        <ele>240.47</ele>
        <time>2017-12-03T14:10:48Z</time>
      </trkpt>
      <trkpt lat="44.16214" lon="5.00495">
        <ele>239.51</ele>
        <time>2017-12-03T14:10:56Z</time>
      </trkpt>
      <trkpt lat="44.16225" lon="5.0049">
        <ele>238.06</ele>
        <time>2017-12-03T14:11:06Z</time>
      </trkpt>
      <trkpt lat="44.16241" lon="5.00475">
        <ele>235.66</ele>
        <time>2017-12-03T14:11:15Z</time>
      </trkpt>
      <trkpt lat="44.16258" lon="5.0046">
        <ele>233.26</ele>
        <time>2017-12-03T14:11:27Z</time>
      </trkpt>
      <trkpt lat="44.16269" lon="5.00452">
        <ele>231.81</ele>
        <time>2017-12-03T14:11:34Z</time>
      </trkpt>
      <trkpt lat="44.16283" lon="5.00438">
        <ele>229.89</ele>
        <time>2017-12-03T14:11:46Z</time>
      </trkpt>
      <trkpt lat="44.16284" lon="5.00438">
        <ele>229.89</ele>
        <time>2017-12-03T14:11:47Z</time>
      </trkpt>
      <trkpt lat="44.16296" lon="5.00432">
        <ele>227.97</ele>
        <time>2017-12-03T14:11:57Z</time>
      </trkpt>
      <trkpt lat="44.16309" lon="5.00422">
        <ele>226.53</ele>
        <time>2017-12-03T14:12:08Z</time>
      </trkpt>
      <trkpt lat="44.16312" lon="5.0041">
        <ele>226.05</ele>
        <time>2017-12-03T14:12:12Z</time>
      </trkpt>
      <trkpt lat="44.16316" lon="5.004">
        <ele>225.09</ele>
        <time>2017-12-03T14:12:17Z</time>
      </trkpt>
    </trkseg>
  </trk>
</gpx>